[[{"header":{"parameterUnit":"m.s-1","parameterCategory":1,"la1":31.0,"la2":29.5877,"lo1":-88.7671,"lo2":-86.6584,"dx":0.0162,"dy":0.0185,"nx":115,"ny":88,"refTime":"2022-12-10T06:00:00:Z","depth":0,"parameterNumber":2,"parameterNumberName":"U-component_of_WINDS"},"data":[0.0,0.0,0.0,0.0,0.0,0.0,0.0,0.0,0.0,0.0,0.0,0.0,0.0,0.0,0.0,0.0,0.0,0.0,0.0,0.0,0.0,0.0,0.0,0.0,0.0,0.0,0.0,0.0,0.0,0.0,0.0,0.0,0.0,0.0,0.0,0.0,0.0,0.0,0.0,0.0,0.0,0.0,0.0,0.0,0.0,0.0,0.0,0.0,0.0,0.0,0.0,0.0,0.0,0.0,0.0,0.0,0.0,0.0,0.0,0.0,0.0,0.0,0.0,0.0,0.0,0.0,0.0,0.0,0.0,0.0,0.0,0.0,0.0,0.0,0.0,0.0,0.0,0.0,0.0,0.0,0.0,0.0,0.0,0.0,0.0,0.0,0.0,0.0,0.0,0.0,0.0,0.0,0.0,0.0,0.0,0.0,0.0,0.0,0.0,0.0,0.0,0.0,0.0,0.0,0.0,0.0,0.0,0.0,0.0,0.0,0.0,0.0,0.0,0.0,0.0,0.0,0.0,0.0,0.0,0.0,0.0,0.0,0.0,0.0,0.0,0.0,0.0,0.0,0.0,0.0,0.0,0.0,0.0,0.0,0.0,0.0,0.0,0.0,0.0,0.0,0.0,0.0,0.0,0.0,0.0,0.0,0.0,0.0,0.0,0.0,0.0,0.0,0.0,0.0,0.0,0.0,0.0,0.0,0.0,0.0,0.0,0.0,0.0,0.0,0.0,0.0,0.0,0.0,0.0,0.0,0.0,0.0,0.0,0.0,0.0,0.0,0.0,0.0,0.0,0.0,0.0,0.0,0.0,0.0,0.0,0.0,0.0,0.0,0.0,0.0,0.0,0.0,0.0,0.0,0.0,0.0,0.0,0.0,0.0,0.0,0.0,0.0,0.0,0.0,0.0,0.0,0.0,0.0,0.0,0.0,0.0,0.0,0.0,0.0,0.0,0.0,0.0,0.0,0.0,0.0,0.0,0.0,0.0,0.0,0.0,0.0,0.0,0.0,0.0,0.0,0.0,0.0,0.0,0.0,0.0,0.0,0.0,0.0,0.0,0.0,0.0,0.0,0.0,0.0,0.0,0.0,0.0,0.0,0.0,0.0,0.0,0.0,0.0,0.0,0.0,0.0,0.0,0.0,0.0,0.0,0.0,0.0,0.0,0.0,0.0,0.0,0.0,0.0,0.0,0.0,0.0,0.0,0.0,0.0,0.0,0.0,0.0,0.0,0.0,0.0,0.0,0.0,0.0,0.0,0.0,0.0,0.0,0.0,0.0,0.0,0.0,0.0,0.0,0.0,0.0,0.0,0.0,0.0,0.0,0.0,0.0,0.0,0.0,0.0,0.0,0.0,0.0,0.0,0.0,0.0,0.0,0.0,0.0,0.0,0.0,0.0,0.0,0.0,0.0,0.0,0.0,0.0,0.0,0.0,0.0,0.0,0.0,0.0,0.0,0.0,0.0,0.0,0.0,0.0,0.0,0.0,0.0,0.0,0.0,0.0,0.0,0.0,0.0,0.0,0.0,0.0,0.0,0.0,0.0,0.0,0.0,0.0,0.0,0.0,0.0,0.0,0.0,0.0,0.0,0.0,0.0,0.0,0.0,0.0,0.0,0.0,0.0,0.0,0.0,0.0,0.0,0.0,0.0,0.0,0.0,0.0,0.0,0.0,0.0,0.0,0.0,0.0,0.0,0.0,0.0,0.0,0.0,0.0,0.0,0.0,0.0,0.0,0.0,0.0,0.0,0.0,0.0,0.0,0.0,0.0,0.0,0.0,0.0,0.0,0.0,0.0,0.0,0.0,0.0,0.0,0.0,0.0,0.0,0.0,0.0,0.0,0.0,0.0,0.0,0.0,0.0,0.0,0.0,0.0,0.0,0.0,0.0,0.0,0.0,0.0,0.0,0.0,0.0,0.0,0.0,0.0,0.0,0.0,0.0,0.0,0.0,0.0,0.0,0.0,0.0,0.0,0.0,0.0,0.0,0.0,0.0,0.0,0.0,0.0,0.0,0.0,0.0,0.0,0.0,0.0,0.0,0.0,0.0,0.0,0.0,0.0,0.0,0.0,0.0,0.0,0.0,0.0,0.0,0.0,0.0,0.0,0.0,0.0,0.0,0.0,0.0,0.0,0.0,0.0,0.0,0.0,0.0,0.0,0.0,0.0,0.0,0.0,0.0,0.0,0.0,0.0,0.0,0.0,0.0,0.0,0.0,0.0,0.0,0.0,0.0,0.0,0.0,0.0,0.0,0.0,0.0,0.0,0.0,0.0,0.0,0.0,0.0,0.0,0.0,0.0,0.0,0.0,0.0,0.0,0.0,0.0,0.0,0.0,0.0,0.0,0.0,0.0,0.0,0.0,0.0,0.0,0.0,0.0,0.0,0.0,0.0,0.0,0.0,0.0,0.0,0.0,0.0,0.0,0.0,0.0,0.0,0.0,0.0,0.0,0.0,0.0,0.0,0.0,0.0,0.0,0.0,0.0,0.0,0.0,0.0,0.0,0.0,0.0,0.0,0.0,0.0,0.0,0.0,0.0,0.0,0.0,0.0,0.0,0.0,0.0,0.0,0.0,0.0,0.0,0.0,0.0,0.0,0.0,0.0,0.0,0.0,0.0,0.0,0.0,0.0,0.0,0.0,0.0,0.0,0.0,0.0,0.0,0.0,0.0,0.0,0.0,0.0,0.0,0.0,0.0,0.0,0.0,0.0,0.0,0.0,0.0,0.0,0.0,0.0,0.0,0.0,0.0,0.0,0.0,0.0,0.0,0.0,0.0,0.0,0.0,0.0,0.0,0.0,0.0,0.0,0.0,0.0,0.0,0.0,0.0,0.0,0.0,0.0,0.0,0.0,0.0,0.0,0.0,0.0,0.0,0.0,0.0,0.0,0.0,0.0,0.0,0.0,0.0,0.0,0.0,0.0,0.0,0.0,0.0,0.0,0.0,0.0,0.0,0.0,0.0,0.0,0.0,0.0,0.0,0.0,0.0,0.0,0.0,0.0,0.0,0.0,0.0,0.0,0.0,0.0,0.0,0.0,0.0,0.0,0.0,0.0,0.0,0.0,0.0,0.0,0.0,0.0,0.0,0.0,0.0,0.0,0.0,0.0,0.0,0.0,0.0,0.0,0.0,0.0,0.0,0.0,0.0,0.0,0.0,0.0,0.0,0.0,0.0,0.0,0.0,0.0,0.0,0.0,0.0,0.0,0.0,0.0,0.0,0.0,0.0,0.0,0.0,0.0,0.0,0.0,0.0,0.0,0.0,0.0,0.0,0.0,0.0,0.0,0.0,0.0,0.0,0.0,0.0,0.0,0.0,0.0,0.0,0.0,0.0,0.0,0.0,0.0,0.0,0.0,0.0,0.0,0.0,0.0,0.0,0.0,0.0,0.0,0.0,0.0,0.0,0.0,0.0,0.0,0.0,0.0,0.0,0.0,0.0,0.0,0.0,0.0,0.0,0.0,0.0,0.0,0.0,0.0,0.0,0.0,0.0,0.0,0.0,0.0,0.0,0.0,0.0,0.0,0.0,0.0,0.0,0.0,0.0,0.0,0.0,0.0,0.0,0.0,0.0,0.0,0.0,0.0,0.0,0.0,0.0,0.0,0.0,0.0,0.0,0.0,0.0,0.0,0.0,0.0,0.0,0.0,0.0,0.0,0.0,0.0,0.0,0.0,0.0,0.0,0.0,0.0,0.0,0.0,0.0,0.0,0.0,0.0,0.0,0.0,0.0,0.0,0.0,0.0,0.0,0.0,0.0,0.0,0.0,0.0,0.0,0.0,0.0,0.0,0.0,0.0,0.0,0.0,0.0,0.0,0.0,0.0,0.0,0.0,0.0,0.0,0.0,0.0,0.0,0.0,0.0,0.0,0.0,0.0,0.0,0.0,0.0,0.0,0.0,0.0,0.0,0.0,0.0,0.0,0.0,0.0,0.0,0.0,0.0,0.0,0.0,0.0,0.0,0.0,0.0,0.0,0.0,0.0,0.0,0.0,0.0,0.0,0.0,0.0,0.0,0.0,0.0,0.0,0.0,0.0,0.0,0.0,0.0,0.0,0.0,0.0,0.0,0.0,0.0,0.0,0.0,0.0,0.0,0.0,0.0,0.0,0.0,0.0,0.0,0.0,0.0,0.0,0.0,0.0,0.0,0.0,0.0,0.0,0.0,0.0,0.0,0.0,0.0,0.0,0.0,0.0,0.0,0.0,0.0,0.0,0.0,0.0,0.0,0.0,0.0,0.0,0.0,0.0,0.0,1.0983,0.0,0.0,0.0,1.0094,0.0,0.0,0.0,0.0,0.0,0.0,0.0,0.0,0.0,0.0,0.0,0.0,0.0,0.0,0.0,0.0,0.0,0.0,0.0,0.0,0.0,0.0,0.0,0.0,0.0,0.0,0.0,0.0,0.0,0.0,0.0,0.0,0.0,0.0,0.0,0.0,0.0,0.0,0.0,0.0,0.0,0.0,0.0,0.0,0.0,0.0,0.0,0.0,0.0,0.0,0.0,0.0,0.0,0.0,0.0,0.0,0.0,0.0,0.0,0.0,0.0,0.0,0.0,0.0,0.0,0.0,0.0,0.0,0.0,0.0,0.0,0.0,0.0,0.0,0.0,0.0,0.0,0.0,0.0,0.0,0.0,0.0,0.0,0.0,0.0,0.0,0.0,0.0,0.0,0.0,0.0,0.0,0.0,0.0,0.0,0.0,0.0,0.0,0.0,0.0,0.0,0.0,0.0,0.0,0.0,0.0,0.0,0.0,0.0,0.0,1.0502,1.0113,1.0094,1.0094,1.0094,0.0,0.0,0.0,0.0,0.0,0.0,0.0,0.0,0.0,0.0,0.0,0.0,0.0,0.0,0.0,0.0,0.0,0.0,0.0,0.0,0.0,0.0,0.0,0.0,0.0,0.0,0.0,0.0,0.0,0.0,0.0,0.0,0.0,0.0,0.0,0.0,0.0,0.0,0.0,0.0,0.0,0.0,0.0,0.0,0.0,0.0,0.0,0.0,0.0,0.0,0.0,0.0,0.0,0.0,0.0,0.0,0.0,0.0,0.0,0.0,0.0,0.0,0.0,0.0,0.0,0.0,0.0,0.0,0.0,0.0,0.0,0.0,0.0,0.0,0.0,0.0,0.0,0.0,0.0,0.0,0.0,0.0,0.0,0.0,0.0,0.0,0.0,0.0,0.0,0.0,0.0,0.0,0.0,0.0,0.0,0.0,0.0,0.0,0.0,0.0,0.0,0.0,0.0,0.0,0.0,0.0,0.0,0.0,0.0,0.0,0.0,0.0,1.0094,1.0094,1.0094,0.0,0.0,0.0,0.0,0.0,0.0,0.0,0.0,0.0,0.0,0.0,0.0,0.0,0.0,0.0,0.0,0.0,0.0,0.0,0.0,0.0,0.0,0.0,0.0,0.0,0.0,0.0,0.0,0.0,0.0,0.0,0.0,0.0,0.0,0.0,0.0,0.0,0.0,0.0,0.0,0.0,0.0,0.0,0.0,0.0,0.0,0.0,0.0,0.0,0.0,0.0,0.0,0.0,0.0,0.0,0.0,0.0,0.0,0.0,0.0,0.0,0.0,0.0,0.0,0.0,0.0,0.0,0.0,0.0,0.0,0.0,0.0,0.0,0.0,0.0,0.0,0.0,0.0,0.0,0.0,0.0,0.0,0.0,0.0,0.0,0.0,0.0,0.0,0.0,0.0,0.0,0.0,0.0,0.0,0.0,0.0,0.0,0.0,0.0,0.0,0.0,0.0,0.0,0.0,0.0,0.0,0.0,0.0,0.0,0.0,1.0094,1.0094,1.0113,0.0,1.0094,0.0,0.0,0.0,0.0,0.0,0.0,0.0,0.0,0.0,0.0,0.0,0.0,0.0,0.0,0.0,0.0,0.0,0.0,0.0,0.0,0.0,0.0,0.0,0.0,0.0,0.0,0.0,0.0,0.0,0.0,0.0,0.0,0.0,0.0,0.0,0.0,0.0,0.0,0.0,0.0,0.0,0.0,0.0,0.0,0.0,0.0,0.0,0.0,0.0,0.0,0.0,0.0,0.0,0.0,0.0,0.0,0.0,0.0,0.0,0.0,0.0,0.0,0.0,0.0,0.0,0.0,0.0,0.0,0.0,0.0,0.0,0.0,0.0,0.0,0.0,0.0,0.0,0.0,0.0,0.0,0.0,0.0,0.0,0.0,0.0,0.0,0.0,0.0,0.0,0.0,0.0,0.0,0.0,0.0,0.0,0.0,0.0,0.0,0.0,0.0,0.0,0.0,0.0,0.0,0.0,0.0,0.0,0.0,0.0,0.0,1.1107,1.1631,1.116,1.0613,0.0,0.0,0.0,0.0,0.0,0.0,0.0,0.0,0.0,0.0,0.0,0.0,0.0,0.0,0.0,0.0,0.0,0.0,0.0,0.0,0.0,0.0,0.0,0.0,0.0,0.0,0.0,0.0,0.0,0.0,0.0,0.0,0.0,0.0,0.0,0.0,0.0,0.0,0.0,0.0,0.0,0.0,0.0,0.0,0.0,0.0,0.0,0.0,0.0,0.0,0.0,0.0,0.0,0.0,0.0,0.0,0.0,0.0,0.0,0.0,0.0,0.0,0.0,0.0,0.0,0.0,0.0,0.0,0.0,0.0,0.0,0.0,0.0,0.0,0.0,0.0,0.0,0.0,0.0,0.0,0.0,0.0,0.0,0.0,0.0,0.0,0.0,0.0,0.0,0.0,0.0,0.0,0.0,0.0,0.0,0.0,0.0,0.0,0.0,0.0,0.0,0.0,0.0,0.0,0.0,0.0,0.0,0.0,0.0,0.0,1.1412,1.1708,1.2262,1.1738,1.1002,1.0133,0.0,0.0,0.0,0.0,0.0,0.0,0.0,0.0,0.0,0.0,0.0,0.0,0.0,0.0,0.0,0.0,0.0,0.0,0.0,0.0,0.0,0.0,0.0,0.0,0.0,0.0,0.0,0.0,0.0,0.0,0.0,0.0,0.0,0.0,0.0,0.0,0.0,0.0,0.0,0.0,0.0,0.0,0.0,0.0,0.0,0.0,0.0,0.0,0.0,0.0,0.0,0.0,0.0,0.0,0.0,0.0,0.0,0.0,0.0,0.0,0.0,0.0,0.0,0.0,0.0,0.0,0.0,0.0,0.0,0.0,0.0,0.0,0.0,0.0,0.0,0.0,0.0,0.0,0.0,0.0,0.0,0.0,0.0,0.0,0.0,0.0,0.0,0.0,0.0,0.0,0.0,0.0,0.0,0.0,0.0,0.0,0.0,0.0,0.0,0.0,0.0,0.0,0.0,0.0,0.0,0.0,0.0,0.0,1.1397,1.1435,1.1449,1.1532,1.1416,1.1002,0.0,0.0,0.0,0.0,0.0,0.0,0.0,0.0,0.0,0.0,0.0,0.0,0.0,0.0,0.0,0.0,0.0,0.0,0.0,0.0,0.0,0.0,0.0,0.0,0.0,0.0,0.0,0.0,0.0,0.0,0.0,0.0,0.0,0.0,0.0,0.0,0.0,0.0,0.0,0.0,0.0,0.0,0.0,0.0,0.0,0.0,0.0,0.0,0.0,0.0,0.0,0.0,0.0,0.0,0.0,0.0,0.0,0.0,0.0,0.0,0.0,0.0,0.0,0.0,0.0,0.0,0.0,0.0,0.0,0.0,0.0,0.0,0.0,0.0,0.0,0.0,0.0,0.0,0.0,0.0,0.0,0.0,0.0,0.0,0.0,0.0,0.0,0.0,0.0,0.0,0.0,0.0,0.0,0.0,0.0,0.0,0.0,0.0,0.0,0.0,0.0,0.0,0.0,0.0,0.0,0.0,0.0,0.0,0.0,1.2235,1.3281,1.3576,1.3081,1.2531,1.1838,0.0,0.0,0.0,0.0,0.0,0.0,0.0,0.0,0.0,0.0,0.0,0.0,0.0,0.0,0.0,0.0,0.0,0.0,0.0,0.0,0.0,0.0,0.0,0.0,0.0,0.0,0.0,0.0,0.0,0.0,0.0,0.0,0.0,0.0,0.0,0.0,0.0,0.0,0.0,0.0,0.0,0.0,0.0,0.0,0.0,0.0,0.0,0.0,0.0,0.0,0.0,0.0,0.0,0.0,0.0,0.0,0.0,0.0,0.0,0.0,0.0,0.0,0.0,0.0,0.0,0.0,0.0,0.0,0.0,0.0,0.0,0.0,0.0,0.0,0.0,0.0,0.0,0.0,0.0,0.0,0.0,0.0,0.0,0.0,0.0,0.0,0.0,0.0,0.0,0.0,0.0,0.0,0.0,0.0,0.0,0.0,0.0,0.0,0.0,0.0,0.0,0.0,0.0,0.0,0.0,0.0,0.0,0.0,0.0,1.3124,1.4478,1.4827,1.4027,1.3146,1.229,0.0,0.0,0.0,0.0,0.0,0.0,0.0,0.0,0.0,0.0,0.0,0.0,0.0,0.0,0.0,0.0,0.0,0.0,0.0,0.0,0.0,0.0,0.0,0.0,0.0,0.0,0.0,0.0,0.0,0.0,0.0,0.0,0.0,0.0,0.0,0.0,0.0,0.0,0.0,0.0,0.0,0.0,0.0,0.0,0.0,0.0,0.0,0.0,0.0,0.0,0.0,0.0,0.0,0.0,0.0,0.0,0.0,0.0,0.0,0.0,0.0,0.0,0.0,0.0,0.0,0.0,0.0,0.0,0.0,0.0,0.0,0.0,0.0,0.0,0.0,0.0,0.0,0.0,0.0,0.0,0.0,0.0,0.0,0.0,0.0,0.0,0.0,0.0,0.0,0.0,0.0,0.0,0.0,0.0,0.0,0.0,0.0,0.0,0.0,0.0,0.0,0.0,0.0,0.0,0.0,0.0,0.0,0.0,1.2374,1.3985,1.4859,1.4929,1.4065,1.3242,1.2343,0.0,0.0,0.0,0.0,0.0,0.0,0.0,0.0,0.0,0.0,0.0,0.0,0.0,0.0,0.0,0.0,0.0,0.0,0.0,0.0,0.0,0.0,0.0,0.0,0.0,0.0,0.0,0.0,0.0,0.0,0.0,0.0,0.0,0.0,0.0,0.0,0.0,0.0,0.0,0.0,0.0,0.0,0.0,0.0,0.0,0.0,0.0,0.0,0.0,0.0,0.0,0.0,0.0,0.0,0.0,0.0,0.0,0.0,0.0,0.0,0.0,0.0,0.0,0.0,0.0,0.0,0.0,0.0,0.0,0.0,0.0,0.0,0.0,0.0,0.0,0.0,0.0,0.0,0.0,0.0,0.0,0.0,0.0,0.0,0.0,0.0,0.0,0.0,0.0,0.0,0.0,0.0,0.0,0.0,0.0,0.0,0.0,0.0,0.0,0.0,0.0,0.0,0.0,0.0,0.0,0.0,0.0,0.0,0.0,1.5763,1.6588,1.659,1.5741,1.4885,1.3749,0.0,0.0,0.0,0.0,0.0,0.0,0.0,0.0,0.0,0.0,0.0,0.0,0.0,0.0,0.0,0.0,0.0,0.0,0.0,0.0,0.0,0.0,0.0,0.0,0.0,0.0,0.0,0.0,0.0,0.0,0.0,0.0,0.0,0.0,0.0,0.0,0.0,0.0,0.0,0.0,0.0,0.0,0.0,0.0,0.0,0.0,0.0,0.0,0.0,0.0,0.0,0.0,0.0,0.0,0.0,0.0,0.0,0.0,0.0,0.0,0.0,0.0,0.0,0.0,0.0,0.0,0.0,0.0,0.0,0.0,0.0,0.0,0.0,0.0,0.0,0.0,0.0,0.0,0.0,0.0,0.0,0.0,0.0,0.0,0.0,0.0,0.0,0.0,0.0,0.0,0.0,0.0,0.0,0.0,0.0,0.0,0.0,0.0,0.0,0.0,0.0,0.0,0.0,0.0,0.0,0.0,0.0,0.0,0.0,1.794,1.7874,1.7528,1.7012,1.5821,1.4549,1.3193,0.0,0.0,0.0,0.0,0.0,0.0,0.0,0.0,0.0,0.0,0.0,0.0,0.0,0.0,0.0,0.0,0.0,0.0,0.0,0.0,0.0,0.0,0.0,0.0,0.0,0.0,0.0,0.0,0.0,0.0,0.0,0.0,0.0,0.0,0.0,0.0,0.0,0.0,0.0,0.0,0.0,0.0,0.0,0.0,0.0,0.0,0.0,0.0,0.0,0.0,0.0,0.0,0.0,0.0,0.0,0.0,0.0,0.0,0.0,0.0,0.0,0.0,0.0,0.0,0.0,0.0,0.0,0.0,0.0,0.0,0.0,0.0,0.0,0.0,0.0,0.0,0.0,0.0,0.0,0.0,0.0,0.0,0.0,0.0,0.0,0.0,0.0,0.0,0.0,0.0,0.0,0.0,0.0,0.0,0.0,0.0,0.0,0.0,0.0,0.0,0.0,0.0,0.0,0.0,0.0,0.0,0.0,0.0,2.039,1.8883,1.808,1.7934,1.6328,1.494,0.0,0.0,0.0,0.0,0.0,0.0,0.0,0.0,0.0,0.0,0.0,0.0,0.0,0.0,0.0,0.0,0.0,0.0,0.0,0.0,0.0,0.0,0.0,0.0,0.0,0.0,0.0,0.0,0.0,0.0,0.0,0.0,0.0,0.0,0.0,0.0,0.0,0.0,0.0,0.0,0.0,0.0,0.0,0.0,0.0,0.0,0.0,0.0,0.0,0.0,0.0,0.0,0.0,0.0,0.0,0.0,0.0,0.0,0.0,0.0,0.0,0.0,0.0,0.0,0.0,0.0,0.0,0.0,0.0,0.0,0.0,0.0,0.0,0.0,0.0,0.0,0.0,0.0,0.0,0.0,0.0,0.0,0.0,0.0,0.0,0.0,0.0,0.0,0.0,0.0,0.0,0.0,0.0,0.0,0.0,0.0,0.0,0.0,0.0,0.0,0.0,0.0,0.0,0.0,0.0,0.0,0.0,0.0,0.0,2.0454,2.1238,2.1022,1.9748,1.8616,1.7016,0.0,0.0,0.0,0.0,0.0,0.0,0.0,0.0,0.0,0.0,0.0,0.0,0.0,0.0,0.0,0.0,0.0,0.0,0.0,0.0,0.0,0.0,0.0,0.0,0.0,0.0,0.0,0.0,0.0,0.0,0.0,0.0,0.0,0.0,0.0,0.0,0.0,0.0,0.0,0.0,0.0,0.0,0.0,0.0,0.0,0.0,0.0,0.0,0.0,0.0,0.0,0.0,0.0,0.0,0.0,0.0,0.0,0.0,0.0,0.0,0.0,0.0,0.0,0.0,0.0,0.0,0.0,0.0,0.0,0.0,0.0,0.0,0.0,0.0,0.0,0.0,0.0,0.0,0.0,0.0,0.0,0.0,0.0,0.0,0.0,0.0,0.0,0.0,0.0,0.0,0.0,0.0,0.0,0.0,0.0,0.0,0.0,0.0,0.0,0.0,0.0,0.0,0.0,0.0,0.0,0.0,0.0,0.0,2.0515,2.2056,2.3062,2.3073,2.2056,2.0431,1.857,0.0,0.0,0.0,0.0,0.0,0.0,0.0,0.0,0.0,0.0,0.0,0.0,0.0,0.0,0.0,0.0,0.0,0.0,0.0,0.0,0.0,0.0,0.0,0.0,0.0,0.0,0.0,0.0,0.0,0.0,0.0,0.0,0.0,0.0,0.0,0.0,0.0,0.0,0.0,0.0,0.0,0.0,0.0,0.0,0.0,0.0,0.0,0.0,0.0,0.0,0.0,0.0,0.0,0.0,0.0,0.0,0.0,0.0,0.0,0.0,0.0,0.0,0.0,0.0,0.0,0.0,0.0,0.0,0.0,0.0,0.0,0.0,0.0,0.0,0.0,0.0,0.0,0.0,0.0,0.0,0.0,0.0,0.0,0.0,0.0,0.0,0.0,0.0,0.0,0.0,0.0,0.0,0.0,0.0,0.0,0.0,0.0,0.0,0.0,0.0,0.0,0.0,0.0,0.0,0.0,0.0,0.0,0.0,2.1858,2.4375,2.4526,2.4563,2.4497,2.1971,1.9726,0.0,0.0,0.0,0.0,0.0,0.0,0.0,0.0,0.0,0.0,0.0,0.0,0.0,0.0,0.0,0.0,0.0,0.0,0.0,0.0,0.0,0.0,0.0,0.0,0.0,0.0,0.0,0.0,0.0,0.0,0.0,0.0,0.0,0.0,0.0,0.0,0.0,0.0,0.0,0.0,0.0,0.0,0.0,0.0,0.0,0.0,0.0,0.0,0.0,0.0,0.0,0.0,0.0,0.0,0.0,0.0,0.0,0.0,0.0,0.0,0.0,0.0,0.0,0.0,0.0,0.0,0.0,0.0,0.0,0.0,0.0,0.0,0.0,0.0,0.0,0.0,0.0,0.0,0.0,0.0,0.0,0.0,0.0,0.0,0.0,0.0,0.0,0.0,0.0,0.0,0.0,0.0,0.0,0.0,0.0,0.0,0.0,0.0,0.0,0.0,0.0,0.0,0.0,0.0,0.0,0.0,0.0,0.0,2.2789,2.5317,2.6007,2.6344,2.6325,2.3148,2.0621,0.0,0.0,0.0,0.0,0.0,0.0,0.0,0.0,0.0,0.0,0.0,0.0,0.0,0.0,0.0,0.0,0.0,0.0,0.0,0.0,0.0,0.0,0.0,0.0,0.0,0.0,0.0,0.0,0.0,0.0,0.0,0.0,0.0,0.0,0.0,0.0,0.0,0.0,0.0,0.0,0.0,0.0,0.0,0.0,0.0,0.0,0.0,0.0,1.1938,0.0,0.0,0.0,0.0,0.0,0.0,0.0,0.0,0.0,0.0,0.0,0.0,0.0,0.0,0.0,0.0,0.0,0.0,0.0,0.0,0.0,0.0,0.0,0.0,0.0,0.0,0.0,0.0,0.0,0.0,0.0,0.0,0.0,0.0,0.0,0.0,0.0,0.0,0.0,0.0,0.0,0.0,0.0,0.0,0.0,0.0,0.0,0.0,0.0,0.0,0.0,0.0,0.0,0.0,0.0,0.0,0.0,0.0,0.0,2.4091,2.623,2.7121,2.7347,2.6829,2.435,2.1945,0.0,0.0,0.0,0.0,0.0,0.0,0.0,0.0,0.0,0.0,0.0,0.0,0.0,0.0,0.0,0.0,0.0,0.0,0.0,0.0,0.0,0.0,0.0,0.0,0.0,0.0,0.0,0.0,0.0,0.0,0.0,0.0,0.0,0.0,0.0,0.0,0.0,0.0,0.0,0.0,0.0,0.0,0.0,0.0,0.0,0.0,0.0,0.0,0.0,0.0,0.0,0.0,0.0,0.0,0.0,0.0,0.0,0.0,0.0,0.0,0.0,0.0,0.0,0.0,0.0,0.0,0.0,0.0,0.0,0.0,0.0,0.0,0.0,0.0,0.0,0.0,0.0,0.0,0.0,0.0,0.0,0.0,0.0,0.0,0.0,0.0,0.0,0.0,0.0,0.0,0.0,0.0,0.0,0.0,0.0,0.0,0.0,0.0,0.0,0.0,0.0,0.0,0.0,0.0,0.0,0.0,0.0,2.3081,2.5325,2.7134,2.8054,2.8051,2.7128,2.548,2.3279,2.0488,0.0,0.0,0.0,0.0,0.0,0.0,0.0,0.0,0.0,0.0,0.0,0.0,0.0,0.0,0.0,0.0,0.0,0.0,0.0,0.0,0.0,0.0,0.0,0.0,0.0,0.0,0.0,0.0,0.0,0.0,0.0,0.0,0.0,0.0,0.0,0.0,0.0,0.0,0.9436,1.14,0.0,0.0,0.0,0.0,0.0,0.0,0.0,0.0,1.2828,0.0,0.0,0.0,0.0,0.0,0.0,0.0,0.0,0.0,0.0,0.0,0.0,0.0,0.0,0.0,0.0,0.0,0.0,0.0,0.0,0.0,0.0,0.0,0.0,0.0,0.0,0.0,0.0,0.0,0.0,0.0,0.0,0.0,0.0,0.0,0.0,0.0,0.0,0.0,0.0,0.0,0.0,0.0,0.0,0.0,0.0,0.0,0.0,0.0,0.0,0.0,0.0,0.0,0.0,0.0,0.0,2.0568,2.309,2.559,2.8028,2.8925,2.8964,2.8064,2.6403,2.391,2.0575,0.0,0.0,0.0,0.0,0.0,0.0,0.0,0.0,0.0,0.0,0.0,0.0,0.0,0.0,0.0,0.0,0.0,0.0,0.0,0.0,0.0,0.0,0.0,0.0,0.0,0.0,0.0,0.0,0.0,0.0,0.0,0.0,0.0,0.0,0.0,0.0,0.0,0.0,0.0,1.2839,1.3709,0.0,0.0,0.0,0.0,0.0,0.0,0.0,0.0,1.4257,0.0,0.0,0.0,0.0,0.0,0.0,0.0,0.0,0.0,0.0,0.0,0.0,0.0,0.0,0.0,0.0,0.0,0.0,0.0,0.0,0.0,0.0,0.0,0.0,0.0,0.0,0.0,0.0,0.0,0.0,0.0,0.0,0.0,0.0,0.0,0.0,0.0,0.0,0.0,0.0,0.0,0.0,0.0,0.0,0.0,0.0,0.0,0.0,0.0,0.0,0.0,0.0,0.0,0.0,0.0,2.0573,2.3549,2.6109,2.8234,2.9581,2.9636,2.8303,2.6613,2.4052,0.0,0.0,0.0,0.0,0.0,0.0,0.0,0.0,0.0,0.0,0.0,0.0,0.0,0.0,0.0,0.0,0.0,0.0,0.0,0.0,0.0,0.0,0.0,0.0,0.0,0.0,0.0,0.0,0.0,0.0,0.0,0.0,0.0,0.0,0.0,0.0,0.0,0.0,0.0,0.0,1.3952,1.4736,1.5744,0.0,0.0,0.0,0.0,0.0,0.0,1.5983,1.5516,0.0,0.0,0.0,0.0,0.0,0.0,0.0,0.0,0.0,0.0,0.0,0.0,0.0,0.0,0.0,0.0,0.0,0.0,0.0,0.0,0.0,0.0,0.0,0.0,0.0,0.0,0.0,0.0,0.0,0.0,0.0,0.0,0.0,0.0,0.0,0.0,0.0,0.0,0.0,0.0,0.0,0.0,0.0,0.0,0.0,0.0,0.0,0.0,0.0,0.0,0.0,0.0,0.0,0.0,0.0,2.087,2.4217,2.6718,2.828,3.0017,3.0073,2.8348,2.6607,2.4085,0.0,0.0,0.0,0.0,0.0,0.0,0.0,0.0,0.0,0.0,0.0,0.0,0.0,0.0,0.0,0.0,0.0,0.0,0.0,0.0,0.0,0.0,0.0,0.0,0.0,0.0,0.0,0.0,0.0,0.0,0.0,0.0,0.0,0.0,0.0,0.0,0.0,0.0,0.0,0.0,0.0,1.5785,1.6654,1.7632,0.0,0.0,0.0,0.0,1.7627,1.7022,0.0,0.0,0.0,0.0,0.0,0.0,0.0,0.0,0.0,0.0,0.0,0.0,0.0,0.0,0.0,0.0,0.0,0.0,0.0,0.0,0.0,0.0,0.0,0.0,0.0,0.0,0.0,0.0,0.0,0.0,0.0,0.0,0.0,0.0,0.0,0.0,0.0,0.0,0.0,0.0,0.0,0.0,0.0,0.0,0.0,0.0,0.0,0.0,0.0,0.0,0.0,0.0,0.0,0.0,0.0,0.0,2.1754,2.5111,2.7301,2.832,3.0,3.0058,2.834,2.6613,2.4087,0.0,0.0,0.0,0.0,0.0,0.0,0.0,0.0,0.0,0.0,0.0,0.0,0.0,0.0,0.0,0.0,0.0,0.0,0.0,0.0,0.0,0.0,0.0,0.0,0.0,0.0,0.0,0.0,0.0,0.0,0.0,0.0,0.0,0.0,0.0,0.0,0.0,0.0,0.0,0.0,0.0,1.667,1.7522,1.7374,1.7321,0.0,0.0,1.8304,1.7771,1.7547,0.0,0.0,0.0,0.0,0.0,0.0,0.0,0.0,0.0,0.0,0.0,0.0,0.0,0.0,0.0,0.0,0.0,0.0,0.0,0.0,0.0,0.0,0.0,0.0,0.0,0.0,0.0,0.0,0.0,0.0,0.0,0.0,0.0,0.0,0.0,0.0,0.0,0.0,0.0,0.0,0.0,0.0,0.0,0.0,0.0,0.0,0.0,0.0,0.0,0.0,0.0,0.0,0.0,0.0,0.0,1.9992,2.2574,2.5506,2.7675,2.9023,3.0254,3.0293,2.9082,2.7343,2.4839,0.0,0.0,0.0,0.0,0.0,0.0,0.0,0.0,0.0,0.0,0.0,0.0,0.0,0.0,0.0,0.0,0.0,0.0,0.0,0.0,0.0,0.0,0.0,0.0,0.0,0.0,0.0,0.0,0.0,0.0,0.0,0.0,0.0,0.0,0.0,0.0,0.0,0.0,0.0,0.0,0.0,0.0,1.9101,1.909,0.0,0.0,0.0,2.0388,1.9927,0.0,0.0,0.0,0.0,0.0,0.0,0.0,0.0,0.0,0.0,0.0,0.0,0.0,0.0,0.0,0.0,0.0,0.0,0.0,0.0,0.0,0.0,0.0,0.0,0.0,0.0,0.0,0.0,0.0,0.0,0.0,0.0,0.0,0.0,0.0,0.0,0.0,0.0,0.0,0.0,0.0,0.0,0.0,0.0,0.0,0.0,0.0,0.0,0.0,0.0,0.0,0.0,0.0,0.0,0.0,0.0,0.0,2.3411,2.6015,2.8164,2.9883,3.0566,3.0605,2.9922,2.8027,0.0,0.0,0.0,0.0,0.0,0.0,0.0,0.0,0.0,0.0,0.0,0.0,0.0,0.0,0.0,0.0,0.0,0.0,0.0,0.0,0.0,0.0,0.0,0.0,0.0,0.0,0.0,0.3845,0.0,0.0,0.0,0.0,0.0,0.0,0.0,0.0,0.0,0.0,0.0,0.0,0.0,0.0,1.9076,2.0526,2.0911,2.1494,0.0,0.0,2.2646,2.1968,2.1151,2.03,0.0,0.0,0.0,0.0,0.0,0.0,0.0,0.0,0.0,0.0,0.0,0.0,0.0,0.0,0.0,0.0,0.0,0.0,0.0,0.0,0.0,0.0,0.0,0.0,0.0,0.0,0.0,0.0,0.0,0.0,0.0,0.0,0.0,0.0,0.0,0.0,0.0,0.0,0.0,0.0,0.0,0.0,0.0,0.0,0.0,0.0,0.0,0.0,0.0,0.0,0.0,0.0,0.0,0.0,2.1754,2.4307,2.6893,2.9062,3.0723,3.0859,3.0879,3.0762,2.834,2.5761,0.0,0.0,0.0,0.0,0.0,0.0,0.0,0.0,0.0,0.0,0.0,0.0,0.0,0.0,0.0,0.0,0.0,0.0,0.0,0.0,0.0,0.0,0.0,0.0,0.0,0.0,0.0,0.0,0.0,0.0,0.0,0.0,0.0,0.0,0.0,0.0,0.0,0.0,0.0,0.0,0.0,2.0647,2.1488,2.2318,2.2852,0.0,0.0,2.4684,2.3055,2.2072,2.1212,2.0357,0.0,0.0,0.0,0.0,0.0,0.0,0.0,0.0,0.0,0.0,0.0,0.0,0.0,0.0,0.0,0.0,0.0,0.0,0.0,0.0,0.0,0.0,0.0,0.0,0.0,0.0,0.0,0.0,0.0,0.0,0.0,0.0,0.0,0.0,0.0,0.0,0.0,0.0,0.0,0.0,0.0,0.0,0.0,0.0,0.0,0.0,0.0,0.0,0.0,0.0,0.0,0.0,0.0,2.2127,2.5155,2.7773,2.9941,3.1621,3.2187,3.2207,3.1719,3.0215,2.791,0.0,0.0,0.0,0.0,0.0,0.0,0.0,0.0,0.0,0.0,0.0,0.0,0.0,0.0,0.0,0.0,0.0,0.0,0.0,0.0,0.0,0.0,0.0,0.0,0.0,0.0,0.0,0.0,0.7749,0.8433,0.9525,0.0,0.0,0.0,0.0,0.0,0.0,0.0,0.0,0.0,0.0,2.1208,2.3089,2.3193,0.0,0.0,2.5135,2.513,2.3915,2.3424,2.29,2.2035,2.0753,0.0,0.0,0.0,0.0,0.0,0.0,0.0,0.0,0.0,0.0,0.0,0.0,0.0,0.0,0.0,0.0,0.0,0.0,0.0,0.0,0.0,0.0,0.0,0.0,0.0,0.0,0.0,0.0,0.0,0.0,0.0,0.0,0.0,0.0,0.0,0.0,0.0,0.0,0.0,0.0,0.0,0.0,0.0,0.0,0.0,0.0,0.0,0.0,0.0,0.0,0.0,0.0,2.2284,2.5684,2.8281,3.0566,3.2519,3.3125,3.3242,3.293,3.1621,2.9492,0.0,0.0,0.0,0.0,0.0,0.0,0.0,0.0,0.0,0.0,0.0,0.0,0.0,0.0,0.0,0.0,0.0,0.0,0.0,0.0,0.0,0.0,0.0,0.0,0.0,0.0,0.0,0.0,0.8862,0.9622,1.0226,0.0,0.0,0.0,0.0,0.0,0.0,0.0,0.0,0.0,0.0,2.2717,2.4524,2.4257,2.4479,2.613,2.6384,2.6065,2.5156,2.4794,2.4322,2.347,0.0,0.0,0.0,0.0,0.0,0.0,0.0,0.0,0.0,0.0,0.0,0.0,0.0,0.0,0.0,0.0,0.0,0.0,0.0,0.0,0.0,0.0,0.0,0.0,0.0,0.0,0.0,0.0,0.0,0.0,1.3526,0.0,0.0,0.0,0.0,0.0,0.0,0.0,0.0,0.0,0.0,0.0,0.0,0.0,0.0,0.0,0.0,0.0,0.0,0.0,0.0,0.0,0.0,2.2323,2.5664,2.834,3.0859,3.3262,3.3398,3.3828,3.4512,3.2226,3.0078,2.8242,0.0,0.0,0.0,0.0,0.0,0.0,0.0,0.0,0.0,0.0,0.0,0.0,0.0,0.0,0.0,0.0,0.0,0.0,0.0,0.0,0.0,0.0,0.0,0.0,0.0,0.0,0.8959,0.9759,1.0305,0.0,0.0,0.0,0.0,0.0,0.0,0.0,0.0,0.0,0.0,2.3493,2.5601,2.5679,2.5673,2.6227,2.787,2.8134,2.7848,2.6971,2.6129,2.5274,0.0,0.0,0.0,0.0,0.0,0.0,0.0,0.0,0.0,0.0,0.0,0.0,0.0,0.0,0.0,0.0,0.0,0.0,0.0,0.0,0.0,0.0,0.0,0.0,0.0,0.0,0.0,1.8121,1.8031,0.0,0.0,0.0,0.0,0.0,0.0,0.0,0.0,0.0,0.0,0.0,2.377,2.379,0.0,0.0,0.0,0.0,0.0,0.0,0.0,0.0,0.0,0.0,0.0,0.0,2.369,2.6543,2.9707,3.1992,3.3379,3.4551,3.498,3.4707,3.3867,3.1797,2.8398,0.0,0.0,0.0,0.0,0.0,0.0,0.0,0.0,0.0,0.0,0.0,0.0,0.0,0.0,0.0,0.0,0.0,0.0,0.0,0.0,0.0,0.0,0.0,0.0,0.0,0.999,0.0,0.0,0.0,0.0,0.0,0.0,0.0,0.0,0.0,0.0,0.0,2.1108,2.3665,2.4973,2.6103,2.7247,2.7442,2.7632,0.0,0.0,0.0,0.0,0.0,0.0,0.0,0.0,0.0,0.0,0.0,0.0,0.0,0.0,2.2364,2.0062,1.94,1.9188,1.9208,0.0,0.0,0.0,0.0,0.0,0.0,0.0,0.0,0.0,0.0,0.0,0.0,0.0,0.0,2.1537,0.0,2.0443,0.0,0.0,0.0,0.0,0.0,0.0,0.0,0.0,2.4499,2.5432,2.6818,2.7127,2.7113,0.0,2.542,2.3476,0.0,0.0,0.0,0.0,0.0,0.0,0.0,0.0,2.4842,2.7461,3.0566,3.2734,3.3848,3.5254,3.5742,3.5156,3.457,3.2656,2.9316,2.668,2.3984,0.0,0.0,0.0,0.0,0.0,0.0,0.0,0.0,0.0,0.0,0.0,0.0,0.0,0.0,0.0,0.0,0.0,0.0,0.0,0.0,0.0,0.0,0.0,1.1722,0.0,0.0,0.0,0.0,0.0,0.0,0.0,0.0,0.0,1.8848,2.0664,2.287,2.537,2.6385,2.7283,2.8411,0.0,0.0,0.0,0.0,0.0,0.0,0.0,2.856,2.8287,2.7764,2.7374,2.7394,2.6965,2.7163,2.8895,0.0,0.0,2.2834,2.2305,2.2308,2.2308,2.2313,2.2316,2.2316,2.234,2.2775,0.0,0.0,0.0,0.0,0.0,0.0,0.0,0.0,2.4531,2.4964,0.0,2.3423,0.0,0.0,0.0,0.0,0.0,2.2873,0.0,0.0,2.7615,2.8512,2.9429,3.024,3.0239,2.9397,2.859,2.7721,2.6683,2.2751,0.0,0.0,0.0,0.0,0.0,0.0,2.5777,2.8398,3.0957,3.3047,3.4629,3.5547,3.5996,3.5957,3.4336,3.2676,3.0957,2.8496,2.6289,2.4492,2.207,0.0,0.0,0.0,0.0,0.0,0.0,0.0,0.0,0.0,0.0,0.0,0.0,0.0,0.0,0.0,0.0,0.0,0.0,0.0,0.0,1.2478,0.0,0.0,0.0,0.0,0.0,0.0,0.0,0.0,0.0,0.0,2.0898,2.293,2.4805,2.5742,0.0,0.0,0.0,0.0,3.0801,3.0821,3.088,3.0601,2.979,2.965,2.9396,2.8639,0.0,0.0,2.8405,2.8437,2.9045,3.0662,2.9642,2.7917,2.6298,2.581,2.5693,2.5696,2.5659,2.5754,2.5754,2.5666,2.6025,2.8728,0.0,0.0,0.0,0.0,2.6394,2.7079,2.7934,2.8263,2.8458,2.848,2.7452,0.0,0.0,0.0,0.0,0.0,0.0,2.7745,3.0205,3.0505,3.1075,3.1956,3.2229,3.226,3.1971,3.1187,3.038,2.9516,2.7757,2.5624,2.3251,0.0,0.0,0.0,0.0,2.8157,3.0135,3.207,3.3594,3.4687,3.5547,3.6016,3.6016,3.4922,3.3555,3.1894,3.0488,2.8398,2.5488,2.4629,0.0,0.0,0.0,0.0,0.0,0.0,0.0,0.0,0.0,0.0,0.0,0.0,0.0,0.0,0.0,0.0,0.0,0.0,0.0,1.5054,1.5949,1.6534,0.0,0.0,0.0,0.0,0.0,0.0,0.0,0.0,0.0,2.5011,2.5233,2.6113,0.0,0.0,2.9473,3.0273,3.0663,3.115,3.1966,3.2409,0.0,0.0,3.2282,3.2185,3.199,3.1951,3.1541,3.0289,3.1118,3.2102,3.2615,3.23,3.1747,3.1192,2.9166,2.7687,2.7552,2.7552,2.7552,2.7591,2.8037,2.8717,3.3036,3.1204,2.9617,2.9021,2.9184,2.9603,3.032,3.1242,3.1693,3.1745,3.145,3.0655,2.9861,2.9088,2.8307,0.0,0.0,0.0,3.0859,3.2716,3.3403,3.4012,3.4487,3.455,3.4392,3.4055,3.3276,3.2464,3.1648,3.1154,2.9713,2.7385,0.0,0.0,2.678,2.8457,3.0011,3.1384,3.3046,3.4336,3.5195,3.5742,3.6016,3.5976,3.5488,3.457,3.3242,3.2051,3.0293,2.7871,2.6444,2.435,0.0,0.0,0.0,0.0,0.0,0.0,0.0,0.0,0.0,0.0,0.0,0.8131,0.9204,0.0,0.0,0.0,1.4153,1.6266,1.8477,1.8804,0.0,0.0,0.0,0.0,0.0,0.0,0.0,2.6256,2.5947,2.6208,2.8205,2.8078,2.8338,2.9922,2.998,3.0371,3.1699,0.0,3.3164,3.3866,3.3842,3.368,3.3426,3.3387,3.3387,3.3387,3.3387,3.3073,3.2112,3.2743,3.3608,3.416,3.3866,3.3392,3.3383,3.1667,3.0326,3.0311,3.0331,3.0331,3.0311,3.0739,3.1284,3.6509,3.6177,3.2453,3.096,3.1169,3.2008,3.2924,3.384,3.4715,3.4718,3.4065,3.3315,3.2596,3.1847,3.1059,0.0,3.2045,3.2833,3.3653,3.4545,3.615,3.6895,3.6895,3.6877,3.6505,3.5772,3.4963,3.4146,3.3325,3.3303,3.2885,3.2039,2.9762,2.8603,2.8691,3.027,3.1493,3.2302,3.3886,3.5117,3.5976,3.6016,3.6016,3.6016,3.6016,3.5586,3.4707,3.3223,3.1934,3.0879,2.7825,2.5625,2.4459,0.0,0.0,0.0,0.0,0.0,0.0,0.0,0.0,0.0,0.0,0.0,0.0,0.0,0.0,1.5452,1.796,0.0,2.176,2.124,0.0,0.0,0.0,2.0219,1.8575,2.1363,2.4756,2.8208,0.0,0.0,3.0701,3.1133,3.1198,3.1191,3.1172,3.1719,3.3184,3.4805,3.6016,3.5859,3.5097,3.4256,3.3865,3.3748,3.3767,3.3767,3.361,3.3687,3.3621,3.3641,3.4329,3.5605,3.4668,3.3667,3.3639,3.358,3.3604,3.3535,3.3379,3.3281,3.3164,3.3242,3.3359,3.7232,3.7114,3.5607,3.5077,3.5274,3.5608,3.5979,3.6324,3.6604,3.6708,3.6691,3.6555,3.6052,3.5289,3.4539,3.4644,3.5504,3.5705,3.6262,3.7084,3.7522,3.7733,3.7714,3.7723,3.7602,3.7384,3.662,3.5801,3.5016,3.441,3.3701,3.2932,3.2369,3.1783,3.1266,3.226,3.3231,3.4078,3.4492,3.5117,3.5976,3.6016,3.6016,3.6016,3.6016,3.5605,3.4726,3.4316,3.3105,3.1016,3.011,2.8357,2.5515,2.3737,0.0,0.0,0.0,0.0,0.0,0.0,0.0,0.0,0.0,1.2249,1.3121,0.0,1.6879,0.0,2.0206,2.2519,2.3508,2.4019,0.0,0.0,2.4426,2.3648,2.2042,2.4282,2.757,3.168,3.0828,3.063,3.2544,3.3375,3.381,3.3795,3.3631,3.3496,3.3496,3.4883,3.6015,3.6007,3.5808,3.5538,3.5427,3.537,3.537,3.5389,3.5388,3.539,3.5371,3.5391,3.5545,3.5929,3.5701,3.539,3.5331,3.539,3.5351,3.5273,3.4336,3.3379,3.3398,3.3926,3.4394,3.9093,3.9019,3.832,3.8087,3.8174,3.7594,3.7455,3.7667,3.8143,3.8258,3.808,3.7868,3.7553,3.7105,3.6738,3.6825,3.73,3.77,3.8123,3.8584,3.895,3.9104,3.9084,3.8734,3.8594,3.8537,3.7718,3.691,3.6141,3.5712,3.5127,3.4365,3.4399,3.4197,3.3813,3.3916,3.4222,3.4697,3.5077,3.5508,3.5976,3.6016,3.6016,3.6016,3.6016,3.5762,3.5273,3.4902,3.4043,3.2637,3.1519,3.0025,2.8059,2.6295,2.4202,0.0,0.0,0.0,0.0,0.0,0.0,0.0,0.0,0.0,0.0,0.0,2.0638,2.1768,2.3586,2.5033,2.5827,2.6323,2.6761,2.7156,2.7183,2.6694,2.5402,2.7595,3.0244,3.3005,3.2503,3.2406,3.3754,3.4394,3.5009,3.5692,3.5667,3.5346,3.4843,3.5819,3.6847,3.7109,3.7148,3.7148,3.7172,3.7157,3.7155,3.7168,3.7145,3.6936,3.6184,3.6653,3.694,3.6211,3.6318,3.6423,3.6092,3.6015,3.6016,3.5879,3.5254,3.4629,3.457,3.4941,3.5293,4.1097,4.1038,4.0404,4.0185,4.0159,3.8776,3.8242,3.8434,3.9303,3.941,3.8839,3.8416,3.8194,3.823,3.8289,3.8315,3.8354,3.9104,3.945,3.9469,4.0162,4.0489,4.045,3.9777,3.945,3.9427,3.8575,3.7795,3.7122,3.7081,3.6723,3.6144,3.6118,3.6158,3.6197,3.5549,3.5076,3.4884,3.5623,3.6016,3.6016,3.6016,3.6016,3.6016,3.6016,3.6016,3.5996,3.5273,3.4824,3.4648,3.2576,3.1262,3.0938,2.8739,2.6721,0.0,2.4082,0.0,0.0,0.0,0.0,0.0,0.0,0.0,0.0,2.2181,2.4607,2.6931,2.7323,2.7721,2.8418,2.8584,2.8962,2.9696,2.9793,2.9511,2.8927,3.077,3.252,3.3487,3.3621,3.3944,3.4837,3.5052,3.5806,3.7039,3.7297,3.7038,3.6557,3.7138,3.8004,3.8762,3.8722,3.8366,3.842,3.8489,3.8482,3.8541,3.8458,3.8053,3.6651,3.7552,3.8157,3.712,3.7201,3.7187,3.6456,3.6384,3.6347,3.6269,3.6152,3.6055,3.5918,3.5879,3.6016,4.1097,4.1093,4.0946,4.0951,4.0979,4.0067,3.9472,3.9177,3.9494,3.9709,3.983,3.9851,3.9883,3.9917,3.9996,4.0027,4.0027,4.02,4.0292,4.0258,4.0427,4.0489,4.0489,4.0335,4.0258,4.0219,3.9465,3.8979,3.8796,3.8183,3.782,3.7751,3.7849,3.796,3.7993,0.0,0.0,0.0,3.5937,3.6016,3.6016,3.6016,3.6016,3.6016,3.6016,0.0,3.5996,3.584,3.541,3.4746,3.4236,0.0,0.0,0.0,0.0,0.0,0.0,0.0,0.0,0.0,0.0,0.0,2.7524,2.5362,2.3597,2.5621,2.7555,2.8717,3.0074,3.0907,3.1062,3.1719,3.2203,3.2358,3.2377,3.23,3.2193,3.2629,3.3498,3.513,3.5321,3.5682,3.6541,3.7274,3.7786,3.8149,3.8252,3.821,3.8061,3.8232,3.8935,4.0188,3.9477,3.8594,3.8507,3.8571,3.8688,3.8522,3.8522,3.841,3.8166,3.8244,3.9121,3.9633,3.9115,3.8248,3.8007,3.8071,3.7782,3.7203,3.7048,3.6834,3.6152,3.6016,3.6016,4.2286,0.0,4.1864,4.1779,0.0,4.1034,4.0669,4.0528,3.9858,3.9758,4.0098,4.0215,4.0344,4.0415,4.0476,4.0489,4.0489,4.0489,4.0489,4.0489,4.0489,4.0489,4.0489,4.0489,4.0489,4.0489,4.01,3.9696,3.9297,3.8929,3.8569,3.8214,3.8297,3.8393,3.8449,3.8521,3.8121,3.7299,3.7285,3.7285,3.7285,3.7285,3.7266,3.7285,0.0,0.0,0.0,0.0,0.0,0.0,0.0,0.0,0.0,0.0,0.0,3.0216,2.971,2.8325,2.5935,2.7206,2.9252,3.1748,3.1158,2.994,2.8165,2.9195,3.0303,3.1136,3.2018,3.2493,3.2513,3.29,3.3326,3.3692,3.4118,3.4389,3.4447,3.5145,3.5959,3.6745,3.7017,3.7228,3.7689,3.8074,3.8548,3.8965,3.9042,3.9213,3.9604,3.9355,3.9618,4.0825,4.0409,3.9767,3.9734,3.9734,3.9708,3.9747,3.9754,3.9734,3.9721,3.9721,4.0058,4.0818,4.029,3.9546,3.8682,3.8537,3.8408,3.8026,3.7914,3.7821,3.7318,3.6618,3.6014,4.3479,4.3424,4.2782,4.2588,4.2696,4.1896,4.1683,4.1771,0.0,0.0,0.0,4.0234,4.0344,4.0415,4.0476,4.0489,4.0489,4.0489,4.0489,4.0489,4.0489,4.0489,4.0489,4.0489,4.0489,4.0489,4.0489,4.0138,3.9533,3.9576,3.9297,3.8706,3.8724,3.8785,3.8877,3.8998,3.9047,3.9038,3.8769,3.8613,3.8613,3.8613,3.8613,3.8613,3.8613,3.8613,3.8594,3.791,3.7539,3.75,3.6152,3.5389,3.5357,3.4569,3.3785,3.308,3.2881,3.185,2.9756,3.0886,3.2355,3.3881,3.4127,3.3699,3.2489,3.2504,3.2954,3.3816,3.4029,3.4137,3.409,3.4119,3.4362,3.5048,3.5734,3.616,3.6226,3.7312,3.8172,3.8547,3.8526,3.8501,3.8501,3.8714,3.8976,3.9636,3.9811,4.0043,4.066,4.0305,4.013,4.079,4.0799,4.0902,4.096,4.0882,4.098,4.0824,4.0882,4.098,4.098,4.0968,4.0976,4.0913,4.0972,4.0396,3.9285,3.9068,3.8887,3.8736,3.8768,3.8759,3.8509,3.7463,3.6513,4.3479,4.3479,4.3437,4.3502,4.3564,4.2891,4.2408,4.2077,4.1246,4.059,4.0117,4.0234,4.0344,4.0415,4.0476,4.0489,4.0489,4.0489,4.0489,0.0,4.0489,4.0489,4.0489,4.0489,4.0489,4.0489,4.0489,4.0431,4.0331,4.0405,4.0403,4.034,4.0466,4.0574,4.0719,4.0742,4.0745,4.0716,3.9335,3.8613,3.8613,3.8613,3.8613,3.8613,3.8633,3.8613,3.8594,3.8496,3.8418,3.8418,3.8184,3.8047,3.8027,3.7196,3.6677,3.654,3.5868,3.5252,3.4846,3.5047,3.5616,3.6567,3.7338,3.6761,3.4489,3.4855,3.5624,3.6459,3.7089,3.7655,3.7608,3.7453,3.7434,3.7635,3.7818,3.7904,3.7793,3.8083,3.8774,3.9959,3.9688,3.934,3.9378,3.9921,4.0308,4.0541,4.0452,4.0587,4.0662,4.0703,4.0713,4.0867,4.0897,4.0917,4.0898,4.0898,4.0898,4.0898,4.0917,4.0868,4.0858,4.0869,4.0878,4.0839,4.0917,4.0852,4.0536,4.0655,4.0241,3.9688,3.9589,3.9443,3.8839,3.8346,3.7905,4.3479,4.3513,4.36,4.3701,4.3846,4.3737,4.3371,4.2844,4.2631,4.1879,4.0901,4.0978,4.0802,4.0468,4.0511,4.0489,4.0489,4.0489,4.0489,4.0489,4.0489,4.0739,4.1181,4.12,4.145,4.1854,4.1412,4.12,4.1178,4.081,4.0621,4.0713,4.0828,4.0968,4.1095,4.11,4.1108,4.1087,4.037,4.0,4.0019,4.0019,4.0,4.0,4.0019,4.0,4.0019,3.9551,3.9297,3.9316,3.8867,3.8613,3.8594,3.822,3.7999,3.7987,3.7633,3.753,3.7799,3.7812,3.7834,3.7915,3.8263,3.8254,3.7508,3.7299,3.7449,3.7819,3.8233,3.8412,3.835,3.8352,3.8355,3.8297,3.8673,3.8736,3.8411,3.9083,3.985,4.0447,4.0301,4.0095,4.0108,4.0443,4.0694,4.0694,4.0642,4.0636,4.0642,4.0636,4.0694,4.0778,4.0764,4.0788,4.0788,4.0788,4.0788,4.0788,4.0808,4.0776,4.0745,4.0792,4.0804,4.0773,4.0846,4.0907,4.0927,4.0926,4.0729,4.054,4.0388,4.0208,3.9922,3.952,3.887,4.3532,4.3513,4.3634,4.38,4.4055,4.4383,4.4237,4.3806,4.3961,4.3321,4.2202,4.1972,4.1471,4.079,4.0781,4.0793,4.0793,4.0793,4.0893,4.1066,4.1085,4.145,4.2047,4.2104,4.245,4.297,4.2412,4.2008,4.1739,4.1181,4.0828,4.0771,4.084,4.0964,4.107,4.1086,4.1117,4.1107,4.1171,4.1191,4.1191,4.1191,4.1191,4.1191,4.1191,4.1191,4.1152,4.0547,4.0195,4.0176,3.9551,3.9199,3.918,3.918,3.9178,3.9166,3.9161,3.9337,3.9744,3.978,3.9575,3.9136,3.9087,3.9376,3.9933,3.9481,3.9087,3.9082,3.9123,3.9111,3.9084,3.9035,3.8963,3.8927,3.9392,3.953,3.9038,3.994,4.0654,4.0607,4.0588,4.0568,4.0588,4.0593,4.0593,4.0593,4.0559,4.0559,4.0579,4.0534,4.0573,4.0636,4.066,4.0668,4.0668,4.0687,4.0687,4.0668,4.0687,4.0687,4.0687,4.0733,4.0726,4.0688,4.0726,4.0784,4.0834,4.0856,4.0858,4.0781,4.082,4.0894,4.0805,4.0388,3.9723,4.3532,4.3582,4.3719,4.4011,4.4354,4.4605,4.4714,4.4834,4.5058,4.4707,4.3867,4.3138,4.2368,4.1654,4.1646,4.1697,4.1674,4.1678,4.2085,4.2739,4.2854,4.2912,4.297,4.297,4.3028,4.3124,4.3028,4.2624,4.197,4.1778,4.1428,4.0862,4.0859,4.0941,4.1007,4.1061,4.1117,4.1107,4.1171,4.1191,4.1191,4.1191,4.1191,4.1191,4.1191,4.1191,4.1191,4.1133,4.1074,4.1074,4.0976,4.0918,4.0937,4.0898,4.0858,4.0834,4.0834,4.0906,4.0935,4.0952,4.0912,4.087,4.0851,4.0912,4.101,4.0929,4.0863,4.0847,4.0838,4.0686,4.076,4.0675,4.0548,4.0431,4.0528,4.0618,4.0443,4.0584,4.064,4.0519,4.0564,4.0593,4.0583,4.0646,4.0646,4.0654,4.0558,4.0635,4.0789,4.0581,4.0566,4.0577,4.0583,4.0607,4.0607,4.0602,4.0593,4.0607,4.0607,4.0612,4.0617,4.0612,4.0602,4.0626,4.0607,4.0654,4.0707,4.0764,4.08,4.0792,4.0837,4.0898,4.0907,4.0772,4.0374,4.3566,4.3615,4.3767,4.4104,4.444,4.4685,4.4846,4.5033,4.5213,4.5148,4.4902,4.4575,4.3728,4.2569,4.2566,4.2563,4.2572,4.2563,4.2742,4.309,4.3088,4.3355,4.3778,4.3816,4.4047,4.447,4.4066,4.3624,4.3179,4.236,4.1531,4.0873,4.0859,4.0913,4.1007,4.1081,4.1117,4.1107,4.1171,4.1191,4.1191,4.1191,4.1191,4.1191,4.1191,4.1191,4.1191,4.1191,4.1191,4.1191,4.1191,4.1191,4.1191,4.1172,4.1172,4.1151,4.1171,4.1131,4.111,4.1578,4.1871,4.1871,4.2355,4.2642,4.2633,4.2636,4.2636,4.2533,4.1706,4.1105,4.1081,4.1026,4.0991,4.0915,4.0829,4.0792,4.072,4.0687,4.0593,4.0519,4.0519,4.0554,4.0616,4.1001,4.1254,4.1181,4.0893,4.0889,4.1716,4.1149,4.0732,4.1017,4.0822,4.0531,4.0543,4.0492,4.0492,4.0476,4.0476,4.0495,4.0495,4.0504,4.0534,4.0554,4.0569,4.0579,4.0621,4.0668,4.0675,4.0688,4.072,4.0788,4.0765,4.0781,4.0587,4.4026,4.4346,4.4596,4.489,4.5228,4.5443,4.5621,4.5684,4.5693,4.5724,4.5726,4.561,4.4897,4.3855,4.3547,4.3426,4.3439,4.341,4.3568,4.3745,4.378,4.4085,4.4624,4.4643,4.4989,4.5413,4.4951,4.4429,4.3907,4.2614,4.1517,4.0912,4.0859,4.0932,4.1007,4.1061,4.1117,4.1107,4.1172,4.1191,4.1191,4.1191,4.1191,4.1191,4.1191,4.1191,4.1191,4.1191,4.1191,4.1191,4.1191,4.1191,4.1191,4.1191,4.1289,4.1504,4.1523,4.1621,4.1797,4.2402,4.2754,4.2793,4.3375,4.3698,4.371,4.3696,4.3698,4.3593,4.2533,4.1855,4.1774,4.1734,4.1692,4.1624,4.1548,4.1482,4.1441,4.1357,4.133,4.1232,4.137,4.12,4.1296,4.1777,4.2143,4.2104,4.1681,4.1527,4.2739,4.2326,4.2007,4.2007,4.1452,4.0935,4.0567,4.0413,4.0379,4.0362,4.0362,4.0379,4.0398,4.0427,4.0492,4.0511,4.0492,4.0504,4.0564,4.0579,4.0607,4.0621,4.0654,4.0681,4.0668,4.0681,4.0668,4.5219,4.607,4.6501,4.669,4.6968,4.7181,4.7371,4.7253,4.6832,4.6607,4.6474,4.5859,4.5547,4.5336,4.4566,4.4256,4.4254,4.4256,4.4643,4.5278,4.5374,4.547,4.5528,4.5547,4.5528,4.5586,4.549,4.4696,4.3297,4.2395,4.1517,4.0846,4.0869,4.0932,4.1007,4.1061,4.1117,4.1126,4.1171,4.1191,4.1191,4.1191,4.1191,4.1191,4.1191,4.1191,4.1191,4.1191,4.1191,4.1191,4.1191,4.1191,4.1191,4.123,4.1582,4.2246,4.2344,4.2695,4.332,4.3574,4.3633,4.3652,4.3818,4.3782,4.3957,4.3967,4.3947,4.3782,4.3739,4.3553,4.3487,4.326,4.3233,4.319,4.3206,4.3109,4.3028,4.2811,4.3023,4.2884,4.2736,4.2681,4.2835,4.3008,4.3028,4.3047,4.297,4.3069,4.3284,4.4191,4.4001,4.3101,4.2489,4.2049,4.0729,4.0672,4.0539,4.0387,4.0501,4.0327,4.0344,4.0362,4.0413,4.0463,4.0476,4.0508,4.0523,4.0554,4.0583,4.0598,4.0593,4.0607,4.0588,4.0602,4.0588,4.5946,4.6457,4.6694,4.6936,4.7183,4.7397,4.7566,4.7524,4.6904,4.6643,4.6491,4.586,4.555,4.5531,4.5259,4.5122,4.5122,4.5124,4.5297,4.5586,4.5586,4.5586,4.5586,4.5586,4.5586,4.5586,4.5566,4.4771,4.3331,4.2853,4.2072,4.1001,4.0858,4.0945,4.1013,4.1067,4.1101,4.1107,4.1132,4.1152,4.1191,4.1191,4.1191,4.1191,4.1191,4.1191,4.1191,4.1191,4.1191,4.1191,4.1191,4.1191,4.125,4.1694,4.2351,4.3112,4.3236,4.3221,4.3281,4.4042,4.4448,4.4345,4.497,4.5294,4.5343,4.5359,4.5352,4.5289,4.5292,4.5267,4.497,4.4234,4.3499,4.3432,4.3393,4.337,4.322,4.3168,4.3131,4.3121,4.3085,4.3085,4.3297,4.3547,4.3855,4.3932,4.4301,4.4496,4.4497,4.4499,4.4074,4.3634,4.2999,4.236,4.1863,4.1715,4.1601,4.1066,4.0819,4.0516,4.0423,4.0329,4.0346,4.0344,4.0411,4.0476,4.0511,4.0523,4.0554,4.0554,4.0549,4.0549,4.0534,4.053,4.0549,4.7069,4.7322,4.7529,4.7744,4.7994,4.8185,4.8315,4.8237,4.7395,4.6983,4.6833,4.5937,4.5495,4.5513,4.5568,4.5586,4.5586,4.5586,4.5586,4.5586,4.5586,4.5586,4.5586,4.5586,4.5586,4.5586,4.5586,4.4754,4.3354,4.3177,4.2356,4.0893,4.0848,4.0933,4.0994,4.1072,4.1104,4.1103,4.1112,4.1152,4.1191,4.1191,4.1191,4.1191,4.1191,4.1191,4.1191,4.1191,4.1191,4.1191,4.1209,4.1324,4.1621,4.2371,4.3219,4.3977,4.4123,4.4112,4.4116,4.4867,4.5316,4.5187,4.5769,4.6261,4.6269,4.6255,4.624,4.6222,4.6176,4.6138,4.5872,4.4987,4.4247,4.418,4.4137,4.4084,4.4008,4.4006,4.3981,4.4025,4.4028,4.397,4.397,4.4412,4.4662,4.4684,4.5207,4.5476,4.5285,4.4704,4.404,4.4195,4.3757,4.3369,4.3069,4.3069,4.2437,4.1846,4.1154,4.0817,4.0466,4.0345,4.0234,4.0234,4.0308,4.0413,4.0479,4.0492,4.0508,4.0489,4.0504,4.0519,4.0504,4.0504,4.0504,4.8623,4.8709,4.9141,4.9234,4.9378,4.957,4.9857,4.9575,4.8319,4.7643,4.7436,4.6148,4.5476,4.5532,4.5549,4.5586,4.5586,4.5586,4.5586,4.5586,4.5586,4.5586,4.5586,4.5586,4.5586,4.5586,4.5586,4.4735,4.3188,4.3123,4.2386,4.1071,4.0858,4.0926,4.0987,4.1067,4.1113,4.1114,4.111,4.1133,4.1191,4.1191,4.1191,4.1191,4.1191,4.1191,4.1191,4.1191,4.1191,4.1191,4.1258,4.1612,4.2494,4.3283,4.4086,4.4836,4.5012,4.5402,4.6023,4.6064,4.6099,4.6092,4.6203,4.622,4.6215,4.6203,4.619,4.6189,4.6138,4.6075,4.5997,4.5774,4.5635,4.5756,4.551,4.5467,4.5503,4.561,4.5618,4.543,4.5316,4.5528,4.5528,4.5413,4.5357,4.5359,4.5419,4.5438,4.5319,4.4979,4.4938,4.48,4.4455,4.4063,4.4213,4.429,4.3369,4.2521,4.1751,4.116,4.0684,4.0438,4.0112,4.0099,4.0234,4.0326,4.0482,4.0495,4.0492,4.0508,4.0489,4.0489,4.0489,4.0489,4.0489,4.8714,4.8909,4.916,4.9371,4.9476,4.9712,4.9871,4.9762,4.827,4.7643,4.7407,4.6065,4.54,4.5457,4.5495,4.5549,4.5586,4.5586,4.5586,4.5586,4.5586,4.5586,4.5586,4.5586,4.5586,4.5586,4.5586,4.4735,4.3384,4.3153,4.2367,4.1067,4.0859,4.0932,4.0999,4.1064,4.11,4.1111,4.1105,4.1131,4.1191,4.1191,4.1191,4.1191,4.1191,4.1191,4.1191,4.1191,4.1191,4.1219,4.1732,4.2678,4.3919,4.445,4.4996,4.5704,4.5811,4.5889,4.6158,4.6203,4.6181,4.6174,4.6189,4.6209,4.6183,4.6162,4.6119,4.6113,4.6085,4.5983,4.5893,4.5841,4.5814,4.58,4.5746,4.5715,4.57,4.5635,4.564,4.5603,4.5586,4.5586,4.555,4.5513,4.5495,4.5438,4.54,4.5338,4.5213,4.5084,4.4943,4.4796,4.464,4.4477,4.4345,4.4218,4.3722,4.3052,4.2408,4.156,4.101,4.0287,3.9993,3.9996,4.0138,4.0272,4.0415,4.0499,4.0495,4.0508,4.0489,4.0489,4.0489,4.0489,4.0489,4.8678,4.882,4.9113,4.9276,4.9384,4.9566,4.9731,4.9625,4.8162,4.7523,4.7319,4.6001,4.532,4.54,4.5476,4.5531,4.5586,4.5586,4.5586,4.5586,4.5586,4.5586,4.5586,4.5586,4.5586,4.5509,4.5259,4.4429,4.3137,4.2794,4.2013,4.0913,4.0826,4.0936,4.1015,4.1052,4.1115,4.1108,4.1103,4.113,4.1191,4.1191,4.1191,4.1191,4.1191,4.1191,4.1191,4.117,4.1318,4.1791,4.2717,4.3899,4.4894,4.5245,4.5688,4.6053,4.6162,4.6147,4.6209,4.6146,4.6095,4.6037,4.6084,4.613,4.613,4.6075,4.6066,4.6016,4.596,4.5899,4.5819,4.5776,4.5761,4.5761,4.5738,4.569,4.5651,4.5618,4.5603,4.5586,4.5566,4.5531,4.5513,4.5477,4.5438,4.538,4.5298,4.517,4.5061,4.4967,4.4815,4.4632,4.4421,4.4258,4.4151,4.4017,4.3929,4.3547,4.3088,4.2153,4.1381,4.027,3.9631,3.9889,4.0077,4.0196,4.0344,4.0449,4.0499,4.0495,4.0508,4.0489,4.0489,4.0489,4.0489,4.8642,4.8642,4.898,4.9183,4.9308,4.9402,4.951,4.94,4.8083,4.741,4.7139,4.5919,4.532,4.54,4.5457,4.5513,4.5586,4.5586,4.5586,4.5586,4.5586,4.5586,4.5586,4.5586,4.5586,4.549,4.4778,4.3932,4.3085,4.2396,4.1482,4.0797,4.0812,4.0917,4.098,4.1065,4.1091,4.1104,4.1101,4.113,4.1191,4.1191,4.1191,4.1191,4.1191,4.1191,4.1191,4.1279,4.1651,4.2545,4.3923,4.4768,4.5117,4.5774,4.6151,4.6189,4.6125,4.6118,4.6135,4.6056,4.5968,4.5917,4.5975,4.5997,4.6016,4.5983,4.596,4.5905,4.5841,4.5786,4.5781,4.5738,4.5726,4.5709,4.5673,4.5657,4.5603,4.5586,4.5586,4.5586,4.5531,4.5495,4.5476,4.5438,4.5359,4.5275,4.5148,4.4991,4.4846,4.4764,4.467,4.4533,4.4363,4.424,4.4202,4.3897,4.3786,4.3638,4.3259,4.2508,4.1479,4.029,3.9533,3.9777,4.0015,4.0118,4.0272,4.0379,4.0466,4.0499,4.0495,4.0508,4.0489,4.0489,4.0489,4.8751,4.8787,4.9064,4.9197,4.9262,4.9409,4.9168,4.8683,4.7682,4.7055,4.6563,4.5601,4.5258,4.54,4.5419,4.5495,4.5568,4.5586,4.5586,4.5586,4.5586,4.5586,4.5586,4.5586,4.5586,4.547,4.4643,4.3893,4.3104,4.2242,4.1443,4.066,4.0769,4.0858,4.0935,4.0986,4.1037,4.1105,4.1099,4.113,4.1191,4.1191,4.1191,4.1191,4.1191,4.1191,4.1269,4.1767,4.2448,4.3305,4.4177,4.5085,4.5722,4.6018,4.6122,4.6113,4.6065,4.6036,4.6027,4.596,4.5906,4.5841,4.5873,4.5917,4.5925,4.5887,4.5847,4.5819,4.5761,4.5715,4.5722,4.5709,4.5673,4.564,4.564,4.5622,4.5622,4.5586,4.5586,4.5531,4.5513,4.5458,4.5399,4.5338,4.5273,4.516,4.5005,4.4972,4.4949,4.4643,4.4599,4.4673,4.4591,4.4443,4.4232,4.3904,4.3671,4.36,4.3229,4.2687,4.1496,4.0198,3.9757,3.9689,3.987,4.0038,4.0196,4.0307,4.0396,4.0466,4.0495,4.0492,4.0489,4.0489,4.0489,4.8839,4.8857,4.9079,4.9211,4.9206,4.9034,4.8735,4.8211,4.7219,4.6639,4.624,4.5551,4.5258,4.5381,4.5419,4.5495,4.5586,4.5586,4.5586,4.5586,4.5586,4.5586,4.5586,4.5586,4.5586,4.5432,4.4355,4.3585,4.2951,4.1953,4.1116,4.0717,4.073,4.0839,4.0897,4.0972,4.1025,4.1096,4.1114,4.113,4.1191,4.1191,4.1191,4.1191,4.1191,4.1191,4.1269,4.1943,4.2799,4.3597,4.4285,4.505,4.6006,4.6104,4.6037,4.6014,4.596,4.5922,4.5941,4.5874,4.5805,4.5771,4.58,4.5814,4.5819,4.5791,4.5761,4.5754,4.5738,4.5687,4.5673,4.5657,4.564,4.5622,4.5586,4.5586,4.5586,4.5531,4.5513,4.5495,4.5438,4.54,4.5316,4.5233,4.527,4.5261,4.501,4.5178,4.5358,4.4908,4.4803,4.5119,4.5611,4.5803,4.5107,4.4538,4.4042,4.3862,4.2687,4.2261,4.147,4.0195,3.9746,3.957,3.9758,3.9935,4.008,4.0234,4.0344,4.0396,4.0444,4.0492,4.0492,4.0492,4.0492,4.8943,4.8959,4.9164,4.9239,4.9077,4.8502,4.82,4.7852,4.6732,4.6177,4.6058,4.5559,4.5359,4.54,4.5476,4.5531,4.5586,4.5586,4.5586,4.5586,4.5586,4.5586,4.5586,4.5586,4.5586,4.5336,4.3912,4.3258,4.272,4.147,4.0708,4.0635,4.073,4.0839,4.0897,4.0972,4.1045,4.1096,4.1116,4.113,4.1191,4.1191,4.1191,4.1191,4.1191,4.1172,4.1289,4.1806,4.26,4.3485,4.4245,4.5131,4.5918,4.5901,4.596,4.5899,4.586,4.5808,4.5854,4.5776,4.5703,4.57,4.568,4.568,4.5715,4.5715,4.5703,4.569,4.5693,4.5657,4.5603,4.5603,4.5603,4.5586,4.5586,4.5586,4.5568,4.5476,4.5419,4.5457,4.536,4.5317,4.5325,4.5247,4.5281,4.5972,4.5612,4.5537,4.5485,4.4987,4.5363,4.6163,4.6763,4.7481,4.6416,4.5312,4.4707,4.4121,4.2341,4.1456,4.1209,4.03,3.9713,3.9464,3.9665,3.9867,4.0017,4.0138,4.0176,4.0344,4.0413,4.0444,4.0476,4.0463,4.0463,4.9211,4.9225,4.9421,4.9119,4.8585,4.838,4.7682,4.6618,4.6272,4.5846,4.5513,4.5333,4.536,4.54,4.5476,4.555,4.5586,4.5586,4.5586,4.5586,4.5586,4.5586,4.5586,4.5586,4.5586,4.5182,4.3893,4.3143,4.2681,4.1543,4.0592,4.0621,4.073,4.0819,4.0897,4.0953,4.1045,4.1076,4.1114,4.113,4.1191,4.1191,4.1191,4.1191,4.1191,4.1172,4.1113,4.126,4.1768,4.287,4.4377,4.5173,4.5143,4.5434,4.5645,4.5703,4.5699,4.5708,4.5746,4.5715,4.5687,4.5637,4.5687,4.57,4.5671,4.569,4.5673,4.564,4.5622,4.5622,4.5603,4.5586,4.5586,4.5605,4.5569,4.5514,4.5532,4.5495,4.5419,4.536,4.5356,4.5442,4.5846,4.5843,4.6021,4.6525,4.639,4.6071,4.5736,4.5345,4.5953,4.6984,4.7408,4.7865,4.7131,4.5883,4.4837,4.3993,4.2286,4.113,4.0832,4.0142,3.9454,3.9388,3.9588,3.9721,3.9667,3.9774,3.9776,4.0059,4.0208,4.0032,3.9915,4.0109,4.0034,4.8281,4.8292,4.8475,4.8287,4.788,4.7519,4.689,4.6171,4.5813,4.5567,4.5333,4.5339,4.5438,4.5438,4.5513,4.5568,4.5586,4.5586,4.5586,4.5586,4.5586,4.5586,4.5586,4.5586,4.5566,4.5316,4.3912,4.3181,4.2643,4.1543,4.0626,4.0654,4.0742,4.0819,4.0906,4.096,4.1045,4.11,4.1114,4.113,4.1191,4.1191,4.1191,4.1191,4.1191,4.1172,4.1113,4.1103,4.133,4.1928,4.3027,4.3994,4.415,4.4382,4.4703,4.507,4.5117,4.534,4.5497,4.5635,4.5618,4.5603,4.5637,4.5657,4.5657,4.5657,4.564,4.5603,4.5586,4.5586,4.5586,4.5586,4.5586,4.555,4.5532,4.5476,4.5458,4.5399,4.5378,4.5371,4.5532,4.5737,4.5969,4.6304,4.6732,4.7211,4.6787,4.6538,4.7361,4.7034,4.7037,4.7629,4.7977,4.8049,4.7535,4.6416,4.4911,4.3736,4.2213,4.1423,4.1001,4.0105,3.9128,3.9133,3.9139,3.9081,3.9069,3.92,3.909,3.8917,3.8876,3.9065,3.9084,3.8931,3.88,4.7154,4.72,4.7371,4.7365,4.7138,4.6567,4.6212,4.5974,4.5538,4.5375,4.5339,4.5438,4.5476,4.5513,4.5568,4.5586,4.5586,4.5586,4.5586,4.5586,4.5586,4.5586,4.5586,4.5586,4.5566,4.5393,4.3912,4.3162,4.2659,4.154,4.0675,4.0713,4.0773,4.084,4.0913,4.0967,4.1031,4.1096,4.1114,4.113,4.1191,4.1191,4.1191,4.1191,4.1191,4.1172,4.1113,4.1101,4.11,4.0984,4.0993,4.1714,4.2524,4.2918,4.3308,4.4079,4.4206,4.4675,4.5293,4.5334,4.5141,4.5451,4.5393,4.547,4.5545,4.5622,4.5622,4.5603,4.5586,4.5586,4.5586,4.5586,4.555,4.5513,4.5495,4.5458,4.5399,4.535,4.5475,4.5627,4.5832,4.6019,4.6504,4.6938,4.7404,4.77,4.7271,4.7173,4.7977,4.8365,4.8088,4.7958,4.8196,4.7609,4.7021,4.6581,4.5131,4.3424,4.1992,4.1534,4.0983,3.9915,3.8997,3.8606,3.8515,3.8461,3.8316,3.8222,3.8022,3.7661,3.7794,3.8194,3.8041,3.7698,3.768,4.7422,4.7448,4.7591,4.7243,4.6614,4.645,4.6077,4.5566,4.5435,4.5399,4.5381,4.5476,4.5513,4.5513,4.5568,4.5586,4.5586,4.5586,4.5586,4.5586,4.5586,4.5586,4.5586,4.5586,4.5566,4.5143,4.3951,4.3121,4.271,4.1493,4.0737,4.0732,4.0828,4.0906,4.0976,4.1046,4.1075,4.1096,4.1114,4.1129,4.1191,4.1191,4.1191,4.1191,4.1191,4.1172,4.1113,4.1103,4.1061,4.1003,4.0993,4.1121,4.135,4.1287,4.1972,4.3003,4.3343,4.3871,4.4855,4.4278,4.4451,4.5009,4.4913,4.4951,4.5316,4.5547,4.549,4.5586,4.5586,4.5586,4.5586,4.5568,4.5532,4.5495,4.5496,4.5397,4.5472,4.5738,4.6133,4.6506,4.6433,4.6374,4.6985,4.7529,4.7886,4.8166,4.802,4.7821,4.82,4.8382,4.8233,4.8214,4.8288,4.7352,4.6361,4.6012,4.5094,4.3167,4.1864,4.1423,4.0708,3.9663,3.8873,3.8062,3.7828,3.7877,3.7661,3.73,3.7122,3.69,3.7128,3.7375,3.7072,3.6787,3.6973,4.6431,4.6412,4.6481,4.6275,4.5952,4.5913,4.5744,4.5438,4.5438,4.5458,4.5476,4.5513,4.555,4.5568,4.5586,4.5586,4.5586,4.5586,4.5586,4.5586,4.5586,4.5586,4.5603,4.5603,4.5295,4.4773,4.3715,4.3096,4.2934,4.1451,4.0771,4.0769,4.0859,4.0932,4.1011,4.1065,4.1095,4.11,4.1108,4.1126,4.1191,4.1191,4.1191,4.1191,4.1191,4.1172,4.1133,4.1103,4.1061,4.1011,4.0966,4.0876,4.0792,4.0823,4.1171,4.2232,4.2479,4.2777,4.3739,4.3239,4.3451,4.3657,4.3679,4.4105,4.4662,4.4913,4.5124,4.547,4.5586,4.5586,4.5531,4.5513,4.5476,4.5476,4.5604,4.5579,4.5589,4.6133,4.6841,4.7495,4.7513,4.747,4.7598,4.8054,4.8407,4.8564,4.8605,4.8514,4.842,4.8382,4.8306,4.8176,4.8047,4.713,4.6104,4.5535,4.4655,4.2803,4.168,4.124,4.0377,3.9283,3.8044,3.6971,3.6976,3.7131,3.6602,3.6114,3.6128,3.6097,3.602,3.5983,3.5964,3.5962,3.6107,4.492,4.4901,4.4921,4.4921,4.4921,4.4939,4.492,4.4939,4.4938,4.4917,4.5033,4.5203,4.5278,4.5355,4.549,4.5586,4.5586,4.5586,4.5586,4.5622,4.5622,4.5603,4.5603,4.5524,4.5252,4.446,4.364,4.3065,4.2555,4.1376,4.0873,4.0826,4.0887,4.0945,4.1039,4.1084,4.11,4.1105,4.1101,4.1142,4.1172,4.1191,4.1191,4.1191,4.1191,4.1172,4.1113,4.1103,4.1076,4.1003,4.0936,4.0866,4.0792,4.0681,4.0945,4.1485,4.1555,4.1662,4.1896,4.2223,4.2332,4.2579,4.2698,4.3239,4.3912,4.4316,4.4605,4.5182,4.5547,4.5549,4.5513,4.5476,4.5514,4.5642,4.5859,4.6054,4.6125,4.6596,4.7515,4.8059,4.8359,4.8375,4.8282,4.8224,4.8493,4.8476,4.8495,4.8439,4.8382,4.8344,4.8231,4.8027,4.7661,4.6854,4.5975,4.5187,4.3959,4.2127,4.1354,4.0965,3.9937,3.8879,3.75,3.6094,3.6131,3.614,3.5533,3.5136,3.5224,3.5136,3.4776,3.4776,3.5058,3.5074,3.5061,4.3196,4.3215,4.327,4.3269,4.3344,4.3455,4.3415,4.3453,4.3528,4.3393,4.3643,4.4124,4.4468,4.4603,4.5199,4.5488,4.5507,4.5488,4.5449,4.5449,4.5599,4.5616,4.5635,4.5684,4.4951,4.4133,4.3482,4.2853,4.2112,4.1151,4.0804,4.0869,4.0943,4.1018,4.1084,4.1081,4.1101,4.1119,4.1114,4.1142,4.1172,4.1191,4.1191,4.1191,4.1191,4.1172,4.1113,4.1103,4.1081,4.1003,4.0934,4.0878,4.0792,4.0662,4.0612,4.0694,4.0703,4.0681,4.0835,4.1046,4.1412,4.1793,4.2008,4.245,4.3085,4.3855,4.4239,4.4393,4.5012,4.5455,4.5438,4.538,4.5661,4.5764,4.5807,4.6301,4.667,4.7174,4.81,4.8293,4.8463,4.8646,4.867,4.8586,4.8532,4.8457,4.8401,4.8344,4.8306,4.8267,4.8229,4.7986,4.7273,4.6431,4.5553,4.4803,4.3321,4.1492,4.0991,4.0547,3.946,3.8242,3.6515,3.5459,3.5431,3.5124,3.4544,3.4298,3.439,3.4342,3.4132,3.4244,3.4469,3.4363,3.4274,4.219,4.3082,4.3099,4.3118,4.3115,4.315,4.315,4.315,4.3169,4.315,4.3208,4.3477,4.367,4.3824,4.4132,4.419,4.4325,4.471,4.4903,4.5076,4.534,4.5414,4.5082,4.4939,4.4433,4.3369,4.2731,4.2121,4.1466,4.1089,4.084,4.0887,4.0964,4.1046,4.11,4.1115,4.1117,4.1114,4.1144,4.1169,4.1191,4.1191,4.1191,4.1191,4.1191,4.1152,4.1113,4.1103,4.1081,4.1003,4.0936,4.0862,4.0792,4.0668,4.0593,4.0607,4.0534,4.0523,4.0527,4.0489,4.0816,4.1027,4.1219,4.147,4.2297,4.3124,4.3855,4.4297,4.4608,4.4976,4.5304,4.5341,4.569,4.5902,4.5992,4.6575,4.724,4.7947,4.8497,4.8547,4.855,4.8624,4.8697,4.8606,4.8457,4.8401,4.8344,4.8306,4.821,4.8151,4.8093,4.7977,4.7028,4.6008,4.5095,4.4218,4.2703,4.1168,4.0467,3.9877,3.8896,3.7551,3.5973,3.4825,3.4494,3.4076,3.3568,3.3499,3.3618,3.3599,3.3557,3.3631,3.3743,3.4136,3.4,4.148,4.2607,4.2599,4.257,4.2584,4.2565,4.2531,4.2551,4.2507,4.2546,4.2647,4.2782,4.2999,4.3196,4.3293,4.3389,4.3308,4.3848,4.4056,4.4384,4.4665,4.466,4.436,4.4103,4.3505,4.2102,4.2302,4.1781,4.1228,4.0924,4.0941,4.091,4.1,4.105,4.1086,4.1105,4.1101,4.1142,4.117,4.1191,4.1191,4.1191,4.1191,4.1191,4.1191,4.1171,4.1113,4.1103,4.1081,4.1003,4.0946,4.0884,4.0792,4.0688,4.0607,4.0579,4.0534,4.0504,4.0489,4.0489,4.0489,4.0489,4.0527,4.0893,4.1393,4.2277,4.2896,4.3415,4.417,4.4537,4.4921,4.5067,4.5563,4.6063,4.6561,4.7078,4.7569,4.8087,4.8435,4.8421,4.8438,4.8457,4.8494,4.8457,4.8401,4.8306,4.8249,4.8249,4.8114,4.7977,4.787,4.7674,4.6553,4.5573,4.4883,4.374,4.2123,4.0864,4.0166,3.9497,3.8664,3.7338,3.576,3.4761,3.3879,3.339,3.3055,3.2927,3.2797,3.2715,3.2641,3.2784,3.2995,3.3493,3.3611,4.0956,4.1053,4.0974,4.0965,4.0984,4.0887,4.0926,4.1119,4.1003,4.1042,4.1255,4.1718,4.2483,4.2917,4.2932,4.2951,4.312,4.3236,4.3336,4.3382,4.3453,4.3595,4.3446,4.3288,4.2992,4.2159,4.1975,4.1602,4.1198,4.102,4.1026,4.1013,4.105,4.1091,4.1109,4.1104,4.114,4.1172,4.1191,4.1191,4.1191,4.1191,4.1191,4.1172,4.1146,4.1123,4.1113,4.1103,4.1081,4.1003,4.0927,4.0854,4.08,4.0675,4.0607,4.0583,4.0539,4.0523,4.0489,4.0489,4.0489,4.0489,4.0508,4.0546,4.0835,4.145,4.1876,4.2247,4.3289,4.4001,4.4322,4.463,4.5309,4.5836,4.6506,4.736,4.771,4.7927,4.8218,4.8309,4.8324,4.8363,4.8324,4.8363,4.8324,4.8267,4.8172,4.8114,4.7864,4.7702,4.7578,4.7119,4.6013,4.5201,4.4759,4.3376,4.1468,4.0437,3.9797,3.9258,3.8687,3.7186,3.5611,3.4376,3.3431,3.2973,3.2504,3.2213,3.1955,3.1763,3.1787,3.1979,3.2606,3.3293,3.3104,4.0953,4.0945,4.0913,4.0869,4.0828,4.0828,4.0809,4.0828,4.0828,4.0828,4.0828,4.1183,4.149,4.1749,4.1795,4.1763,4.1879,4.2412,4.2532,4.2834,4.305,4.3061,4.2898,4.251,4.2226,4.1638,4.1493,4.1448,4.1117,4.0925,4.1047,4.1067,4.1013,4.1109,4.1104,4.1133,4.1172,4.1191,4.1191,4.1191,4.1191,4.1191,4.1191,4.1191,4.1133,4.1116,4.1101,4.1116,4.1052,4.0991,4.0946,4.0865,4.0788,4.0662,4.0593,4.0569,4.0539,4.0523,4.0489,4.0489,4.0489,4.0489,4.0489,4.0489,4.0489,4.0873,4.13,4.1865,4.2639,4.3331,4.3994,4.4524,4.5174,4.5582,4.6279,4.7168,4.7616,4.7661,4.8126,4.8234,4.8288,4.8324,4.8286,4.8286,4.8247,4.8208,4.8093,4.7937,4.7702,4.7343,4.715,4.665,4.5548,4.4581,4.4145,4.2548,4.0723,4.0022,3.9408,3.8855,3.8273,3.7095,3.5579,3.4237,3.2958,3.2436,3.1887,3.1364,3.1054,3.079,3.0962,3.125,3.2049,3.2958,3.2655,4.1025,4.1025,4.1022,4.0987,4.0932,4.0932,4.0932,4.0932,4.0932,4.0943,4.0924,4.0917,4.0927,4.0898,4.0917,4.0975,4.1198,4.1568,4.177,4.2013,4.2265,4.2352,4.2038,4.1782,4.1622,4.1071,4.0739,4.0661,4.0596,4.0461,4.045,4.0563,4.0762,4.0808,4.1114,4.1152,4.1191,4.1191,4.1191,4.1191,4.1191,4.1172,4.1172,4.1172,4.1113,4.1111,4.1111,4.1101,4.1061,4.0996,4.0937,4.0843,4.0764,4.0681,4.0612,4.0569,4.0519,4.0489,4.0489,4.0489,4.0489,4.0489,4.0489,4.0489,4.0489,4.0508,4.0877,4.1215,4.1971,4.2756,4.3474,4.3957,4.4575,4.4983,4.5212,4.5991,4.6568,4.6796,4.7592,4.8141,4.8214,4.8249,4.8114,4.8056,4.7882,4.7919,4.8032,4.7834,4.747,4.706,4.6613,4.5996,4.508,4.4236,4.3408,4.1675,4.0131,3.9691,3.9031,3.8361,3.7609,3.6508,3.4932,3.3002,3.1983,3.17,3.117,3.0447,3.007,2.9807,3.0338,3.1107,3.1417,3.2192,3.2105,4.1096,4.1096,4.1111,4.1055,4.1006,4.1013,4.1013,4.0994,4.0994,4.1,4.0993,4.1006,4.0972,4.0918,4.0937,4.0952,4.0991,4.1101,4.1182,4.1311,4.1442,4.1208,4.1136,4.1117,4.0978,4.0869,4.0326,3.9837,3.9828,3.9393,3.9418,3.9808,4.0084,4.0452,4.1035,4.1169,4.1191,4.1191,4.1191,4.1191,4.1172,4.1144,4.1126,4.1128,4.1101,4.1104,4.1088,4.1074,4.1039,4.0984,4.0925,4.0827,4.0713,4.0654,4.0579,4.0504,4.0504,4.0489,4.0489,4.0489,4.0489,4.0489,4.0489,4.0489,4.0489,4.0508,4.0515,4.0835,4.1455,4.2067,4.2582,4.3207,4.3992,4.4374,4.4661,4.4827,4.5401,4.5967,4.6691,4.7333,4.7884,4.8174,4.7999,4.7802,4.7529,4.7565,4.7856,4.7692,4.7201,4.6373,4.5664,4.5194,4.4336,4.3296,4.2264,4.0795,3.9603,3.9189,3.8487,3.7613,3.6868,3.5955,3.4123,3.1908,3.122,3.1102,3.0301,2.9423,2.938,2.9519,3.048,3.1172,3.1347,3.1462,3.1516,4.1112,4.1111,4.1113,4.1074,4.1069,4.1077,4.1069,4.1085,4.1074,4.1066,4.1061,4.1067,4.105,4.1025,4.1026,4.1038,4.1066,4.1076,4.1065,4.106,4.1069,4.1069,4.0952,4.0584,4.0316,4.0008,3.9445,3.8996,3.9016,3.8514,3.8652,3.9062,3.957,4.0371,4.0956,4.1191,4.1191,4.1191,4.1191,4.1191,4.1142,4.1116,4.1114,4.1103,4.1108,4.1081,4.1046,4.1022,4.1,4.0937,4.0878,4.0784,4.0706,4.0626,4.0569,4.0504,4.0489,4.0489,4.0489,4.0489,4.0489,4.0489,4.0489,4.0489,4.0489,4.0495,4.0466,4.0686,4.1475,4.2101,4.2549,4.3624,4.4325,4.4154,4.4259,4.4151,4.4469,4.5015,4.5608,4.6159,4.6709,4.6742,4.6603,4.6617,4.6506,4.65,4.6717,4.6895,4.6606,4.5251,4.427,4.4043,4.3366,4.2282,4.1138,4.0017,3.91,3.8607,3.7544,3.631,3.5647,3.5101,3.362,3.1541,3.0972,3.0469,2.9709,2.9112,2.9114,2.9457,3.0333,3.0993,3.1153,3.1242,3.1308,4.1069,4.1065,4.1062,4.1062,4.1069,4.1093,4.1113,4.1112,4.111,4.1108,4.1107,4.1099,4.1097,4.1114,4.1104,4.1115,4.1117,4.1111,4.1113,4.111,4.1113,4.1094,4.082,4.0272,3.9978,3.9487,3.8706,3.814,3.812,3.7828,3.7864,3.8246,3.8974,3.949,4.0186,4.0586,4.1172,4.1172,4.1151,4.115,4.1121,4.1111,4.1104,4.1104,4.1094,4.1081,4.1022,4.0978,4.0953,4.0865,4.0791,4.0737,4.0665,4.0617,4.0554,4.0523,4.0489,4.0489,4.0489,4.0489,4.0489,4.0489,4.0489,4.0489,4.0508,4.0495,4.0466,4.0783,4.1686,4.2153,4.2602,4.3768,4.4111,4.3935,4.3992,4.3869,4.3956,4.4485,4.4929,4.5424,4.57,4.555,4.5358,4.526,4.5264,4.5387,4.5507,4.5659,4.5691,4.4366,4.3201,4.2992,4.2545,4.1608,4.0585,3.9537,3.8686,3.8011,3.672,3.5292,3.4588,3.4068,3.2642,3.123,3.0177,2.9366,2.9125,2.8856,2.89,2.9321,3.0091,3.0592,3.0885,3.0945,3.0934,4.0986,4.0976,4.0991,4.0979,4.1,4.1062,4.1084,4.1105,4.1105,4.1105,4.1086,4.1105,4.1084,4.1084,4.1086,4.1093,4.1073,4.109,4.1069,4.1074,4.1065,4.1072,4.074,4.0122,3.9587,3.9056,3.8237,3.7203,3.718,3.6785,3.6781,3.7273,3.8059,3.8497,3.9084,3.9842,4.0594,4.0752,4.083,4.0923,4.1033,4.1097,4.1094,4.1085,4.1091,4.1045,4.0994,4.0935,4.0869,4.0796,4.0756,4.0656,4.0622,4.0588,4.0539,4.0523,4.0489,4.0489,4.0489,4.0489,4.0489,4.0489,4.0489,4.0489,4.0492,4.0479,4.0449,4.0706,4.138,4.1884,4.2465,4.3114,4.3737,4.3804,4.391,4.3874,4.3796,4.4136,4.4579,4.493,4.5187,4.5093,4.4711,4.452,4.4043,4.3881,4.3881,4.3772,4.3717,4.3239,4.2339,4.2181,4.1667,4.0965,3.995,3.8888,3.8113,3.7359,3.5866,3.4541,3.3845,3.3195,3.2042,3.0694,2.906,2.8273,2.8375,2.8546,2.8742,2.9289,3.0135,3.0632,3.1075,3.0468,3.024,4.0932,4.0932,4.0924,4.0915,4.0924,4.089,4.0942,4.1028,4.1033,4.1028,4.1011,4.102,4.102,4.1025,4.1025,4.1031,4.1017,4.098,4.094,4.0953,4.0954,4.0948,4.0461,3.9656,3.9026,3.8248,3.7332,3.6359,3.6273,3.586,3.5924,3.6376,3.7131,3.7455,3.7926,3.8688,3.9403,3.9981,4.0098,4.0453,4.0777,4.0852,4.0866,4.0817,4.089,4.0855,4.0824,4.0835,4.0798,4.0752,4.066,4.0611,4.0588,4.0554,4.0504,4.0504,4.0489,4.0489,4.0489,4.0489,4.0489,4.0508,4.0508,4.0489,4.0492,4.0463,4.0432,4.069,4.1418,4.2145,4.2669,4.322,4.369,4.3874,4.3915,4.3789,4.3744,4.3787,4.4158,4.4161,4.4401,4.4158,4.3812,4.3322,4.286,4.2485,4.2279,4.2219,4.2025,4.1675,4.1594,4.1488,4.0788,4.0055,3.908,3.7997,3.735,3.6526,3.5175,3.4133,3.3761,3.2983,3.1652,3.0191,2.8604,2.8,2.7871,2.8182,2.8694,2.9554,3.0402,3.0823,3.1019,3.0394,2.9809,4.0828,4.0828,4.0837,4.0807,4.0765,4.0734,4.0768,4.082,4.0885,4.0913,4.0915,4.0907,4.0907,4.0888,4.0878,4.0878,4.0867,4.083,4.0818,4.0812,4.08,4.0811,4.0248,3.9219,3.85,3.7665,3.6792,3.5821,3.571,3.5716,3.5756,3.5862,3.639,3.6503,3.6766,3.717,3.7806,3.8533,3.9096,3.955,3.9895,4.0111,4.0,4.0123,4.0241,4.0383,4.0431,4.047,4.0665,4.0665,4.0596,4.0581,4.0558,4.0504,4.0504,4.0489,4.0492,4.0508,4.0508,4.0476,4.046,4.046,4.046,4.0479,4.0444,4.0413,4.0379,4.0519,4.1663,4.2614,4.3037,4.3439,4.3726,4.4036,4.3897,4.3719,4.3618,4.3532,4.3465,4.3394,4.3233,4.2989,4.2624,4.2127,4.1823,4.178,4.1642,4.1429,4.1198,4.0893,4.0881,4.0881,4.0046,3.9163,3.8193,3.7371,3.6676,3.5865,3.4751,3.3911,3.3632,3.2605,3.1116,2.9685,2.8198,2.7932,2.7909,2.8364,2.8924,2.9807,3.0507,3.0855,3.082,3.0179,2.9627,4.0675,4.0654,4.0673,4.0621,4.0574,4.0559,4.0526,4.0477,4.063,4.0754,4.0734,4.0754,4.073,4.0662,4.0649,4.0633,4.0629,4.0616,4.0603,4.0646,4.0607,4.0604,4.0101,3.8994,3.8189,3.7474,3.6598,3.5504,3.5549,3.5524,3.5534,3.559,3.5704,3.5841,3.5931,3.6036,3.6559,3.7139,3.7778,3.8273,3.8579,3.8558,3.8393,3.863,3.9063,3.9489,3.9607,3.9952,4.0481,4.0405,4.0312,4.0196,4.0119,4.0027,4.0065,4.0281,4.0191,4.0345,4.0383,4.0427,4.0377,4.0379,4.0379,4.0398,4.0362,4.0379,4.0325,4.0558,4.1546,4.2268,4.2724,4.3555,4.4071,4.4055,4.3865,4.3719,4.3566,4.3463,4.334,4.3214,4.2975,4.2709,4.2391,4.1977,4.1631,4.1408,4.1226,4.0948,4.0491,4.015,4.0017,4.0136,3.9323,3.8475,3.7763,3.6927,3.6089,3.518,3.4243,3.3516,3.3122,3.1929,3.0523,2.9022,2.7618,2.8011,2.8181,2.86,2.9174,3.0093,3.0678,3.0913,3.0617,2.9926,2.9357,4.0399,4.0403,4.0403,4.037,4.0304,4.0285,4.0232,4.0139,4.0101,4.0245,4.0466,4.0481,4.045,4.0367,4.0367,4.0354,4.0303,4.0271,4.0309,4.0292,4.0289,4.0245,3.9955,3.8578,3.783,3.7159,3.6278,3.5224,3.5211,3.5238,3.5323,3.5359,3.5407,3.5443,3.5481,3.5535,3.5811,3.6151,3.6396,3.7238,3.8011,3.8255,3.8345,3.8297,3.8537,3.8515,3.8586,3.8659,3.8774,3.8695,3.8642,3.8604,3.8584,3.8574,3.8885,3.933,3.9471,3.972,4.0085,4.0206,4.0193,4.0214,4.0234,4.0253,4.0253,4.0289,4.0443,4.0749,4.1258,4.1901,4.258,4.3538,4.4266,4.4055,4.3851,4.3667,4.3497,4.3394,4.3269,4.3049,4.2824,4.2494,4.2187,4.1849,4.1453,4.1244,4.1059,4.072,4.0021,3.9559,3.9171,3.9071,3.8631,3.7855,3.7229,3.6485,3.5677,3.4864,3.4032,3.3325,3.2633,3.0987,2.9419,2.8185,2.7225,2.7734,2.825,2.8767,2.9436,3.036,3.0748,3.0942,3.034,2.9614,2.9013,4.012,4.012,4.0062,4.0041,3.9981,3.9939,3.9857,3.9769,3.966,3.9728,3.9882,4.0043,4.0101,4.0021,4.004,3.9947,3.9891,3.9827,3.9773,3.9792,3.9754,3.9772,3.9075,3.813,3.7581,3.6899,3.5647,3.4832,3.4812,3.4897,3.4964,3.5032,3.5108,3.5193,3.5239,3.5372,3.5457,3.5515,3.5483,3.6153,3.7209,3.716,3.7112,3.708,3.7367,3.7472,3.775,3.7804,3.8092,3.8075,3.8104,3.8074,3.8093,3.8063,3.8185,3.8402,3.8597,3.881,3.9348,3.9679,3.9814,3.9945,4.0059,4.0077,4.0077,4.0099,4.0118,4.0494,4.1548,4.2281,4.2561,4.3324,4.3908,4.3961,4.3767,4.36,4.3394,4.3233,4.3085,4.2844,4.2613,4.231,4.2037,4.1719,4.1335,4.1059,4.0871,4.068,3.9961,3.9052,3.8631,3.8159,3.7787,3.7466,3.7009,3.6197,3.5284,3.4532,3.3778,3.2863,3.1885,2.9989,2.8305,2.7436,2.7112,2.7707,2.822,2.8817,2.9717,3.0687,3.0857,3.0903,3.0129,2.9218,2.8359,3.9813,3.9785,3.9693,3.9604,3.958,3.9532,3.9458,3.9364,3.9253,3.9165,3.9127,3.9432,3.9548,3.9585,3.958,3.9477,3.9373,3.9233,3.9203,3.9155,3.9129,3.9152,3.8588,3.7636,3.6844,3.6007,3.4922,3.451,3.4342,3.4444,3.4525,3.4614,3.473,3.483,3.5,3.5117,3.5193,3.5262,3.5292,3.5336,3.5482,3.5489,3.57,3.5944,3.617,3.6575,3.6865,3.7154,3.761,3.7555,3.7324,3.7256,3.7226,3.7172,3.7392,3.7532,3.7559,3.7903,3.8401,3.8784,3.9248,3.9607,3.9785,3.9845,3.9867,3.9867,3.9911,4.0454,4.152,4.2272,4.257,4.3128,4.3639,4.3897,4.3701,4.3532,4.3324,4.3101,4.2858,4.2691,4.2396,4.2121,4.1823,4.1515,4.1244,4.0918,4.068,4.0485,4.0016,3.9001,3.8227,3.7686,3.7178,3.6891,3.6586,3.5842,3.4895,3.4066,3.3279,3.2307,3.1162,2.9353,2.798,2.7182,2.708,2.7607,2.8287,2.8932,2.9895,3.0796,3.0807,3.0606,2.9665,2.8722,2.7632,3.9383,3.9324,3.9298,3.9219,3.9137,3.899,3.8933,3.8847,3.8718,3.8597,3.8499,3.848,3.8633,3.899,3.899,3.8887,3.8718,3.8596,3.8572,3.8547,3.8442,3.8462,3.8058,3.693,3.5533,3.4623,3.4034,3.3887,3.3773,3.3894,3.4027,3.4111,3.4241,3.4414,3.4628,3.4756,3.4884,3.4978,3.5089,3.5141,3.52,3.5292,3.5397,3.5526,3.5575,3.5628,3.568,3.5713,3.5787,3.5801,3.5925,3.5987,3.6032,3.6116,3.626,3.6552,3.6576,3.69,3.7357,3.8033,3.8633,3.9439,3.9564,3.9618,3.9618,3.9618,3.9755,4.0056,4.1005,4.1856,4.2398,4.3319,4.3955,4.38,4.3618,4.3411,4.3196,4.2951,4.2695,4.2445,4.2127,4.1866,4.1604,4.129,4.0965,4.0728,4.0631,4.0436,4.0136,3.9054,3.8041,3.7364,3.6789,3.618,3.5825,3.5301,3.4472,3.3643,3.2628,3.141,3.0159,2.8839,2.7638,2.6894,2.6945,2.7385,2.8129,2.9042,2.9719,3.0476,3.0525,3.0253,2.9264,2.8216,2.7144]},{"header":{"parameterUnit":"m.s-1","parameterCategory":1,"la1":31.0,"la2":29.5877,"lo1":-88.7671,"lo2":-86.6584,"dx":0.0162,"dy":0.0185,"nx":115,"ny":88,"refTime":"2022-12-10T06:00:00:Z","depth":0,"parameterNumber":3,"parameterNumberName":"V-component_of_WINDS"},"data":[0.0,0.0,0.0,0.0,0.0,0.0,0.0,0.0,0.0,0.0,0.0,0.0,0.0,0.0,0.0,0.0,0.0,0.0,0.0,0.0,0.0,0.0,0.0,0.0,0.0,0.0,0.0,0.0,0.0,0.0,0.0,0.0,0.0,0.0,0.0,0.0,0.0,0.0,0.0,0.0,0.0,0.0,0.0,0.0,0.0,0.0,0.0,0.0,0.0,0.0,0.0,0.0,0.0,0.0,0.0,0.0,0.0,0.0,0.0,0.0,0.0,0.0,0.0,0.0,0.0,0.0,0.0,0.0,0.0,0.0,0.0,0.0,0.0,0.0,0.0,0.0,0.0,0.0,0.0,0.0,0.0,0.0,0.0,0.0,0.0,0.0,0.0,0.0,0.0,0.0,0.0,0.0,0.0,0.0,0.0,0.0,0.0,0.0,0.0,0.0,0.0,0.0,0.0,0.0,0.0,0.0,0.0,0.0,0.0,0.0,0.0,0.0,0.0,0.0,0.0,0.0,0.0,0.0,0.0,0.0,0.0,0.0,0.0,0.0,0.0,0.0,0.0,0.0,0.0,0.0,0.0,0.0,0.0,0.0,0.0,0.0,0.0,0.0,0.0,0.0,0.0,0.0,0.0,0.0,0.0,0.0,0.0,0.0,0.0,0.0,0.0,0.0,0.0,0.0,0.0,0.0,0.0,0.0,0.0,0.0,0.0,0.0,0.0,0.0,0.0,0.0,0.0,0.0,0.0,0.0,0.0,0.0,0.0,0.0,0.0,0.0,0.0,0.0,0.0,0.0,0.0,0.0,0.0,0.0,0.0,0.0,0.0,0.0,0.0,0.0,0.0,0.0,0.0,0.0,0.0,0.0,0.0,0.0,0.0,0.0,0.0,0.0,0.0,0.0,0.0,0.0,0.0,0.0,0.0,0.0,0.0,0.0,0.0,0.0,0.0,0.0,0.0,0.0,0.0,0.0,0.0,0.0,0.0,0.0,0.0,0.0,0.0,0.0,0.0,0.0,0.0,0.0,0.0,0.0,0.0,0.0,0.0,0.0,0.0,0.0,0.0,0.0,0.0,0.0,0.0,0.0,0.0,0.0,0.0,0.0,0.0,0.0,0.0,0.0,0.0,0.0,0.0,0.0,0.0,0.0,0.0,0.0,0.0,0.0,0.0,0.0,0.0,0.0,0.0,0.0,0.0,0.0,0.0,0.0,0.0,0.0,0.0,0.0,0.0,0.0,0.0,0.0,0.0,0.0,0.0,0.0,0.0,0.0,0.0,0.0,0.0,0.0,0.0,0.0,0.0,0.0,0.0,0.0,0.0,0.0,0.0,0.0,0.0,0.0,0.0,0.0,0.0,0.0,0.0,0.0,0.0,0.0,0.0,0.0,0.0,0.0,0.0,0.0,0.0,0.0,0.0,0.0,0.0,0.0,0.0,0.0,0.0,0.0,0.0,0.0,0.0,0.0,0.0,0.0,0.0,0.0,0.0,0.0,0.0,0.0,0.0,0.0,0.0,0.0,0.0,0.0,0.0,0.0,0.0,0.0,0.0,0.0,0.0,0.0,0.0,0.0,0.0,0.0,0.0,0.0,0.0,0.0,0.0,0.0,0.0,0.0,0.0,0.0,0.0,0.0,0.0,0.0,0.0,0.0,0.0,0.0,0.0,0.0,0.0,0.0,0.0,0.0,0.0,0.0,0.0,0.0,0.0,0.0,0.0,0.0,0.0,0.0,0.0,0.0,0.0,0.0,0.0,0.0,0.0,0.0,0.0,0.0,0.0,0.0,0.0,0.0,0.0,0.0,0.0,0.0,0.0,0.0,0.0,0.0,0.0,0.0,0.0,0.0,0.0,0.0,0.0,0.0,0.0,0.0,0.0,0.0,0.0,0.0,0.0,0.0,0.0,0.0,0.0,0.0,0.0,0.0,0.0,0.0,0.0,0.0,0.0,0.0,0.0,0.0,0.0,0.0,0.0,0.0,0.0,0.0,0.0,0.0,0.0,0.0,0.0,0.0,0.0,0.0,0.0,0.0,0.0,0.0,0.0,0.0,0.0,0.0,0.0,0.0,0.0,0.0,0.0,0.0,0.0,0.0,0.0,0.0,0.0,0.0,0.0,0.0,0.0,0.0,0.0,0.0,0.0,0.0,0.0,0.0,0.0,0.0,0.0,0.0,0.0,0.0,0.0,0.0,0.0,0.0,0.0,0.0,0.0,0.0,0.0,0.0,0.0,0.0,0.0,0.0,0.0,0.0,0.0,0.0,0.0,0.0,0.0,0.0,0.0,0.0,0.0,0.0,0.0,0.0,0.0,0.0,0.0,0.0,0.0,0.0,0.0,0.0,0.0,0.0,0.0,0.0,0.0,0.0,0.0,0.0,0.0,0.0,0.0,0.0,0.0,0.0,0.0,0.0,0.0,0.0,0.0,0.0,0.0,0.0,0.0,0.0,0.0,0.0,0.0,0.0,0.0,0.0,0.0,0.0,0.0,0.0,0.0,0.0,0.0,0.0,0.0,0.0,0.0,0.0,0.0,0.0,0.0,0.0,0.0,0.0,0.0,0.0,0.0,0.0,0.0,0.0,0.0,0.0,0.0,0.0,0.0,0.0,0.0,0.0,0.0,0.0,0.0,0.0,0.0,0.0,0.0,0.0,0.0,0.0,0.0,0.0,0.0,0.0,0.0,0.0,0.0,0.0,0.0,0.0,0.0,0.0,0.0,0.0,0.0,0.0,0.0,0.0,0.0,0.0,0.0,0.0,0.0,0.0,0.0,0.0,0.0,0.0,0.0,0.0,0.0,0.0,0.0,0.0,0.0,0.0,0.0,0.0,0.0,0.0,0.0,0.0,0.0,0.0,0.0,0.0,0.0,0.0,0.0,0.0,0.0,0.0,0.0,0.0,0.0,0.0,0.0,0.0,0.0,0.0,0.0,0.0,0.0,0.0,0.0,0.0,0.0,0.0,0.0,0.0,0.0,0.0,0.0,0.0,0.0,0.0,0.0,0.0,0.0,0.0,0.0,0.0,0.0,0.0,0.0,0.0,0.0,0.0,0.0,0.0,0.0,0.0,0.0,0.0,0.0,0.0,0.0,0.0,0.0,0.0,0.0,0.0,0.0,0.0,0.0,0.0,0.0,0.0,0.0,0.0,0.0,0.0,0.0,0.0,0.0,0.0,0.0,0.0,0.0,0.0,0.0,0.0,0.0,0.0,0.0,0.0,0.0,0.0,0.0,0.0,0.0,0.0,0.0,0.0,0.0,0.0,0.0,0.0,0.0,0.0,0.0,0.0,0.0,0.0,0.0,0.0,0.0,0.0,0.0,0.0,0.0,0.0,0.0,0.0,0.0,0.0,0.0,0.0,0.0,0.0,0.0,0.0,0.0,0.0,0.0,0.0,0.0,0.0,0.0,0.0,0.0,0.0,0.0,0.0,0.0,0.0,0.0,0.0,0.0,0.0,0.0,0.0,0.0,0.0,0.0,0.0,0.0,0.0,0.0,0.0,0.0,0.0,0.0,0.0,0.0,0.0,0.0,0.0,0.0,0.0,0.0,0.0,0.0,0.0,0.0,0.0,0.0,0.0,0.0,0.0,0.0,0.0,0.0,0.0,0.0,0.0,0.0,0.0,0.0,0.0,0.0,0.0,0.0,0.0,0.0,0.0,0.0,0.0,0.0,0.0,0.0,0.0,0.0,0.0,0.0,0.0,0.0,0.0,0.0,0.0,0.0,0.0,0.0,0.0,0.0,0.0,0.0,0.0,0.0,0.0,0.0,0.0,0.0,0.0,0.0,0.0,0.0,0.0,0.0,0.0,0.0,0.0,0.0,0.0,0.0,0.0,0.0,0.0,0.0,0.0,0.0,0.0,0.0,0.0,0.0,0.0,0.0,0.0,0.0,0.0,0.0,0.0,0.0,0.0,0.0,0.0,0.0,0.0,0.0,0.0,0.0,0.0,0.0,0.0,0.0,0.0,0.0,0.0,0.0,0.0,0.0,0.0,0.0,0.0,0.0,0.0,0.0,0.0,0.0,0.0,0.0,0.0,0.0,0.0,0.0,0.0,0.0,0.0,0.0,0.0,0.0,0.0,0.0,0.0,0.0,0.0,0.0,0.0,0.0,0.0,0.0,0.0,0.0,0.0,0.0,0.0,0.0,0.0,0.0,0.0,0.0,0.0,0.0,0.0,0.0,0.0,0.0,0.0,0.0,0.0,0.0,0.0,0.0,0.0,0.0,0.0,0.0,0.0,0.0,0.0,0.1937,0.0,0.0,0.0,0.1803,0.0,0.0,0.0,0.0,0.0,0.0,0.0,0.0,0.0,0.0,0.0,0.0,0.0,0.0,0.0,0.0,0.0,0.0,0.0,0.0,0.0,0.0,0.0,0.0,0.0,0.0,0.0,0.0,0.0,0.0,0.0,0.0,0.0,0.0,0.0,0.0,0.0,0.0,0.0,0.0,0.0,0.0,0.0,0.0,0.0,0.0,0.0,0.0,0.0,0.0,0.0,0.0,0.0,0.0,0.0,0.0,0.0,0.0,0.0,0.0,0.0,0.0,0.0,0.0,0.0,0.0,0.0,0.0,0.0,0.0,0.0,0.0,0.0,0.0,0.0,0.0,0.0,0.0,0.0,0.0,0.0,0.0,0.0,0.0,0.0,0.0,0.0,0.0,0.0,0.0,0.0,0.0,0.0,0.0,0.0,0.0,0.0,0.0,0.0,0.0,0.0,0.0,0.0,0.0,0.0,0.0,0.0,0.0,0.0,0.0,0.1852,0.1806,0.1803,0.1803,0.1803,0.0,0.0,0.0,0.0,0.0,0.0,0.0,0.0,0.0,0.0,0.0,0.0,0.0,0.0,0.0,0.0,0.0,0.0,0.0,0.0,0.0,0.0,0.0,0.0,0.0,0.0,0.0,0.0,0.0,0.0,0.0,0.0,0.0,0.0,0.0,0.0,0.0,0.0,0.0,0.0,0.0,0.0,0.0,0.0,0.0,0.0,0.0,0.0,0.0,0.0,0.0,0.0,0.0,0.0,0.0,0.0,0.0,0.0,0.0,0.0,0.0,0.0,0.0,0.0,0.0,0.0,0.0,0.0,0.0,0.0,0.0,0.0,0.0,0.0,0.0,0.0,0.0,0.0,0.0,0.0,0.0,0.0,0.0,0.0,0.0,0.0,0.0,0.0,0.0,0.0,0.0,0.0,0.0,0.0,0.0,0.0,0.0,0.0,0.0,0.0,0.0,0.0,0.0,0.0,0.0,0.0,0.0,0.0,0.0,0.0,0.0,0.0,0.1803,0.1803,0.1803,0.0,0.0,0.0,0.0,0.0,0.0,0.0,0.0,0.0,0.0,0.0,0.0,0.0,0.0,0.0,0.0,0.0,0.0,0.0,0.0,0.0,0.0,0.0,0.0,0.0,0.0,0.0,0.0,0.0,0.0,0.0,0.0,0.0,0.0,0.0,0.0,0.0,0.0,0.0,0.0,0.0,0.0,0.0,0.0,0.0,0.0,0.0,0.0,0.0,0.0,0.0,0.0,0.0,0.0,0.0,0.0,0.0,0.0,0.0,0.0,0.0,0.0,0.0,0.0,0.0,0.0,0.0,0.0,0.0,0.0,0.0,0.0,0.0,0.0,0.0,0.0,0.0,0.0,0.0,0.0,0.0,0.0,0.0,0.0,0.0,0.0,0.0,0.0,0.0,0.0,0.0,0.0,0.0,0.0,0.0,0.0,0.0,0.0,0.0,0.0,0.0,0.0,0.0,0.0,0.0,0.0,0.0,0.0,0.0,0.0,0.1803,0.1803,0.1806,0.0,0.1803,0.0,0.0,0.0,0.0,0.0,0.0,0.0,0.0,0.0,0.0,0.0,0.0,0.0,0.0,0.0,0.0,0.0,0.0,0.0,0.0,0.0,0.0,0.0,0.0,0.0,0.0,0.0,0.0,0.0,0.0,0.0,0.0,0.0,0.0,0.0,0.0,0.0,0.0,0.0,0.0,0.0,0.0,0.0,0.0,0.0,0.0,0.0,0.0,0.0,0.0,0.0,0.0,0.0,0.0,0.0,0.0,0.0,0.0,0.0,0.0,0.0,0.0,0.0,0.0,0.0,0.0,0.0,0.0,0.0,0.0,0.0,0.0,0.0,0.0,0.0,0.0,0.0,0.0,0.0,0.0,0.0,0.0,0.0,0.0,0.0,0.0,0.0,0.0,0.0,0.0,0.0,0.0,0.0,0.0,0.0,0.0,0.0,0.0,0.0,0.0,0.0,0.0,0.0,0.0,0.0,0.0,0.0,0.0,0.0,0.0,0.1908,0.1972,0.1943,0.1895,0.0,0.0,0.0,0.0,0.0,0.0,0.0,0.0,0.0,0.0,0.0,0.0,0.0,0.0,0.0,0.0,0.0,0.0,0.0,0.0,0.0,0.0,0.0,0.0,0.0,0.0,0.0,0.0,0.0,0.0,0.0,0.0,0.0,0.0,0.0,0.0,0.0,0.0,0.0,0.0,0.0,0.0,0.0,0.0,0.0,0.0,0.0,0.0,0.0,0.0,0.0,0.0,0.0,0.0,0.0,0.0,0.0,0.0,0.0,0.0,0.0,0.0,0.0,0.0,0.0,0.0,0.0,0.0,0.0,0.0,0.0,0.0,0.0,0.0,0.0,0.0,0.0,0.0,0.0,0.0,0.0,0.0,0.0,0.0,0.0,0.0,0.0,0.0,0.0,0.0,0.0,0.0,0.0,0.0,0.0,0.0,0.0,0.0,0.0,0.0,0.0,0.0,0.0,0.0,0.0,0.0,0.0,0.0,0.0,0.0,0.1859,0.1985,0.2107,0.2043,0.194,0.1809,0.0,0.0,0.0,0.0,0.0,0.0,0.0,0.0,0.0,0.0,0.0,0.0,0.0,0.0,0.0,0.0,0.0,0.0,0.0,0.0,0.0,0.0,0.0,0.0,0.0,0.0,0.0,0.0,0.0,0.0,0.0,0.0,0.0,0.0,0.0,0.0,0.0,0.0,0.0,0.0,0.0,0.0,0.0,0.0,0.0,0.0,0.0,0.0,0.0,0.0,0.0,0.0,0.0,0.0,0.0,0.0,0.0,0.0,0.0,0.0,0.0,0.0,0.0,0.0,0.0,0.0,0.0,0.0,0.0,0.0,0.0,0.0,0.0,0.0,0.0,0.0,0.0,0.0,0.0,0.0,0.0,0.0,0.0,0.0,0.0,0.0,0.0,0.0,0.0,0.0,0.0,0.0,0.0,0.0,0.0,0.0,0.0,0.0,0.0,0.0,0.0,0.0,0.0,0.0,0.0,0.0,0.0,0.0,0.1703,0.1837,0.1993,0.2189,0.2064,0.194,0.0,0.0,0.0,0.0,0.0,0.0,0.0,0.0,0.0,0.0,0.0,0.0,0.0,0.0,0.0,0.0,0.0,0.0,0.0,0.0,0.0,0.0,0.0,0.0,0.0,0.0,0.0,0.0,0.0,0.0,0.0,0.0,0.0,0.0,0.0,0.0,0.0,0.0,0.0,0.0,0.0,0.0,0.0,0.0,0.0,0.0,0.0,0.0,0.0,0.0,0.0,0.0,0.0,0.0,0.0,0.0,0.0,0.0,0.0,0.0,0.0,0.0,0.0,0.0,0.0,0.0,0.0,0.0,0.0,0.0,0.0,0.0,0.0,0.0,0.0,0.0,0.0,0.0,0.0,0.0,0.0,0.0,0.0,0.0,0.0,0.0,0.0,0.0,0.0,0.0,0.0,0.0,0.0,0.0,0.0,0.0,0.0,0.0,0.0,0.0,0.0,0.0,0.0,0.0,0.0,0.0,0.0,0.0,0.0,0.1774,0.2044,0.2302,0.2513,0.2266,0.2034,0.0,0.0,0.0,0.0,0.0,0.0,0.0,0.0,0.0,0.0,0.0,0.0,0.0,0.0,0.0,0.0,0.0,0.0,0.0,0.0,0.0,0.0,0.0,0.0,0.0,0.0,0.0,0.0,0.0,0.0,0.0,0.0,0.0,0.0,0.0,0.0,0.0,0.0,0.0,0.0,0.0,0.0,0.0,0.0,0.0,0.0,0.0,0.0,0.0,0.0,0.0,0.0,0.0,0.0,0.0,0.0,0.0,0.0,0.0,0.0,0.0,0.0,0.0,0.0,0.0,0.0,0.0,0.0,0.0,0.0,0.0,0.0,0.0,0.0,0.0,0.0,0.0,0.0,0.0,0.0,0.0,0.0,0.0,0.0,0.0,0.0,0.0,0.0,0.0,0.0,0.0,0.0,0.0,0.0,0.0,0.0,0.0,0.0,0.0,0.0,0.0,0.0,0.0,0.0,0.0,0.0,0.0,0.0,0.0,0.1903,0.2228,0.2515,0.2663,0.2377,0.2057,0.0,0.0,0.0,0.0,0.0,0.0,0.0,0.0,0.0,0.0,0.0,0.0,0.0,0.0,0.0,0.0,0.0,0.0,0.0,0.0,0.0,0.0,0.0,0.0,0.0,0.0,0.0,0.0,0.0,0.0,0.0,0.0,0.0,0.0,0.0,0.0,0.0,0.0,0.0,0.0,0.0,0.0,0.0,0.0,0.0,0.0,0.0,0.0,0.0,0.0,0.0,0.0,0.0,0.0,0.0,0.0,0.0,0.0,0.0,0.0,0.0,0.0,0.0,0.0,0.0,0.0,0.0,0.0,0.0,0.0,0.0,0.0,0.0,0.0,0.0,0.0,0.0,0.0,0.0,0.0,0.0,0.0,0.0,0.0,0.0,0.0,0.0,0.0,0.0,0.0,0.0,0.0,0.0,0.0,0.0,0.0,0.0,0.0,0.0,0.0,0.0,0.0,0.0,0.0,0.0,0.0,0.0,0.0,0.1767,0.209,0.232,0.2498,0.267,0.2395,0.2093,0.0,0.0,0.0,0.0,0.0,0.0,0.0,0.0,0.0,0.0,0.0,0.0,0.0,0.0,0.0,0.0,0.0,0.0,0.0,0.0,0.0,0.0,0.0,0.0,0.0,0.0,0.0,0.0,0.0,0.0,0.0,0.0,0.0,0.0,0.0,0.0,0.0,0.0,0.0,0.0,0.0,0.0,0.0,0.0,0.0,0.0,0.0,0.0,0.0,0.0,0.0,0.0,0.0,0.0,0.0,0.0,0.0,0.0,0.0,0.0,0.0,0.0,0.0,0.0,0.0,0.0,0.0,0.0,0.0,0.0,0.0,0.0,0.0,0.0,0.0,0.0,0.0,0.0,0.0,0.0,0.0,0.0,0.0,0.0,0.0,0.0,0.0,0.0,0.0,0.0,0.0,0.0,0.0,0.0,0.0,0.0,0.0,0.0,0.0,0.0,0.0,0.0,0.0,0.0,0.0,0.0,0.0,0.0,0.0,0.2215,0.2516,0.2628,0.2493,0.2524,0.2332,0.0,0.0,0.0,0.0,0.0,0.0,0.0,0.0,0.0,0.0,0.0,0.0,0.0,0.0,0.0,0.0,0.0,0.0,0.0,0.0,0.0,0.0,0.0,0.0,0.0,0.0,0.0,0.0,0.0,0.0,0.0,0.0,0.0,0.0,0.0,0.0,0.0,0.0,0.0,0.0,0.0,0.0,0.0,0.0,0.0,0.0,0.0,0.0,0.0,0.0,0.0,0.0,0.0,0.0,0.0,0.0,0.0,0.0,0.0,0.0,0.0,0.0,0.0,0.0,0.0,0.0,0.0,0.0,0.0,0.0,0.0,0.0,0.0,0.0,0.0,0.0,0.0,0.0,0.0,0.0,0.0,0.0,0.0,0.0,0.0,0.0,0.0,0.0,0.0,0.0,0.0,0.0,0.0,0.0,0.0,0.0,0.0,0.0,0.0,0.0,0.0,0.0,0.0,0.0,0.0,0.0,0.0,0.0,0.0,0.2442,0.2631,0.2698,0.258,0.2612,0.2402,0.1972,0.0,0.0,0.0,0.0,0.0,0.0,0.0,0.0,0.0,0.0,0.0,0.0,0.0,0.0,0.0,0.0,0.0,0.0,0.0,0.0,0.0,0.0,0.0,0.0,0.0,0.0,0.0,0.0,0.0,0.0,0.0,0.0,0.0,0.0,0.0,0.0,0.0,0.0,0.0,0.0,0.0,0.0,0.0,0.0,0.0,0.0,0.0,0.0,0.0,0.0,0.0,0.0,0.0,0.0,0.0,0.0,0.0,0.0,0.0,0.0,0.0,0.0,0.0,0.0,0.0,0.0,0.0,0.0,0.0,0.0,0.0,0.0,0.0,0.0,0.0,0.0,0.0,0.0,0.0,0.0,0.0,0.0,0.0,0.0,0.0,0.0,0.0,0.0,0.0,0.0,0.0,0.0,0.0,0.0,0.0,0.0,0.0,0.0,0.0,0.0,0.0,0.0,0.0,0.0,0.0,0.0,0.0,0.0,0.2684,0.2612,0.2702,0.2881,0.2659,0.2433,0.0,0.0,0.0,0.0,0.0,0.0,0.0,0.0,0.0,0.0,0.0,0.0,0.0,0.0,0.0,0.0,0.0,0.0,0.0,0.0,0.0,0.0,0.0,0.0,0.0,0.0,0.0,0.0,0.0,0.0,0.0,0.0,0.0,0.0,0.0,0.0,0.0,0.0,0.0,0.0,0.0,0.0,0.0,0.0,0.0,0.0,0.0,0.0,0.0,0.0,0.0,0.0,0.0,0.0,0.0,0.0,0.0,0.0,0.0,0.0,0.0,0.0,0.0,0.0,0.0,0.0,0.0,0.0,0.0,0.0,0.0,0.0,0.0,0.0,0.0,0.0,0.0,0.0,0.0,0.0,0.0,0.0,0.0,0.0,0.0,0.0,0.0,0.0,0.0,0.0,0.0,0.0,0.0,0.0,0.0,0.0,0.0,0.0,0.0,0.0,0.0,0.0,0.0,0.0,0.0,0.0,0.0,0.0,0.0,0.233,0.2514,0.2674,0.2907,0.2948,0.2809,0.0,0.0,0.0,0.0,0.0,0.0,0.0,0.0,0.0,0.0,0.0,0.0,0.0,0.0,0.0,0.0,0.0,0.0,0.0,0.0,0.0,0.0,0.0,0.0,0.0,0.0,0.0,0.0,0.0,0.0,0.0,0.0,0.0,0.0,0.0,0.0,0.0,0.0,0.0,0.0,0.0,0.0,0.0,0.0,0.0,0.0,0.0,0.0,0.0,0.0,0.0,0.0,0.0,0.0,0.0,0.0,0.0,0.0,0.0,0.0,0.0,0.0,0.0,0.0,0.0,0.0,0.0,0.0,0.0,0.0,0.0,0.0,0.0,0.0,0.0,0.0,0.0,0.0,0.0,0.0,0.0,0.0,0.0,0.0,0.0,0.0,0.0,0.0,0.0,0.0,0.0,0.0,0.0,0.0,0.0,0.0,0.0,0.0,0.0,0.0,0.0,0.0,0.0,0.0,0.0,0.0,0.0,0.0,0.193,0.2221,0.2373,0.2629,0.2904,0.2962,0.2858,0.0,0.0,0.0,0.0,0.0,0.0,0.0,0.0,0.0,0.0,0.0,0.0,0.0,0.0,0.0,0.0,0.0,0.0,0.0,0.0,0.0,0.0,0.0,0.0,0.0,0.0,0.0,0.0,0.0,0.0,0.0,0.0,0.0,0.0,0.0,0.0,0.0,0.0,0.0,0.0,0.0,0.0,0.0,0.0,0.0,0.0,0.0,0.0,0.0,0.0,0.0,0.0,0.0,0.0,0.0,0.0,0.0,0.0,0.0,0.0,0.0,0.0,0.0,0.0,0.0,0.0,0.0,0.0,0.0,0.0,0.0,0.0,0.0,0.0,0.0,0.0,0.0,0.0,0.0,0.0,0.0,0.0,0.0,0.0,0.0,0.0,0.0,0.0,0.0,0.0,0.0,0.0,0.0,0.0,0.0,0.0,0.0,0.0,0.0,0.0,0.0,0.0,0.0,0.0,0.0,0.0,0.0,0.0,0.1816,0.2186,0.2254,0.2473,0.2899,0.2795,0.2641,0.0,0.0,0.0,0.0,0.0,0.0,0.0,0.0,0.0,0.0,0.0,0.0,0.0,0.0,0.0,0.0,0.0,0.0,0.0,0.0,0.0,0.0,0.0,0.0,0.0,0.0,0.0,0.0,0.0,0.0,0.0,0.0,0.0,0.0,0.0,0.0,0.0,0.0,0.0,0.0,0.0,0.0,0.0,0.0,0.0,0.0,0.0,0.0,0.0,0.0,0.0,0.0,0.0,0.0,0.0,0.0,0.0,0.0,0.0,0.0,0.0,0.0,0.0,0.0,0.0,0.0,0.0,0.0,0.0,0.0,0.0,0.0,0.0,0.0,0.0,0.0,0.0,0.0,0.0,0.0,0.0,0.0,0.0,0.0,0.0,0.0,0.0,0.0,0.0,0.0,0.0,0.0,0.0,0.0,0.0,0.0,0.0,0.0,0.0,0.0,0.0,0.0,0.0,0.0,0.0,0.0,0.0,0.0,0.1394,0.1659,0.1876,0.2073,0.2303,0.2484,0.2578,0.0,0.0,0.0,0.0,0.0,0.0,0.0,0.0,0.0,0.0,0.0,0.0,0.0,0.0,0.0,0.0,0.0,0.0,0.0,0.0,0.0,0.0,0.0,0.0,0.0,0.0,0.0,0.0,0.0,0.0,0.0,0.0,0.0,0.0,0.0,0.0,0.0,0.0,0.0,0.0,0.0,0.0,0.0,0.0,0.0,0.0,0.0,0.0,0.306,0.0,0.0,0.0,0.0,0.0,0.0,0.0,0.0,0.0,0.0,0.0,0.0,0.0,0.0,0.0,0.0,0.0,0.0,0.0,0.0,0.0,0.0,0.0,0.0,0.0,0.0,0.0,0.0,0.0,0.0,0.0,0.0,0.0,0.0,0.0,0.0,0.0,0.0,0.0,0.0,0.0,0.0,0.0,0.0,0.0,0.0,0.0,0.0,0.0,0.0,0.0,0.0,0.0,0.0,0.0,0.0,0.0,0.0,0.0,0.121,0.1432,0.1599,0.1733,0.1876,0.2023,0.2161,0.0,0.0,0.0,0.0,0.0,0.0,0.0,0.0,0.0,0.0,0.0,0.0,0.0,0.0,0.0,0.0,0.0,0.0,0.0,0.0,0.0,0.0,0.0,0.0,0.0,0.0,0.0,0.0,0.0,0.0,0.0,0.0,0.0,0.0,0.0,0.0,0.0,0.0,0.0,0.0,0.0,0.0,0.0,0.0,0.0,0.0,0.0,0.0,0.0,0.0,0.0,0.0,0.0,0.0,0.0,0.0,0.0,0.0,0.0,0.0,0.0,0.0,0.0,0.0,0.0,0.0,0.0,0.0,0.0,0.0,0.0,0.0,0.0,0.0,0.0,0.0,0.0,0.0,0.0,0.0,0.0,0.0,0.0,0.0,0.0,0.0,0.0,0.0,0.0,0.0,0.0,0.0,0.0,0.0,0.0,0.0,0.0,0.0,0.0,0.0,0.0,0.0,0.0,0.0,0.0,0.0,0.0,0.1058,0.1161,0.1363,0.1348,0.1409,0.1481,0.1558,0.1679,0.1792,0.0,0.0,0.0,0.0,0.0,0.0,0.0,0.0,0.0,0.0,0.0,0.0,0.0,0.0,0.0,0.0,0.0,0.0,0.0,0.0,0.0,0.0,0.0,0.0,0.0,0.0,0.0,0.0,0.0,0.0,0.0,0.0,0.0,0.0,0.0,0.0,0.0,0.0,0.1473,0.1933,0.0,0.0,0.0,0.0,0.0,0.0,0.0,0.0,0.3288,0.0,0.0,0.0,0.0,0.0,0.0,0.0,0.0,0.0,0.0,0.0,0.0,0.0,0.0,0.0,0.0,0.0,0.0,0.0,0.0,0.0,0.0,0.0,0.0,0.0,0.0,0.0,0.0,0.0,0.0,0.0,0.0,0.0,0.0,0.0,0.0,0.0,0.0,0.0,0.0,0.0,0.0,0.0,0.0,0.0,0.0,0.0,0.0,0.0,0.0,0.0,0.0,0.0,0.0,0.0,0.0,0.0853,0.0857,0.0894,0.104,0.1073,0.1075,0.1103,0.1499,0.162,0.1439,0.0,0.0,0.0,0.0,0.0,0.0,0.0,0.0,0.0,0.0,0.0,0.0,0.0,0.0,0.0,0.0,0.0,0.0,0.0,0.0,0.0,0.0,0.0,0.0,0.0,0.0,0.0,0.0,0.0,0.0,0.0,0.0,0.0,0.0,0.0,0.0,0.0,0.0,0.0,0.2206,0.2448,0.0,0.0,0.0,0.0,0.0,0.0,0.0,0.0,0.3687,0.0,0.0,0.0,0.0,0.0,0.0,0.0,0.0,0.0,0.0,0.0,0.0,0.0,0.0,0.0,0.0,0.0,0.0,0.0,0.0,0.0,0.0,0.0,0.0,0.0,0.0,0.0,0.0,0.0,0.0,0.0,0.0,0.0,0.0,0.0,0.0,0.0,0.0,0.0,0.0,0.0,0.0,0.0,0.0,0.0,0.0,0.0,0.0,0.0,0.0,0.0,0.0,0.0,0.0,0.0,0.0718,0.0514,0.0456,0.0678,0.071,0.0841,0.0988,0.122,0.1208,0.0,0.0,0.0,0.0,0.0,0.0,0.0,0.0,0.0,0.0,0.0,0.0,0.0,0.0,0.0,0.0,0.0,0.0,0.0,0.0,0.0,0.0,0.0,0.0,0.0,0.0,0.0,0.0,0.0,0.0,0.0,0.0,0.0,0.0,0.0,0.0,0.0,0.0,0.0,0.0,0.2303,0.2466,0.2599,0.0,0.0,0.0,0.0,0.0,0.0,0.3616,0.3725,0.0,0.0,0.0,0.0,0.0,0.0,0.0,0.0,0.0,0.0,0.0,0.0,0.0,0.0,0.0,0.0,0.0,0.0,0.0,0.0,0.0,0.0,0.0,0.0,0.0,0.0,0.0,0.0,0.0,0.0,0.0,0.0,0.0,0.0,0.0,0.0,0.0,0.0,0.0,0.0,0.0,0.0,0.0,0.0,0.0,0.0,0.0,0.0,0.0,0.0,0.0,0.0,0.0,0.0,0.0,0.0592,0.0317,0.0175,0.0308,0.0393,0.0525,0.0804,0.0871,0.0894,0.0,0.0,0.0,0.0,0.0,0.0,0.0,0.0,0.0,0.0,0.0,0.0,0.0,0.0,0.0,0.0,0.0,0.0,0.0,0.0,0.0,0.0,0.0,0.0,0.0,0.0,0.0,0.0,0.0,0.0,0.0,0.0,0.0,0.0,0.0,0.0,0.0,0.0,0.0,0.0,0.0,0.2465,0.26,0.2793,0.0,0.0,0.0,0.0,0.3586,0.3618,0.0,0.0,0.0,0.0,0.0,0.0,0.0,0.0,0.0,0.0,0.0,0.0,0.0,0.0,0.0,0.0,0.0,0.0,0.0,0.0,0.0,0.0,0.0,0.0,0.0,0.0,0.0,0.0,0.0,0.0,0.0,0.0,0.0,0.0,0.0,0.0,0.0,0.0,0.0,0.0,0.0,0.0,0.0,0.0,0.0,0.0,0.0,0.0,0.0,0.0,0.0,0.0,0.0,0.0,0.0,0.0,0.038,0.0548,0.0417,0.0062,0.0,0.0066,0.0124,0.0639,0.0841,0.0,0.0,0.0,0.0,0.0,0.0,0.0,0.0,0.0,0.0,0.0,0.0,0.0,0.0,0.0,0.0,0.0,0.0,0.0,0.0,0.0,0.0,0.0,0.0,0.0,0.0,0.0,0.0,0.0,0.0,0.0,0.0,0.0,0.0,0.0,0.0,0.0,0.0,0.0,0.0,0.0,0.2491,0.2736,0.2674,0.2627,0.0,0.0,0.3269,0.3254,0.349,0.0,0.0,0.0,0.0,0.0,0.0,0.0,0.0,0.0,0.0,0.0,0.0,0.0,0.0,0.0,0.0,0.0,0.0,0.0,0.0,0.0,0.0,0.0,0.0,0.0,0.0,0.0,0.0,0.0,0.0,0.0,0.0,0.0,0.0,0.0,0.0,0.0,0.0,0.0,0.0,0.0,0.0,0.0,0.0,0.0,0.0,0.0,0.0,0.0,0.0,0.0,0.0,0.0,0.0,0.0,0.0567,0.0443,0.0334,0.0181,0.0,0.0,0.0,0.0,0.0239,0.0488,0.0,0.0,0.0,0.0,0.0,0.0,0.0,0.0,0.0,0.0,0.0,0.0,0.0,0.0,0.0,0.0,0.0,0.0,0.0,0.0,0.0,0.0,0.0,0.0,0.0,0.0,0.0,0.0,0.0,0.0,0.0,0.0,0.0,0.0,0.0,0.0,0.0,0.0,0.0,0.0,0.0,0.0,0.26,0.2683,0.0,0.0,0.0,0.3366,0.3514,0.0,0.0,0.0,0.0,0.0,0.0,0.0,0.0,0.0,0.0,0.0,0.0,0.0,0.0,0.0,0.0,0.0,0.0,0.0,0.0,0.0,0.0,0.0,0.0,0.0,0.0,0.0,0.0,0.0,0.0,0.0,0.0,0.0,0.0,0.0,0.0,0.0,0.0,0.0,0.0,0.0,0.0,0.0,0.0,0.0,0.0,0.0,0.0,0.0,0.0,0.0,0.0,0.0,0.0,0.0,0.0,0.0,0.0562,0.017,0.0,0.0,0.0,0.0,0.0,0.0,0.0,0.0,0.0,0.0,0.0,0.0,0.0,0.0,0.0,0.0,0.0,0.0,0.0,0.0,0.0,0.0,0.0,0.0,0.0,0.0,0.0,0.0,0.0,0.0,0.0,0.0,0.0,-0.0151,0.0,0.0,0.0,0.0,0.0,0.0,0.0,0.0,0.0,0.0,0.0,0.0,0.0,0.0,0.2173,0.2384,0.2614,0.283,0.0,0.0,0.3334,0.3627,0.3539,0.3534,0.0,0.0,0.0,0.0,0.0,0.0,0.0,0.0,0.0,0.0,0.0,0.0,0.0,0.0,0.0,0.0,0.0,0.0,0.0,0.0,0.0,0.0,0.0,0.0,0.0,0.0,0.0,0.0,0.0,0.0,0.0,0.0,0.0,0.0,0.0,0.0,0.0,0.0,0.0,0.0,0.0,0.0,0.0,0.0,0.0,0.0,0.0,0.0,0.0,0.0,0.0,0.0,0.0,0.0,0.0427,0.069,0.0235,0.0,0.0,0.0,0.0,0.0,0.0,0.0225,0.0,0.0,0.0,0.0,0.0,0.0,0.0,0.0,0.0,0.0,0.0,0.0,0.0,0.0,0.0,0.0,0.0,0.0,0.0,0.0,0.0,0.0,0.0,0.0,0.0,0.0,0.0,0.0,0.0,0.0,0.0,0.0,0.0,0.0,0.0,0.0,0.0,0.0,0.0,0.0,0.0,0.1988,0.2211,0.2346,0.2503,0.0,0.0,0.314,0.324,0.3348,0.3407,0.3315,0.0,0.0,0.0,0.0,0.0,0.0,0.0,0.0,0.0,0.0,0.0,0.0,0.0,0.0,0.0,0.0,0.0,0.0,0.0,0.0,0.0,0.0,0.0,0.0,0.0,0.0,0.0,0.0,0.0,0.0,0.0,0.0,0.0,0.0,0.0,0.0,0.0,0.0,0.0,0.0,0.0,0.0,0.0,0.0,0.0,0.0,0.0,0.0,0.0,0.0,0.0,0.0,0.0,0.029,0.0274,0.0121,0.0,0.0,0.0,0.0,0.0,0.0,0.0122,0.0,0.0,0.0,0.0,0.0,0.0,0.0,0.0,0.0,0.0,0.0,0.0,0.0,0.0,0.0,0.0,0.0,0.0,0.0,0.0,0.0,0.0,0.0,0.0,0.0,0.0,0.0,0.0,-0.0271,-0.0276,-0.0353,0.0,0.0,0.0,0.0,0.0,0.0,0.0,0.0,0.0,0.0,0.1623,0.1868,0.2029,0.0,0.0,0.2642,0.2863,0.2989,0.3136,0.3218,0.3195,0.3055,0.0,0.0,0.0,0.0,0.0,0.0,0.0,0.0,0.0,0.0,0.0,0.0,0.0,0.0,0.0,0.0,0.0,0.0,0.0,0.0,0.0,0.0,0.0,0.0,0.0,0.0,0.0,0.0,0.0,0.0,0.0,0.0,0.0,0.0,0.0,0.0,0.0,0.0,0.0,0.0,0.0,0.0,0.0,0.0,0.0,0.0,0.0,0.0,0.0,0.0,0.0,0.0,0.0194,0.0,0.0,0.0,0.0,0.0,0.0,0.0,0.0,0.0,0.0,0.0,0.0,0.0,0.0,0.0,0.0,0.0,0.0,0.0,0.0,0.0,0.0,0.0,0.0,0.0,0.0,0.0,0.0,0.0,0.0,0.0,0.0,0.0,0.0,0.0,0.0,0.0,-0.0309,-0.0357,-0.0402,0.0,0.0,0.0,0.0,0.0,0.0,0.0,0.0,0.0,0.0,0.129,0.15,0.1696,0.1873,0.2056,0.2308,0.2567,0.2811,0.288,0.2879,0.2934,0.0,0.0,0.0,0.0,0.0,0.0,0.0,0.0,0.0,0.0,0.0,0.0,0.0,0.0,0.0,0.0,0.0,0.0,0.0,0.0,0.0,0.0,0.0,0.0,0.0,0.0,0.0,0.0,0.0,0.0,0.3847,0.0,0.0,0.0,0.0,0.0,0.0,0.0,0.0,0.0,0.0,0.0,0.0,0.0,0.0,0.0,0.0,0.0,0.0,0.0,0.0,0.0,0.0,0.0195,0.0,0.0,0.0,0.0,0.0,0.0,0.0,0.0,0.0,0.0,0.0,0.0,0.0,0.0,0.0,0.0,0.0,0.0,0.0,0.0,0.0,0.0,0.0,0.0,0.0,0.0,0.0,0.0,0.0,0.0,0.0,0.0,0.0,0.0,0.0,0.0,-0.0313,-0.0362,-0.0405,0.0,0.0,0.0,0.0,0.0,0.0,0.0,0.0,0.0,0.0,0.1026,0.1118,0.1121,0.1233,0.1489,0.1827,0.1967,0.2131,0.2538,0.2516,0.2434,0.0,0.0,0.0,0.0,0.0,0.0,0.0,0.0,0.0,0.0,0.0,0.0,0.0,0.0,0.0,0.0,0.0,0.0,0.0,0.0,0.0,0.0,0.0,0.0,0.0,0.0,0.0,0.5325,0.5213,0.0,0.0,0.0,0.0,0.0,0.0,0.0,0.0,0.0,0.0,0.0,0.3341,0.3343,0.0,0.0,0.0,0.0,0.0,0.0,0.0,0.0,0.0,0.0,0.0,0.0,0.0207,0.0,0.0,0.0,0.0,0.0,0.0,0.0,0.0,0.0,0.0,0.0,0.0,0.0,0.0,0.0,0.0,0.0,0.0,0.0,0.0,0.0,0.0,0.0,0.0,0.0,0.0,0.0,0.0,0.0,0.0,0.0,0.0,0.0,0.0,0.0,-0.0436,0.0,0.0,0.0,0.0,0.0,0.0,0.0,0.0,0.0,0.0,0.0,0.0461,0.0568,0.0599,0.0741,0.1011,0.1018,0.1146,0.0,0.0,0.0,0.0,0.0,0.0,0.0,0.0,0.0,0.0,0.0,0.0,0.0,0.0,0.1613,0.1491,0.1442,0.1384,0.1385,0.0,0.0,0.0,0.0,0.0,0.0,0.0,0.0,0.0,0.0,0.0,0.0,0.0,0.0,0.6023,0.0,0.543,0.0,0.0,0.0,0.0,0.0,0.0,0.0,0.0,0.388,0.3858,0.3829,0.3873,0.369,0.0,0.3234,0.2882,0.0,0.0,0.0,0.0,0.0,0.0,0.0,0.0,0.0271,0.0,0.0,0.0,0.0,0.0,0.0,0.0,0.0,0.0,0.0,0.0,0.0,0.0,0.0,0.0,0.0,0.0,0.0,0.0,0.0,0.0,0.0,0.0,0.0,0.0,0.0,0.0,0.0,0.0,0.0,0.0,0.0,0.0,0.0,0.0,-0.0614,0.0,0.0,0.0,0.0,0.0,0.0,0.0,0.0,0.0,-0.0041,0.0135,0.02,0.0277,0.0288,0.0357,0.062,0.0,0.0,0.0,0.0,0.0,0.0,0.0,0.1747,0.173,0.1637,0.1614,0.1615,0.159,0.1542,0.1325,0.0,0.0,0.1297,0.1315,0.1267,0.1267,0.1169,0.1121,0.1121,0.1024,0.0895,0.0,0.0,0.0,0.0,0.0,0.0,0.0,0.0,0.6919,0.6747,0.0,0.584,0.0,0.0,0.0,0.0,0.0,0.4446,0.0,0.0,0.4436,0.4388,0.4333,0.4317,0.4183,0.4001,0.37,0.3404,0.304,0.2341,0.0,0.0,0.0,0.0,0.0,0.0,0.045,0.0,0.0,0.0,0.0,0.0,0.0,0.0,0.0,0.0,0.0,0.0,0.0,0.0,0.0,0.0,0.0,0.0,0.0,0.0,0.0,0.0,0.0,0.0,0.0,0.0,0.0,0.0,0.0,0.0,0.0,0.0,0.0,0.0,0.0,-0.0736,0.0,0.0,0.0,0.0,0.0,0.0,0.0,0.0,0.0,0.0,-0.0091,-0.0,0.0,0.0,0.0,0.0,0.0,0.0,0.1076,0.1076,0.1078,0.1202,0.1431,0.1489,0.1476,0.1376,0.0,0.0,0.1364,0.149,0.1459,0.1138,0.1229,0.1341,0.1263,0.124,0.1234,0.1178,0.112,0.1181,0.1181,0.0952,0.0738,1.0032,0.0,0.0,0.0,0.0,0.8195,0.8021,0.7878,0.7639,0.736,0.7035,0.6464,0.0,0.0,0.0,0.0,0.0,0.0,0.4955,0.5055,0.5036,0.5061,0.499,0.4889,0.4678,0.4493,0.4175,0.3865,0.3363,0.2917,0.2467,0.2034,0.0,0.0,0.0,0.0,0.0614,0.0329,0.014,0.0,0.0,0.0,0.0,0.0,0.0,0.0,0.0,0.0,0.0,0.0,0.0,0.0,0.0,0.0,0.0,0.0,0.0,0.0,0.0,0.0,0.0,0.0,0.0,0.0,0.0,0.0,0.0,0.0,0.0,0.0,-0.1152,-0.122,-0.1265,0.0,0.0,0.0,0.0,0.0,0.0,0.0,0.0,0.0,-0.0655,-0.0275,0.0,0.0,0.0,0.0,0.0,0.0201,0.0408,0.0628,0.0919,0.0,0.0,0.1198,0.1194,0.1187,0.1186,0.117,0.119,0.0951,0.07,0.0356,0.0564,0.0831,0.1089,0.0891,0.0665,0.0601,0.0601,0.0601,0.0602,0.0734,0.0877,1.1618,1.0821,1.027,0.9781,0.9412,0.9121,0.8909,0.8738,0.8344,0.7988,0.755,0.7007,0.662,0.6316,0.5952,0.0,0.0,0.0,0.5511,0.5548,0.559,0.5615,0.5617,0.5472,0.5217,0.509,0.4751,0.4346,0.3956,0.3481,0.2992,0.2516,0.0,0.0,0.1403,0.1056,0.072,0.0411,0.0144,0.0,0.0,0.0,0.0,0.0,0.0,0.0,0.0,0.0,0.0,0.0,-0.0231,-0.0531,0.0,0.0,0.0,0.0,0.0,0.0,0.0,0.0,0.0,0.0,0.0,-0.0462,-0.0523,0.0,0.0,0.0,-0.1145,-0.1423,-0.1698,-0.1769,0.0,0.0,0.0,0.0,0.0,0.0,0.0,-0.1319,-0.1246,-0.1087,-0.0985,-0.0674,-0.0309,0.0,0.0,0.0,0.0,0.0,0.0072,0.0296,0.0591,0.0882,0.0875,0.0874,0.0874,0.0874,0.0874,0.0938,0.1051,0.0857,0.0587,0.0149,0.0296,0.0656,0.102,0.0898,0.0596,0.0265,0.0265,0.0265,0.0265,0.0402,0.0546,1.2928,1.2811,1.1333,1.051,1.0128,0.9939,0.9675,0.9385,0.914,0.8656,0.7864,0.7462,0.7003,0.6479,0.6037,0.0,0.5867,0.6011,0.6086,0.6091,0.6212,0.6257,0.6257,0.6006,0.5863,0.5746,0.5225,0.4875,0.4683,0.3942,0.3456,0.3085,0.2212,0.1687,0.1504,0.1189,0.0825,0.0423,0.0148,0.0,0.0,0.0,0.0,0.0,0.0,0.0,0.0,0.0,0.0,0.0,-0.0607,-0.1007,-0.1282,0.0,0.0,0.0,0.0,0.0,0.0,0.0,0.0,0.0,0.0,0.0,0.0,0.0,0.0,-0.1318,-0.1769,0.0,-0.2239,-0.2326,0.0,0.0,0.0,-0.1947,-0.1462,-0.1634,-0.184,-0.2034,0.0,0.0,-0.1139,-0.1087,-0.0885,-0.0204,-0.0068,0.0,0.0,0.0,-0.0,-0.0156,0.0153,0.0374,0.0369,0.0368,0.0368,0.0368,0.044,0.0515,0.088,0.0881,0.0674,-0.0,0.0151,0.0588,0.0954,0.0953,0.0807,0.0146,0.0,0.0,0.0,0.0,0.0,1.3459,1.3325,1.2609,1.1992,1.1461,1.1057,1.0572,1.0074,0.9637,0.9152,0.8471,0.8188,0.7745,0.7099,0.6557,0.6421,0.65,0.6376,0.6476,0.6539,0.6532,0.6569,0.6565,0.6397,0.6292,0.6172,0.5882,0.543,0.4999,0.453,0.4063,0.3389,0.269,0.2153,0.1639,0.1268,0.087,0.052,0.015,0.0,0.0,0.0,0.0,0.0,0.0,0.0,0.0,0.0,0.0,0.0,-0.0657,-0.1114,-0.1281,-0.1244,0.0,0.0,0.0,0.0,0.0,0.0,0.0,0.0,0.0,-0.0937,-0.1061,0.0,-0.1588,0.0,-0.2258,-0.2665,-0.2782,-0.2949,0.0,0.0,-0.2837,-0.259,-0.2171,-0.2338,-0.2412,-0.2215,-0.2088,-0.1806,-0.1492,-0.1238,-0.1107,-0.0959,-0.0367,0.0,0.0,0.0,-0.0236,-0.0786,-0.0938,-0.0775,-0.0386,-0.0309,-0.0309,-0.0309,-0.0386,-0.0232,0.0154,0.0,-0.0388,-0.0784,-0.0389,0.0077,0.0231,0.0232,0.0231,0.0,0.0,0.0,0.0,0.0,0.0,1.4229,1.4202,1.3664,1.3208,1.2773,1.2034,1.1362,1.0712,1.031,0.9716,0.8879,0.8222,0.7726,0.7381,0.6809,0.6659,0.6661,0.6647,0.6722,0.6803,0.6868,0.6895,0.6892,0.6743,0.6632,0.6622,0.6312,0.5928,0.5401,0.5098,0.4469,0.3764,0.3236,0.2616,0.192,0.1407,0.1046,0.0833,0.0306,0.0,0.0,0.0,0.0,0.0,0.0,0.0,0.0,0.0,0.0,0.0,-0.055,-0.0917,-0.1225,-0.1321,-0.1321,0.0,0.0,0.0,0.0,0.0,0.0,0.0,0.0,0.0,0.0,0.0,-0.226,-0.2528,-0.2948,-0.3185,-0.3286,-0.3407,-0.3523,-0.3515,-0.3458,-0.3278,-0.2894,-0.2961,-0.2979,-0.2815,-0.2487,-0.2195,-0.1917,-0.1652,-0.1452,-0.148,-0.109,-0.0617,-0.0152,-0.0313,-0.0804,-0.1215,-0.1703,-0.1703,-0.1055,-0.0892,-0.0973,-0.1217,-0.1297,-0.1128,-0.0711,-0.072,-0.0967,-0.1185,-0.0872,-0.0477,-0.0315,-0.0079,0.0,0.0,0.0,0.0,0.0,0.0,0.0,1.506,1.4937,1.4507,1.4132,1.373,1.288,1.2058,1.1293,1.0807,1.01,0.9235,0.7991,0.7511,0.7431,0.701,0.6756,0.6763,0.6895,0.6956,0.6959,0.7082,0.7139,0.7132,0.7014,0.6956,0.6863,0.6628,0.6325,0.5963,0.5459,0.4916,0.4198,0.3716,0.3084,0.2293,0.163,0.1225,0.1142,0.0389,0.0,0.0,0.0,0.0,0.0,0.0,0.0,0.0,0.0,0.0,0.0,-0.0355,-0.0682,-0.108,-0.1318,-0.14,0.0,-0.1684,0.0,0.0,0.0,0.0,0.0,0.0,0.0,0.0,-0.2527,-0.2967,-0.3426,-0.3597,-0.3711,-0.3804,-0.389,-0.4006,-0.3975,-0.3988,-0.3885,-0.368,-0.3574,-0.3562,-0.352,-0.2941,-0.2597,-0.2436,-0.2144,-0.1955,-0.1941,-0.1873,-0.1536,-0.0638,-0.0891,-0.1327,-0.1438,-0.2284,-0.2347,-0.1677,-0.1428,-0.1596,-0.202,-0.21,-0.1994,-0.144,-0.1393,-0.1416,-0.1458,-0.138,-0.1217,-0.0795,-0.0397,-0.0159,0.0,0.0,0.0,0.0,0.0,0.0,1.506,1.4957,1.4903,1.4602,1.411,1.3698,1.2825,1.1605,1.1139,1.0269,0.9287,0.838,0.7933,0.7759,0.7232,0.7058,0.7058,0.7088,0.7014,0.7099,0.7037,0.7139,0.7139,0.7112,0.7099,0.7092,0.687,0.6698,0.6492,0.5877,0.5399,0.4886,0.4062,0.3321,0.2657,0.0,0.0,0.0,0.0235,0.0,0.0,0.0,0.0,0.0,0.0,0.0,0.0,0.0,0.0,0.0,-0.0373,0.0,0.0,0.0,0.0,0.0,0.0,0.0,0.0,0.0,0.0,0.0,-0.2893,-0.2722,-0.2689,-0.3203,-0.3628,-0.3781,-0.4093,-0.4344,-0.4365,-0.4458,-0.4526,-0.4548,-0.455,-0.4539,-0.4453,-0.4296,-0.4113,-0.377,-0.3635,-0.3357,-0.2956,-0.2852,-0.2808,-0.2668,-0.2591,-0.2337,-0.1828,-0.1502,-0.153,-0.193,-0.2415,-0.2445,-0.2271,-0.219,-0.2197,-0.2356,-0.2356,-0.2265,-0.2084,-0.2088,-0.2136,-0.2077,-0.1879,-0.1586,-0.1244,-0.108,-0.0907,-0.0568,-0.0485,-0.0402,0.0,0.0,0.0,1.5391,0.0,1.5237,1.4897,0.0,1.4129,1.3312,1.2198,1.1429,1.0467,0.9257,0.8548,0.8116,0.7856,0.7319,0.7139,0.7139,0.7139,0.7139,0.7139,0.7139,0.7139,0.7139,0.7139,0.7139,0.7139,0.6981,0.691,0.6576,0.6166,0.5678,0.5116,0.4279,0.3528,0.2857,0.2019,0.1331,0.0651,0.0163,0.0,0.0,0.0,0.0,0.0,0.0,0.0,0.0,0.0,0.0,0.0,0.0,0.0,0.0,0.0,0.0,-0.1517,-0.1817,-0.2043,-0.2041,-0.232,-0.2688,-0.3057,-0.3069,-0.3081,-0.3147,-0.3585,-0.3855,-0.3961,-0.4144,-0.4278,-0.4425,-0.4477,-0.4535,-0.4735,-0.4795,-0.4833,-0.4841,-0.4783,-0.4734,-0.4593,-0.4299,-0.3995,-0.3712,-0.3582,-0.3542,-0.3495,-0.3502,-0.3345,-0.2856,-0.2149,-0.199,-0.3034,-0.3092,-0.3042,-0.2953,-0.2953,-0.3038,-0.3041,-0.2954,-0.2953,-0.2865,-0.2865,-0.2801,-0.2854,-0.2552,-0.2246,-0.1943,-0.1683,-0.1509,-0.1245,-0.1076,-0.0908,-0.0651,-0.0479,-0.0314,1.5825,1.5805,1.5571,1.5186,1.4701,1.4324,1.3544,1.2472,0.0,0.0,0.0,0.8552,0.8116,0.7856,0.7319,0.7139,0.7139,0.7139,0.7139,0.7139,0.7139,0.7139,0.7139,0.7139,0.7139,0.7139,0.7139,0.6987,0.6704,0.6445,0.5961,0.5268,0.4498,0.3735,0.2889,0.1873,0.1108,0.0596,0.0254,0.0,0.0,0.0,0.0,0.0,0.0,0.0,0.0,0.0,0.0,0.0,0.0,-0.0309,-0.1003,-0.1207,-0.1254,-0.13,-0.1795,-0.2018,-0.2016,-0.2363,-0.2617,-0.289,-0.2986,-0.3171,-0.3486,-0.3703,-0.39,-0.3928,-0.3952,-0.404,-0.4261,-0.4341,-0.4448,-0.477,-0.4943,-0.5001,-0.5091,-0.5078,-0.528,-0.5417,-0.4987,-0.4557,-0.4557,-0.4411,-0.4355,-0.4428,-0.4448,-0.4297,-0.3826,-0.3172,-0.3158,-0.4107,-0.4018,-0.3758,-0.3764,-0.3757,-0.3765,-0.3751,-0.3757,-0.3765,-0.3765,-0.3674,-0.3585,-0.3849,-0.3405,-0.3002,-0.2661,-0.2389,-0.2123,-0.203,-0.1777,-0.1523,-0.1429,-0.1145,-0.0876,1.5825,1.5825,1.5596,1.5298,1.5,1.4247,1.3067,1.1472,1.0955,1.0214,0.9262,0.8552,0.8116,0.7856,0.7319,0.7139,0.7139,0.7139,0.7139,0.0,0.7139,0.7139,0.7139,0.7139,0.7139,0.7139,0.7139,0.7129,0.7021,0.658,0.6219,0.5849,0.5058,0.3907,0.258,0.1779,0.1156,0.0711,0.0257,0.0,0.0,0.0,0.0,0.0,0.0,0.0,0.0,0.0,0.0,0.0,0.0,-0.0083,0.0,-0.0893,-0.1281,-0.1276,-0.1488,-0.1693,-0.1979,-0.222,-0.2491,-0.2878,-0.2775,-0.2893,-0.3321,-0.3587,-0.3744,-0.3832,-0.3816,-0.4041,-0.4285,-0.4267,-0.4431,-0.4871,-0.4979,-0.5074,-0.5311,-0.5352,-0.5622,-0.615,-0.5578,-0.5092,-0.5097,-0.5167,-0.5217,-0.5247,-0.5326,-0.5343,-0.4903,-0.4727,-0.4639,-0.4837,-0.475,-0.4572,-0.4569,-0.4569,-0.4569,-0.4569,-0.4572,-0.4656,-0.4746,-0.4476,-0.4387,-0.4743,-0.421,-0.3664,-0.3457,-0.32,-0.299,-0.2775,-0.2508,-0.2326,-0.229,-0.201,-0.1821,1.5825,1.573,1.5547,1.5261,1.4777,1.379,1.2641,1.148,1.0827,0.9958,0.9068,0.8524,0.8116,0.7683,0.7234,0.7139,0.7139,0.7139,0.7139,0.7139,0.7139,0.7183,0.7261,0.7265,0.7309,0.738,0.7302,0.7265,0.7168,0.6646,0.6343,0.5994,0.4832,0.3674,0.2513,0.2064,0.1436,0.0717,0.0264,0.0,0.0,0.0,0.0,0.0,0.0,0.0,0.0,0.0,0.0,0.0,0.0,0.0,0.0,-0.0417,-0.0829,-0.1244,-0.1314,-0.1475,-0.1568,-0.1734,-0.2066,-0.2651,-0.2424,-0.2256,-0.2294,-0.2772,-0.3112,-0.3142,-0.3345,-0.353,-0.3777,-0.3946,-0.4285,-0.4617,-0.492,-0.5186,-0.5398,-0.5667,-0.5956,-0.6316,-0.6113,-0.5903,-0.5815,-0.5954,-0.5991,-0.5991,-0.6074,-0.5983,-0.5802,-0.5983,-0.5991,-0.5822,-0.5638,-0.546,-0.546,-0.546,-0.546,-0.546,-0.5463,-0.5549,-0.5636,-0.528,-0.5191,-0.5277,-0.5015,-0.4661,-0.4302,-0.4121,-0.3922,-0.3636,-0.3356,-0.3164,-0.3054,-0.2937,-0.2718,1.5737,1.573,1.5452,1.4975,1.4208,1.3147,1.2164,1.1431,1.0656,0.9703,0.8778,0.8539,0.8155,0.756,0.7282,0.7101,0.7101,0.7101,0.721,0.7241,0.7244,0.7309,0.7414,0.7424,0.7485,0.7577,0.7478,0.7407,0.736,0.6799,0.6284,0.573,0.4563,0.3494,0.2602,0.2333,0.1705,0.0718,0.0269,0.0,0.0,0.0,0.0,0.0,0.0,0.0,0.0,0.0,0.0,0.0,0.0,0.0,0.0,0.0,-0.0342,-0.1026,-0.1196,-0.1202,-0.1301,-0.1389,-0.1641,-0.2222,-0.2048,-0.1719,-0.1482,-0.1983,-0.2391,-0.2476,-0.2736,-0.2906,-0.3248,-0.3587,-0.3923,-0.4263,-0.4837,-0.5292,-0.5573,-0.588,-0.6257,-0.6432,-0.6428,-0.6425,-0.6428,-0.652,-0.652,-0.652,-0.6605,-0.6605,-0.6609,-0.6874,-0.6881,-0.6618,-0.6349,-0.6169,-0.6169,-0.6171,-0.6171,-0.6169,-0.6171,-0.6171,-0.6171,-0.5997,-0.5905,-0.5899,-0.5905,-0.5641,-0.5104,-0.4926,-0.4746,-0.4556,-0.42,-0.3848,-0.3749,-0.38,-0.3563,1.5737,1.554,1.5267,1.4406,1.3244,1.237,1.1668,1.0867,0.9989,0.9299,0.8626,0.8385,0.8044,0.772,0.7437,0.7259,0.7161,0.7255,0.7421,0.7536,0.7556,0.7567,0.7577,0.7577,0.7587,0.7604,0.7587,0.7516,0.74,0.6898,0.6099,0.5198,0.4565,0.3762,0.2957,0.2422,0.1705,0.0718,0.0269,0.0,0.0,0.0,0.0,0.0,0.0,0.0,0.0,0.0,0.0,0.0,0.0,0.0,0.0,0.0,-0.0267,-0.0713,-0.0713,-0.0982,-0.134,-0.143,-0.1429,-0.1517,-0.1516,-0.1429,-0.1432,-0.1519,-0.1695,-0.2051,-0.223,-0.2488,-0.285,-0.3201,-0.3548,-0.416,-0.4707,-0.5257,-0.5954,-0.6065,-0.6346,-0.6962,-0.6697,-0.652,-0.67,-0.6802,-0.6802,-0.6986,-0.6969,-0.6982,-0.7009,-0.7064,-0.7153,-0.6972,-0.67,-0.6432,-0.6432,-0.634,-0.652,-0.6432,-0.6432,-0.6523,-0.6615,-0.6523,-0.634,-0.6435,-0.6432,-0.6257,-0.5902,-0.5638,-0.5371,-0.528,-0.4924,-0.4569,-0.43,-0.4465,-0.4333,1.5642,1.5445,1.507,1.4118,1.2953,1.2078,1.1389,1.0708,0.992,0.9288,0.8728,0.8463,0.8104,0.7602,0.7506,0.7409,0.7124,0.7409,0.7633,0.7792,0.7695,0.7645,0.7719,0.7726,0.7767,0.7841,0.777,0.7692,0.7516,0.7089,0.6207,0.5109,0.4565,0.3849,0.2957,0.2423,0.1705,0.0718,0.0269,0.0,0.0,0.0,0.0,0.0,0.0,0.0,0.0,0.0,0.0,0.0,0.0,0.0,0.0,0.0,-0.009,-0.0269,-0.0269,-0.0359,-0.0538,-0.0544,-0.0548,-0.0548,-0.0832,-0.1117,-0.1396,-0.1303,-0.1303,-0.1485,-0.1639,-0.1974,-0.2423,-0.2959,-0.3406,-0.403,-0.4652,-0.528,-0.5813,-0.6171,-0.652,-0.6962,-0.6962,-0.6877,-0.6979,-0.7045,-0.7182,-0.7261,-0.721,-0.7118,-0.7262,-0.7441,-0.7549,-0.751,-0.7382,-0.7238,-0.7058,-0.7231,-0.7231,-0.7319,-0.7319,-0.7323,-0.7323,-0.7051,-0.6874,-0.6877,-0.6789,-0.6609,-0.6343,-0.6169,-0.5988,-0.5899,-0.5813,-0.546,-0.5186,-0.5369,-0.5343,1.5807,1.5486,1.4814,1.3831,1.2756,1.1964,1.1269,1.0757,0.9921,0.9199,0.8888,0.8453,0.8119,0.7733,0.7678,0.7462,0.7269,0.7557,0.778,0.8009,0.7818,0.7773,0.7868,0.7872,0.7933,0.8007,0.7926,0.7734,0.7545,0.7227,0.6297,0.5114,0.4565,0.3851,0.2957,0.2422,0.1705,0.0718,0.0,0.0,0.0,0.0,0.0,0.0,0.0,0.0,0.0,0.0,0.0,0.0,0.0,0.0,0.0,0.0,0.0,0.0,0.0,0.0,0.0,0.0,0.0,0.0,-0.0568,-0.1049,-0.1335,-0.1144,-0.1049,-0.1332,-0.1485,-0.1827,-0.2281,-0.2918,-0.3464,-0.4008,-0.4734,-0.5277,-0.5732,-0.6181,-0.6731,-0.7085,-0.7202,-0.7265,-0.7282,-0.7366,-0.7431,-0.7424,-0.735,-0.7322,-0.7536,-0.7845,-0.8165,-0.8165,-0.8151,-0.805,-0.7794,-0.7764,-0.794,-0.8028,-0.8028,-0.794,-0.7944,-0.7584,-0.7231,-0.7234,-0.7231,-0.7051,-0.6697,-0.6609,-0.6432,-0.6343,-0.6257,-0.608,-0.5897,-0.608,-0.6169,1.6124,1.5639,1.4439,1.3609,1.2915,1.1873,1.1263,1.0909,0.9634,0.9165,0.9034,0.8396,0.8031,0.7994,0.7858,0.7704,0.7604,0.7704,0.7872,0.7984,0.8001,0.8018,0.8028,0.8031,0.8028,0.8038,0.8021,0.768,0.7051,0.6999,0.6297,0.5015,0.4476,0.3851,0.2957,0.2422,0.1705,0.0718,0.0269,0.0,0.0,0.0,0.0,0.0,0.0,0.0,0.0,0.0,0.0,0.0,0.0,0.0,0.0,0.0,0.0,0.0,0.0,0.0,0.0,0.0,0.0,0.0,-0.0956,-0.1529,-0.1535,-0.1247,-0.1247,-0.2007,-0.2101,-0.2283,-0.2755,-0.3215,-0.3782,-0.4444,-0.5018,-0.5484,-0.5951,-0.6494,-0.691,-0.7272,-0.7439,-0.7526,-0.7553,-0.7584,-0.7587,-0.759,-0.7577,-0.7691,-0.7925,-0.839,-0.8752,-0.8769,-0.8838,-0.8842,-0.8379,-0.846,-0.8524,-0.8584,-0.8609,-0.8296,-0.8116,-0.8028,-0.7764,-0.7499,-0.7319,-0.7143,-0.7054,-0.6877,-0.67,-0.6612,-0.652,-0.6432,-0.6428,-0.634,-0.6428,1.5821,1.5095,1.4276,1.3459,1.2643,1.1817,1.12,1.0863,0.9863,0.9384,0.9248,0.8603,0.8237,0.8233,0.798,0.7855,0.7855,0.7957,0.7987,0.8038,0.8038,0.8038,0.8038,0.8038,0.8038,0.8038,0.8035,0.7593,0.696,0.6979,0.6288,0.5034,0.4204,0.3492,0.2868,0.2332,0.1615,0.0718,0.0269,0.0,0.0,0.0,0.0,0.0,0.0,0.0,0.0,0.0,0.0,0.0,0.0,0.0,0.0,-0.0637,-0.1017,-0.1035,-0.0755,-0.0377,-0.0094,-0.0288,-0.0679,-0.0968,-0.0981,-0.1285,-0.1583,-0.1683,-0.1881,-0.2374,-0.2671,-0.3066,-0.3638,-0.3773,-0.4093,-0.4757,-0.5424,-0.5902,-0.6267,-0.6741,-0.7218,-0.7506,-0.7597,-0.7597,-0.7634,-0.7678,-0.7733,-0.7746,-0.8011,-0.8247,-0.8348,-0.8952,-0.9368,-0.9275,-0.9533,-0.9877,-0.9857,-0.9631,-0.9604,-0.9575,-0.9518,-0.9354,-0.9147,-0.8572,-0.83,-0.8116,-0.7672,-0.7319,-0.7234,-0.7054,-0.6877,-0.6877,-0.6786,-0.6786,-0.6874,-0.6782,-0.6786,1.5978,1.5148,1.4418,1.369,1.286,1.2126,1.1599,1.1247,1.0182,0.9772,0.9528,0.8825,0.8432,0.8333,0.8137,0.8038,0.8038,0.8038,0.8038,0.8038,0.8038,0.8038,0.8038,0.8038,0.8038,0.8038,0.8038,0.769,0.7061,0.6935,0.6236,0.5112,0.4113,0.3401,0.2867,0.2242,0.1525,0.0897,0.0359,0.0,0.0,0.0,0.0,0.0,0.0,0.0,0.0,0.0,0.0,0.0,-0.036,-0.0541,0.0,-0.1017,-0.1415,-0.1536,-0.1252,-0.0866,-0.0674,-0.1175,-0.178,-0.2072,-0.1698,-0.1615,-0.1919,-0.2222,-0.2524,-0.2827,-0.3229,-0.3732,-0.4316,-0.453,-0.4846,-0.5425,-0.5909,-0.6294,-0.6675,-0.7068,-0.7459,-0.7664,-0.7763,-0.7753,-0.7753,-0.7831,-0.7875,-0.7979,-0.8379,-0.8531,-0.8905,-0.9502,-1.0066,-1.0,-1.0505,-1.1014,-1.1239,-1.1239,-1.0876,-1.0822,-1.0452,-1.0272,-0.9902,-0.9314,-0.8828,-0.8644,-0.8292,-0.7764,-0.7411,-0.7231,-0.7143,-0.7139,-0.7051,-0.6962,-0.7051,-0.7051,-0.7051,1.6505,1.6062,1.5024,1.4234,1.3578,1.2704,1.22,1.1788,1.0712,1.0236,1.0083,0.897,0.8531,0.8336,0.8134,0.8038,0.8038,0.8038,0.8038,0.8038,0.8038,0.8038,0.8038,0.8038,0.8038,0.8038,0.8038,0.7687,0.7227,0.7023,0.6429,0.5407,0.4204,0.3491,0.2956,0.2332,0.1795,0.1256,0.0538,0.0,0.0,0.0,0.0,0.0,0.0,0.0,0.0,0.0,0.0,0.0,-0.099,-0.1544,-0.1484,-0.1228,-0.1154,-0.1566,-0.1572,-0.1585,-0.1708,-0.2515,-0.292,-0.3021,-0.2826,-0.2523,-0.2624,-0.2826,-0.3027,-0.3331,-0.3732,-0.4234,-0.4834,-0.5418,-0.5907,-0.6329,-0.6396,-0.6694,-0.7105,-0.7428,-0.7736,-0.7908,-0.7991,-0.8028,-0.8028,-0.8007,-0.81,-0.8305,-0.8623,-0.8935,-0.9426,-1.0075,-1.0685,-1.117,-1.1497,-1.191,-1.2469,-1.2909,-1.2436,-1.1992,-1.1481,-1.1125,-1.0711,-1.0176,-0.9538,-0.9165,-0.8644,-0.8204,-0.7503,-0.7323,-0.7231,-0.7143,-0.7139,-0.7139,-0.7139,-0.7139,-0.7139,1.6418,1.5891,1.503,1.439,1.3954,1.3088,1.255,1.2177,1.1366,1.0781,1.0402,0.9581,0.9031,0.863,0.8432,0.8134,0.8038,0.8038,0.8038,0.8038,0.8038,0.8038,0.8038,0.8038,0.8038,0.8038,0.8038,0.7687,0.7357,0.7318,0.6805,0.5589,0.4565,0.3851,0.3317,0.2691,0.2064,0.1346,0.0807,0.0359,0.0,0.0,0.0,0.0,0.0,0.0,0.0,0.0,0.0,-0.0989,-0.1457,-0.177,-0.2014,-0.1941,-0.1965,-0.2295,-0.21,-0.2104,-0.2217,-0.2826,-0.3432,-0.3533,-0.3331,-0.3029,-0.3128,-0.343,-0.3731,-0.4034,-0.4539,-0.5138,-0.5737,-0.6137,-0.6337,-0.6437,-0.6939,-0.7138,-0.7238,-0.7637,-0.7842,-0.7939,-0.8038,-0.8038,-0.8237,-0.8333,-0.8432,-0.873,-0.9031,-0.943,-0.992,-1.0408,-1.0998,-1.1585,-1.217,-1.2754,-1.3136,-1.3624,-1.3576,-1.3162,-1.2662,-1.2015,-1.1663,-1.0984,-1.0343,-0.9602,-0.9082,-0.8468,-0.7856,-0.7415,-0.7323,-0.7143,-0.7139,-0.7139,-0.7139,-0.7139,-0.7139,1.6524,1.6099,1.525,1.4713,1.4277,1.363,1.3093,1.2488,1.1897,1.13,1.0707,0.9883,0.9324,0.8825,0.8531,0.8233,0.8038,0.8038,0.8038,0.8038,0.8038,0.8038,0.8038,0.8038,0.8038,0.8024,0.798,0.7734,0.7412,0.7449,0.7031,0.5841,0.5013,0.4212,0.3588,0.2871,0.2155,0.1436,0.0897,0.0449,0.0,0.0,0.0,0.0,0.0,0.0,0.0,-0.0359,-0.0902,-0.1459,-0.1772,-0.2013,-0.2451,-0.247,-0.2594,-0.2716,-0.252,-0.2418,-0.2725,-0.3632,-0.4236,-0.4433,-0.4133,-0.3833,-0.3833,-0.4234,-0.4537,-0.4836,-0.5338,-0.5839,-0.6439,-0.6739,-0.6839,-0.6839,-0.7244,-0.7543,-0.7537,-0.7736,-0.7939,-0.8038,-0.8035,-0.8233,-0.8333,-0.8634,-0.8832,-0.913,-0.9525,-1.0117,-1.0507,-1.09,-1.159,-1.2273,-1.2948,-1.3426,-1.3709,-1.4196,-1.4592,-1.4254,-1.3896,-1.3291,-1.275,-1.1833,-1.1084,-1.0038,-0.9345,-0.8819,-0.8116,-0.768,-0.7415,-0.7323,-0.7143,-0.7139,-0.7139,-0.7139,-0.7139,1.663,1.663,1.5797,1.5154,1.4606,1.4283,1.3614,1.2891,1.2211,1.1601,1.0883,1.0075,0.9324,0.8825,0.8528,0.8333,0.8038,0.8038,0.8038,0.8038,0.8038,0.8038,0.8038,0.8038,0.8038,0.8021,0.7896,0.7746,0.7597,0.7571,0.7128,0.6097,0.5282,0.4572,0.3765,0.2962,0.2243,0.1525,0.0987,0.0449,0.0,0.0,0.0,0.0,0.0,0.0,0.0,-0.0901,-0.1545,-0.1672,-0.1918,-0.2248,-0.2661,-0.28,-0.3025,-0.3331,-0.2821,-0.2922,-0.353,-0.4638,-0.5441,-0.5536,-0.5035,-0.4834,-0.4836,-0.5138,-0.5338,-0.5636,-0.6137,-0.6537,-0.6842,-0.7244,-0.7447,-0.7547,-0.7643,-0.7743,-0.7939,-0.8038,-0.8038,-0.8038,-0.8233,-0.8432,-0.8531,-0.8935,-0.9331,-0.9727,-1.0216,-1.0801,-1.1389,-1.1785,-1.2283,-1.298,-1.3881,-1.4268,-1.4576,-1.4688,-1.5077,-1.5026,-1.4684,-1.4223,-1.3477,-1.251,-1.1429,-1.0472,-0.9607,-0.9078,-0.8468,-0.794,-0.7591,-0.7415,-0.7323,-0.7143,-0.7139,-0.7139,-0.7139,1.643,1.6324,1.547,1.5041,1.4826,1.4401,1.3751,1.2931,1.2665,1.1732,1.0857,1.0423,0.962,0.8825,0.8726,0.8432,0.8137,0.8038,0.8038,0.8038,0.8038,0.8038,0.8038,0.8038,0.8038,0.8018,0.7872,0.774,0.76,0.7543,0.7121,0.6349,0.5458,0.4746,0.4032,0.3226,0.251,0.1974,0.1076,0.0449,0.0,0.0,0.0,0.0,0.0,0.0,0.0,-0.0911,-0.1668,-0.2175,-0.1929,-0.2166,-0.2997,-0.3521,-0.3934,-0.4034,-0.4131,-0.423,-0.4533,-0.5338,-0.5942,-0.6137,-0.5734,-0.5536,-0.5639,-0.5939,-0.6239,-0.6439,-0.6839,-0.7138,-0.7344,-0.7547,-0.7643,-0.7842,-0.7842,-0.7942,-0.7942,-0.8038,-0.8038,-0.8233,-0.8333,-0.8733,-0.9133,-0.943,-0.983,-1.0426,-1.0909,-1.1526,-1.2149,-1.2381,-1.2683,-1.3871,-1.4704,-1.5086,-1.5338,-1.5332,-1.5465,-1.5547,-1.5308,-1.4907,-1.3985,-1.2867,-1.1777,-1.0727,-1.0033,-0.9428,-0.8727,-0.8201,-0.7852,-0.7591,-0.7323,-0.7231,-0.7139,-0.7139,-0.7139,1.6105,1.6111,1.5357,1.4928,1.4809,1.4292,1.363,1.3031,1.2432,1.1628,1.0782,1.0203,0.962,0.8821,0.8726,0.8432,0.8038,0.8038,0.8038,0.8038,0.8038,0.8038,0.8038,0.8038,0.8038,0.8011,0.7821,0.7685,0.7573,0.7492,0.7065,0.6358,0.5453,0.4743,0.4208,0.3405,0.2689,0.2154,0.1256,0.0449,0.0,0.0,0.0,0.0,0.0,0.0,0.0,-0.0915,-0.1682,-0.2189,-0.2127,-0.246,-0.3419,-0.4135,-0.4636,-0.5039,-0.5338,-0.5334,-0.5336,-0.6039,-0.6539,-0.6637,-0.6437,-0.6337,-0.6439,-0.6639,-0.6839,-0.7144,-0.7244,-0.7441,-0.7643,-0.7743,-0.7842,-0.7942,-0.8038,-0.8038,-0.8038,-0.8233,-0.8333,-0.8432,-0.873,-0.9031,-0.9632,-0.9924,-1.0555,-1.118,-1.1536,-1.2423,-1.3221,-1.309,-1.3378,-1.466,-1.5594,-1.5995,-1.5973,-1.5881,-1.5704,-1.5856,-1.5431,-1.5173,-1.4482,-1.3254,-1.2152,-1.116,-1.0467,-0.9772,-0.9161,-0.8552,-0.8116,-0.7852,-0.7496,-0.7231,-0.7231,-0.7231,-0.7231,1.5785,1.5672,1.5148,1.4702,1.4421,1.4022,1.3367,1.271,1.1977,1.1299,1.0528,0.9892,0.9331,0.8825,0.8531,0.8233,0.8038,0.8038,0.8038,0.8038,0.8038,0.8038,0.8038,0.8038,0.8038,0.7994,0.7743,0.7628,0.7533,0.7312,0.6903,0.6254,0.5453,0.4743,0.4208,0.3405,0.269,0.2154,0.1166,0.0449,0.0,0.0,0.0,0.0,0.0,0.0,0.0,-0.0912,-0.1767,-0.2469,-0.2512,-0.3057,-0.4017,-0.4622,-0.5338,-0.5839,-0.6139,-0.6234,-0.6037,-0.6739,-0.7341,-0.7238,-0.7235,-0.7235,-0.7138,-0.7138,-0.7341,-0.7543,-0.7646,-0.7743,-0.7939,-0.7939,-0.7939,-0.8038,-0.8038,-0.8038,-0.8137,-0.8531,-0.8726,-0.863,-0.9229,-0.9529,-1.0048,-1.0654,-1.15,-1.2104,-1.2542,-1.3165,-1.3689,-1.3647,-1.4412,-1.567,-1.6445,-1.7048,-1.6779,-1.6269,-1.6162,-1.6059,-1.5411,-1.4987,-1.4694,-1.368,-1.2522,-1.1596,-1.0814,-1.0125,-0.9515,-0.899,-0.8448,-0.8116,-0.7764,-0.7496,-0.7319,-0.7499,-0.7499,1.4928,1.4815,1.4288,1.3853,1.3588,1.3303,1.2665,1.1948,1.1644,1.1007,1.0194,0.9739,0.9229,0.8825,0.8531,0.8237,0.8038,0.8038,0.8038,0.8038,0.8038,0.8038,0.8038,0.8038,0.8038,0.7967,0.774,0.7607,0.7526,0.7232,0.6884,0.6343,0.5453,0.4741,0.4208,0.3403,0.269,0.2153,0.1256,0.0449,0.0,0.0,0.0,0.0,0.0,0.0,0.0,-0.09,-0.2006,-0.2904,-0.32,-0.3555,-0.4546,-0.578,-0.6415,-0.6423,-0.6728,-0.6933,-0.6939,-0.7138,-0.7441,-0.7739,-0.7441,-0.7238,-0.754,-0.7543,-0.7643,-0.7842,-0.7942,-0.7942,-0.7939,-0.8038,-0.8038,-0.8041,-0.824,-0.8435,-0.8336,-0.8535,-0.8931,-0.9229,-0.9537,-0.997,-1.1007,-1.143,-1.2224,-1.2903,-1.3521,-1.3976,-1.4202,-1.4406,-1.5376,-1.6523,-1.6905,-1.7422,-1.7154,-1.6587,-1.6319,-1.6012,-1.5391,-1.497,-1.4761,-1.4018,-1.2819,-1.1854,-1.1165,-1.0458,-0.9798,-0.9183,-0.8545,-0.8241,-0.7998,-0.7781,-0.7668,-0.7796,-0.7872,1.373,1.362,1.3102,1.2825,1.2606,1.2289,1.1909,1.1405,1.0893,1.0311,0.9739,0.9327,0.8832,0.8627,0.8333,0.8137,0.8038,0.8038,0.8038,0.8038,0.8038,0.8038,0.8038,0.8038,0.8035,0.7991,0.7743,0.7614,0.7519,0.7232,0.6799,0.6257,0.5364,0.4741,0.4119,0.3314,0.269,0.2064,0.1256,0.0449,0.0,0.0,0.0,0.0,0.0,0.0,0.0,-0.0897,-0.2166,-0.3208,-0.367,-0.4043,-0.4835,-0.6139,-0.6781,-0.6836,-0.7045,-0.7384,-0.7512,-0.7637,-0.7736,-0.7939,-0.7739,-0.7743,-0.7743,-0.7743,-0.7842,-0.7939,-0.8038,-0.8038,-0.8038,-0.8038,-0.8038,-0.8237,-0.8336,-0.8531,-0.8733,-0.9133,-0.9335,-0.9747,-1.0198,-1.0875,-1.1568,-1.2299,-1.318,-1.3984,-1.397,-1.4451,-1.5847,-1.608,-1.6311,-1.71,-1.7344,-1.7488,-1.7301,-1.6894,-1.6346,-1.5919,-1.5364,-1.5077,-1.4923,-1.4005,-1.2997,-1.2151,-1.1315,-1.0655,-1.0013,-0.9321,-0.8756,-0.8361,-0.8175,-0.8037,-0.8041,-0.8009,-0.8159,1.2525,1.2427,1.1921,1.17,1.1644,1.118,1.0988,1.072,0.9991,0.9541,0.9327,0.873,0.8531,0.8333,0.8137,0.8038,0.8038,0.8038,0.8038,0.8038,0.8038,0.8038,0.8038,0.8038,0.8035,0.8004,0.7743,0.7611,0.7426,0.7138,0.6624,0.5994,0.5277,0.4563,0.3849,0.3224,0.2599,0.2154,0.1256,0.0449,0.0,0.0,0.0,0.0,0.0,0.0,0.0,-0.0987,-0.2064,-0.3496,-0.4037,-0.4476,-0.5127,-0.6032,-0.6859,-0.6981,-0.7298,-0.7576,-0.7783,-0.7892,-0.7858,-0.8014,-0.8004,-0.8018,-0.7928,-0.7942,-0.7942,-0.7939,-0.8038,-0.8038,-0.8038,-0.8038,-0.8237,-0.8333,-0.8432,-0.8733,-0.9133,-0.9846,-1.0186,-1.022,-1.0897,-1.1687,-1.2461,-1.3238,-1.4154,-1.4925,-1.4791,-1.51,-1.6403,-1.7246,-1.7265,-1.7337,-1.7542,-1.7328,-1.7114,-1.6954,-1.6426,-1.5805,-1.5284,-1.5117,-1.4917,-1.4135,-1.3143,-1.2265,-1.15,-1.0847,-1.0267,-0.9619,-0.9041,-0.8608,-0.8465,-0.8467,-0.8434,-0.8357,-0.8526,1.1714,1.161,1.1097,1.069,1.0548,1.0298,0.9899,0.9581,0.9347,0.9133,0.8924,0.8531,0.8333,0.8333,0.8137,0.8038,0.8038,0.8038,0.8038,0.8038,0.8038,0.8038,0.8038,0.8038,0.8035,0.796,0.775,0.7506,0.7243,0.6944,0.6361,0.5725,0.4832,0.4119,0.3585,0.296,0.2512,0.2154,0.1256,0.0538,0.0,0.0,0.0,0.0,0.0,0.0,0.0,-0.0897,-0.2062,-0.3497,-0.4037,-0.4504,-0.5077,-0.5986,-0.6554,-0.6907,-0.7253,-0.7637,-0.7909,-0.7807,-0.7838,-0.7936,-0.7919,-0.7926,-0.7991,-0.8031,-0.8021,-0.8038,-0.8038,-0.8038,-0.8038,-0.8137,-0.8336,-0.8535,-0.8947,-0.9339,-0.9458,-1.0349,-1.1395,-1.1595,-1.2117,-1.2643,-1.3362,-1.4079,-1.4984,-1.565,-1.5719,-1.5885,-1.6714,-1.7371,-1.7555,-1.7549,-1.7575,-1.7235,-1.6874,-1.6747,-1.6413,-1.5712,-1.5237,-1.5077,-1.4816,-1.4143,-1.3385,-1.2551,-1.1746,-1.104,-1.0444,-0.9907,-0.9428,-0.8944,-0.8914,-0.8973,-0.89,-0.8832,-0.9219,1.0294,1.0289,0.988,0.9625,0.9453,0.9446,0.9203,0.9038,0.8832,0.8733,0.8531,0.8333,0.8237,0.8137,0.8038,0.8038,0.8038,0.8038,0.8038,0.8038,0.8038,0.8038,0.7939,0.7939,0.7885,0.7693,0.7512,0.7308,0.7088,0.6472,0.6002,0.5458,0.4565,0.3851,0.3408,0.2962,0.2513,0.2064,0.1436,0.0718,0.0,0.0,0.0,0.0,0.0,0.0,0.0,-0.0897,-0.2062,-0.3408,-0.4486,-0.4928,-0.528,-0.5919,-0.6613,-0.6783,-0.7204,-0.7543,-0.7712,-0.7624,-0.7662,-0.7502,-0.7604,-0.7777,-0.7875,-0.7919,-0.7957,-0.8018,-0.8038,-0.8038,-0.8233,-0.8333,-0.8531,-0.9046,-0.959,-0.9896,-1.0211,-1.1395,-1.2332,-1.306,-1.3288,-1.3724,-1.4325,-1.5036,-1.5728,-1.6249,-1.6617,-1.6942,-1.7265,-1.7371,-1.7582,-1.7654,-1.7607,-1.7271,-1.6894,-1.6686,-1.6363,-1.5685,-1.517,-1.501,-1.4696,-1.4104,-1.3566,-1.2911,-1.2103,-1.1352,-1.0668,-1.01,-0.968,-0.9335,-0.9399,-0.939,-0.9385,-0.9468,-0.9759,0.9037,0.9033,0.8732,0.863,0.863,0.8532,0.8528,0.8532,0.8329,0.8224,0.8245,0.8072,0.7984,0.7997,0.8021,0.8038,0.8038,0.8038,0.8038,0.7942,0.7942,0.7939,0.7939,0.7822,0.7674,0.744,0.7009,0.7014,0.674,0.6184,0.5563,0.5013,0.4117,0.3492,0.305,0.2693,0.2424,0.1974,0.1615,0.0898,0.0,0.0,0.0,0.0,0.0,0.0,0.0,-0.0897,-0.2153,-0.3497,-0.4755,-0.5471,-0.528,-0.608,-0.6668,-0.6756,-0.7047,-0.7346,-0.7482,-0.754,-0.7369,-0.7316,-0.7433,-0.7624,-0.7743,-0.7814,-0.7865,-0.7967,-0.8031,-0.8134,-0.8333,-0.8531,-0.9053,-0.9598,-1.0167,-1.0632,-1.118,-1.2268,-1.3849,-1.435,-1.4439,-1.479,-1.5223,-1.5785,-1.6461,-1.6692,-1.7054,-1.7153,-1.7371,-1.7477,-1.7674,-1.7718,-1.7583,-1.7286,-1.6961,-1.667,-1.6217,-1.5541,-1.5154,-1.491,-1.4536,-1.3959,-1.3464,-1.287,-1.2529,-1.183,-1.1033,-1.0324,-1.0017,-0.9827,-0.9808,-0.9808,-0.9887,-0.9975,-1.0302,0.8494,0.8498,0.8215,0.8117,0.8033,0.7858,0.7753,0.776,0.7675,0.7651,0.7695,0.778,0.7741,0.7764,0.7868,0.7918,0.7922,0.7918,0.7912,0.7912,0.7733,0.7633,0.7637,0.7338,0.722,0.6891,0.6498,0.6213,0.6012,0.5692,0.5191,0.4476,0.3942,0.3318,0.2693,0.2423,0.1615,0.1077,0.1256,0.0898,0.0,0.0,0.0,0.0,0.0,0.0,0.0,-0.0897,-0.2063,-0.3497,-0.4935,-0.5382,-0.528,-0.6077,-0.6523,-0.6627,-0.6811,-0.7173,-0.72,-0.7238,-0.7302,-0.7275,-0.7407,-0.7485,-0.7597,-0.7733,-0.7801,-0.7828,-0.814,-0.8322,-0.8524,-0.9027,-0.9602,-1.0146,-1.0575,-1.1116,-1.1744,-1.3193,-1.4821,-1.5575,-1.5747,-1.5689,-1.5931,-1.6493,-1.7067,-1.7279,-1.7378,-1.7477,-1.7582,-1.7687,-1.7793,-1.7941,-1.7674,-1.736,-1.7032,-1.6751,-1.6197,-1.5513,-1.5122,-1.4858,-1.4362,-1.3824,-1.32,-1.2731,-1.246,-1.2094,-1.1307,-1.0732,-1.0432,-1.0254,-1.0273,-1.0306,-1.0374,-1.0588,-1.0807,0.7155,0.75,0.7406,0.7409,0.7312,0.7221,0.7221,0.7221,0.7224,0.7221,0.723,0.7276,0.7308,0.7334,0.7385,0.7395,0.7417,0.7482,0.7514,0.7543,0.7384,0.7294,0.714,0.6917,0.674,0.6192,0.5815,0.5359,0.5091,0.4954,0.4563,0.4117,0.3494,0.296,0.2424,0.2155,0.1705,0.1256,0.0808,0.0449,0.0,0.0,0.0,0.0,0.0,0.0,0.0,-0.0897,-0.2063,-0.3497,-0.4755,-0.5198,-0.528,-0.5897,-0.652,-0.6432,-0.6874,-0.7054,-0.7146,-0.7139,-0.7197,-0.7234,-0.7268,-0.7312,-0.7458,-0.7604,-0.7733,-0.7811,-0.8067,-0.8336,-0.8704,-0.9225,-1.0025,-1.0597,-1.1148,-1.172,-1.2658,-1.4316,-1.5641,-1.6362,-1.6955,-1.6743,-1.653,-1.6855,-1.7279,-1.7378,-1.7477,-1.7582,-1.7786,-1.8003,-1.8101,-1.8297,-1.7935,-1.7431,-1.7085,-1.6753,-1.6285,-1.5597,-1.513,-1.481,-1.4253,-1.3667,-1.3093,-1.2589,-1.23,-1.19,-1.1395,-1.1046,-1.068,-1.0674,-1.0742,-1.0765,-1.0801,-1.1174,-1.1459,0.5737,0.6273,0.6461,0.6647,0.6554,0.6551,0.6641,0.6644,0.6542,0.6548,0.6659,0.668,0.681,0.6938,0.6954,0.6969,0.6859,0.6945,0.6879,0.693,0.6775,0.6675,0.6432,0.6296,0.5921,0.5356,0.5007,0.4576,0.4242,0.3941,0.3762,0.3669,0.3047,0.2601,0.2333,0.1974,0.1615,0.0898,0.0359,0.0,0.0,0.0,0.0,0.0,0.0,-0.0269,-0.0179,-0.0897,-0.2063,-0.3497,-0.4484,-0.502,-0.528,-0.5899,-0.6432,-0.6609,-0.6874,-0.7051,-0.7139,-0.7139,-0.7139,-0.7139,-0.7146,-0.721,-0.7299,-0.7455,-0.766,-0.7753,-0.8186,-0.8556,-0.8935,-0.9579,-1.0414,-1.1271,-1.1933,-1.2505,-1.3304,-1.4931,-1.6206,-1.6909,-1.7272,-1.7279,-1.7173,-1.7279,-1.7378,-1.7582,-1.7681,-1.7681,-1.7989,-1.8297,-1.8736,-1.902,-1.8455,-1.8067,-1.7793,-1.723,-1.6593,-1.5789,-1.5318,-1.4767,-1.4264,-1.3682,-1.3104,-1.2652,-1.2164,-1.1906,-1.1624,-1.1338,-1.1053,-1.0867,-1.0842,-1.0969,-1.12,-1.1614,-1.1985,0.4395,0.4587,0.5394,0.5757,0.576,0.5746,0.5752,0.5779,0.5763,0.5768,0.5798,0.6142,0.6444,0.6701,0.6608,0.6611,0.6541,0.6558,0.6283,0.6097,0.601,0.5836,0.5623,0.5315,0.4993,0.471,0.4227,0.3823,0.3514,0.3048,0.2959,0.2868,0.2601,0.2243,0.1885,0.1525,0.0987,0.0,0.0,0.0,0.0,0.0,0.0,0.0,-0.0718,-0.0897,-0.0179,-0.0897,-0.2063,-0.3497,-0.4482,-0.5107,-0.5371,-0.5988,-0.6432,-0.67,-0.6966,-0.7054,-0.7139,-0.7139,-0.7139,-0.7139,-0.7143,-0.7149,-0.72,-0.7309,-0.7478,-0.7735,-0.8219,-0.8752,-0.9421,-1.0201,-1.0982,-1.1854,-1.2679,-1.3469,-1.4359,-1.5688,-1.6839,-1.7345,-1.7589,-1.7483,-1.7589,-1.7483,-1.7589,-1.7687,-1.7891,-1.7989,-1.8373,-1.879,-1.9465,-1.9758,-1.9059,-1.8723,-1.8769,-1.8078,-1.6965,-1.6235,-1.5676,-1.507,-1.4368,-1.3811,-1.3226,-1.2682,-1.2251,-1.2083,-1.183,-1.1486,-1.1159,-1.0937,-1.0868,-1.1089,-1.1546,-1.2118,-1.2459,0.3403,0.3492,0.3849,0.4295,0.4832,0.4832,0.483,0.4832,0.4832,0.4832,0.4832,0.5148,0.537,0.5496,0.5595,0.5684,0.57,0.5395,0.5222,0.5165,0.5,0.4906,0.4603,0.4374,0.4066,0.3643,0.3266,0.308,0.3056,0.2413,0.2331,0.2332,0.2239,0.1885,0.1525,0.0,0.0,0.0,0.0,0.0,0.0,0.0,0.0,0.0,0.0,-0.1166,-0.0987,-0.1166,-0.2241,-0.3406,-0.4484,-0.5018,-0.546,-0.6077,-0.652,-0.6789,-0.6966,-0.7054,-0.7139,-0.7139,-0.7139,-0.7139,-0.7139,-0.7139,-0.7139,-0.7207,-0.7375,-0.7759,-0.8288,-0.8914,-0.9552,-1.0484,-1.1368,-1.2427,-1.327,-1.4196,-1.5127,-1.6179,-1.7042,-1.7437,-1.7575,-1.7589,-1.7694,-1.7694,-1.7799,-1.7905,-1.8101,-1.8401,-1.879,-1.9369,-2.0135,-2.0405,-1.9805,-1.9384,-1.9309,-1.828,-1.7181,-1.668,-1.6122,-1.5403,-1.4692,-1.4054,-1.348,-1.2886,-1.2404,-1.2127,-1.1922,-1.1648,-1.1303,-1.1055,-1.104,-1.122,-1.1823,-1.2569,-1.2863,0.2689,0.2689,0.2419,0.2956,0.3851,0.3851,0.3851,0.3851,0.3851,0.3942,0.3941,0.421,0.4302,0.4389,0.4391,0.4578,0.4694,0.4369,0.4114,0.4045,0.407,0.3985,0.377,0.3564,0.3367,0.2872,0.2581,0.2576,0.2661,0.1943,0.1766,0.186,0.178,0.1603,0.1256,0.0,0.0,0.0,0.0,0.0,0.0,0.0,0.0,0.0,0.0,-0.1346,-0.1346,-0.1615,-0.2422,-0.3587,-0.4574,-0.5196,-0.5638,-0.608,-0.6523,-0.6789,-0.6962,-0.7139,-0.7139,-0.7139,-0.7139,-0.7139,-0.7139,-0.7139,-0.7139,-0.7143,-0.73,-0.7732,-0.8348,-0.8991,-0.9737,-1.0756,-1.1736,-1.2687,-1.3715,-1.4501,-1.5131,-1.6113,-1.6853,-1.7522,-1.7549,-1.7681,-1.7989,-1.8087,-1.838,-1.8394,-1.8318,-1.8722,-1.942,-2.0097,-2.0875,-2.0961,-2.0663,-2.016,-1.9668,-1.8664,-1.7763,-1.7258,-1.6668,-1.5792,-1.51,-1.4381,-1.3584,-1.2834,-1.2438,-1.2248,-1.1887,-1.1535,-1.1317,-1.107,-1.1268,-1.1553,-1.206,-1.2762,-1.3134,0.2154,0.2154,0.1346,0.1792,0.2688,0.2868,0.2868,0.2867,0.2867,0.3047,0.3136,0.3227,0.3405,0.358,0.3582,0.3853,0.3857,0.3506,0.297,0.2798,0.2898,0.3153,0.3057,0.2785,0.2506,0.2679,0.229,0.1913,0.2087,0.129,0.1118,0.1129,0.105,0.1148,0.1254,0.0449,0.0,0.0,0.0,0.0,0.0,-0.0808,-0.0718,-0.0628,-0.0987,-0.1525,-0.1435,-0.1793,-0.278,-0.4127,-0.4844,-0.5466,-0.5994,-0.6257,-0.6609,-0.7051,-0.7051,-0.7139,-0.7139,-0.7139,-0.7139,-0.7139,-0.7139,-0.7139,-0.7139,-0.7143,-0.7326,-0.7845,-0.8434,-0.9134,-1.0125,-1.1174,-1.2097,-1.3039,-1.3975,-1.4674,-1.5301,-1.594,-1.6764,-1.7228,-1.7428,-1.7772,-1.8185,-1.8589,-1.8962,-1.8977,-1.861,-1.9027,-1.9914,-2.0647,-2.1537,-2.1435,-2.1147,-2.0651,-2.0046,-1.9132,-1.8362,-1.7859,-1.7135,-1.616,-1.5365,-1.471,-1.3873,-1.2892,-1.2456,-1.233,-1.186,-1.1368,-1.1425,-1.1553,-1.1776,-1.2044,-1.2506,-1.2952,-1.3378,0.0359,0.0448,0.0,0.009,0.0627,0.1165,0.1434,0.1524,0.1793,0.1973,0.2062,0.2332,0.2601,0.2689,0.2959,0.332,0.3683,0.2153,0.1524,0.1075,0.1434,0.1434,0.143,0.1329,0.1144,0.096,0.0775,0.0766,0.0766,0.0336,0.0084,0.0085,-0.0086,-0.0088,0.0268,0.0,0.0,0.0,0.0,0.0,-0.0898,-0.1166,-0.1256,-0.0897,-0.1436,-0.1614,-0.1523,-0.206,-0.3047,-0.4574,-0.5382,-0.5913,-0.6174,-0.6435,-0.6789,-0.7051,-0.7139,-0.7139,-0.7139,-0.7139,-0.7139,-0.7139,-0.7139,-0.7139,-0.7139,-0.7323,-0.7591,-0.8001,-0.8627,-0.943,-1.051,-1.1587,-1.2501,-1.3499,-1.4274,-1.4666,-1.5312,-1.5941,-1.66,-1.68,-1.7001,-1.7476,-1.8006,-1.8716,-1.9145,-1.9618,-1.9351,-1.9785,-2.0507,-2.1221,-2.1952,-2.1839,-2.1621,-2.1081,-2.0399,-1.9626,-1.8965,-1.8414,-1.7507,-1.6452,-1.5685,-1.508,-1.4271,-1.347,-1.2908,-1.2388,-1.2079,-1.1836,-1.1985,-1.2126,-1.241,-1.2601,-1.2984,-1.3423,-1.3858,-0.1434,-0.1524,-0.1613,-0.1613,-0.1434,-0.0269,0.0179,0.0269,0.0538,0.0628,0.0718,0.1076,0.1166,0.1256,0.1525,0.2155,0.2785,0.1346,-0.009,-0.0538,-0.009,0.0,-0.0,-0.0351,-0.0436,-0.0603,-0.0591,-0.0583,-0.0582,-0.0578,-0.0744,-0.1085,-0.1531,-0.1293,-0.0877,0.0,0.0,0.0,-0.0359,-0.0449,-0.0987,-0.1346,-0.1525,-0.1525,-0.1794,-0.2063,-0.206,-0.2506,-0.3403,-0.5018,-0.6005,-0.6361,-0.6441,-0.6615,-0.6877,-0.7054,-0.7139,-0.7139,-0.7139,-0.7139,-0.7139,-0.7139,-0.7139,-0.7139,-0.7143,-0.7323,-0.7591,-0.8112,-0.8861,-0.9732,-1.0622,-1.1728,-1.2753,-1.3747,-1.44,-1.4892,-1.5242,-1.5972,-1.6353,-1.6533,-1.686,-1.7371,-1.7867,-1.8632,-1.933,-1.9735,-2.0142,-2.0568,-2.1064,-2.1758,-2.225,-2.2142,-2.203,-2.1545,-2.1015,-2.0363,-1.9711,-1.9055,-1.8009,-1.6834,-1.6129,-1.5436,-1.4704,-1.3986,-1.3278,-1.2693,-1.2513,-1.2397,-1.2491,-1.2749,-1.3084,-1.3302,-1.351,-1.3858,-1.4261,-0.3226,-0.3585,-0.3406,-0.3315,-0.3047,-0.1613,-0.0896,-0.0807,-0.0807,-0.0807,-0.0807,-0.0807,-0.0896,-0.0896,-0.0807,-0.0269,0.0269,-0.0538,-0.1434,-0.1793,-0.1524,-0.1345,-0.1334,-0.1664,-0.1815,-0.1876,-0.1837,-0.1787,-0.1867,-0.1526,-0.1606,-0.1953,-0.2244,-0.2102,-0.1706,-0.1304,-0.0974,-0.0889,-0.0891,-0.1072,-0.1343,-0.1705,-0.1794,-0.1973,-0.2243,-0.269,-0.2867,-0.3132,-0.4295,-0.5552,-0.6364,-0.6621,-0.6707,-0.6792,-0.6966,-0.7054,-0.7139,-0.7139,-0.7139,-0.7139,-0.7139,-0.7139,-0.7139,-0.7139,-0.7231,-0.7411,-0.768,-0.8097,-0.8796,-0.9766,-1.0686,-1.1754,-1.2852,-1.3706,-1.4586,-1.5,-1.5402,-1.5846,-1.6115,-1.6464,-1.6783,-1.7309,-1.8064,-1.8783,-1.9494,-1.9998,-2.0462,-2.0878,-2.144,-2.2389,-2.2631,-2.2428,-2.2272,-2.2011,-2.1466,-2.0677,-2.0052,-1.9344,-1.8275,-1.7128,-1.6507,-1.5833,-1.5027,-1.4313,-1.3474,-1.3034,-1.2857,-1.2859,-1.2947,-1.3348,-1.3893,-1.4122,-1.4326,-1.4289,-1.4586,-0.3851,-0.3851,-0.3941,-0.403,-0.3941,-0.3667,-0.3042,-0.233,-0.224,-0.233,-0.2598,-0.3048,-0.3048,-0.3229,-0.3229,-0.2599,-0.2509,-0.2776,-0.3312,-0.3403,-0.3133,-0.2953,-0.2918,-0.2947,-0.2986,-0.2926,-0.2856,-0.2782,-0.2616,-0.235,-0.2276,-0.2544,-0.2922,-0.2783,-0.2486,-0.2197,-0.1979,-0.1746,-0.1751,-0.1678,-0.187,-0.232,-0.241,-0.2586,-0.2949,-0.3395,-0.3751,-0.3842,-0.4919,-0.6,-0.6713,-0.6887,-0.6792,-0.6877,-0.7051,-0.7051,-0.7139,-0.7139,-0.7139,-0.7139,-0.7139,-0.7143,-0.7143,-0.7139,-0.7231,-0.7499,-0.7768,-0.8278,-0.8993,-1.0021,-1.0836,-1.1884,-1.2942,-1.3939,-1.4694,-1.5185,-1.5491,-1.5721,-1.6072,-1.6292,-1.6711,-1.7394,-1.8148,-1.8949,-1.9646,-2.0264,-2.0735,-2.1164,-2.176,-2.2628,-2.2938,-2.2644,-2.2377,-2.2089,-2.1551,-2.0846,-2.0279,-1.9626,-1.8506,-1.7674,-1.7202,-1.6445,-1.5523,-1.4644,-1.3797,-1.343,-1.3294,-1.3367,-1.3609,-1.4255,-1.4746,-1.495,-1.5129,-1.5071,-1.5106,-0.4832,-0.4832,-0.4924,-0.501,-0.5186,-0.5272,-0.5006,-0.438,-0.3937,-0.3849,-0.403,-0.43,-0.4661,-0.4659,-0.4567,-0.4206,-0.3486,-0.4291,-0.4921,-0.5282,-0.4739,-0.4469,-0.4408,-0.4295,-0.4216,-0.4125,-0.4029,-0.3923,-0.3675,-0.3203,-0.2971,-0.3532,-0.3744,-0.3595,-0.3297,-0.317,-0.3058,-0.2779,-0.2562,-0.2506,-0.2615,-0.2893,-0.306,-0.3246,-0.3698,-0.4244,-0.4696,-0.47,-0.5354,-0.6441,-0.6976,-0.7064,-0.6969,-0.7051,-0.7051,-0.7139,-0.7231,-0.7143,-0.7143,-0.7319,-0.7408,-0.7408,-0.7408,-0.7411,-0.7496,-0.7764,-0.794,-0.8336,-0.9332,-1.0329,-1.113,-1.2047,-1.316,-1.4202,-1.4688,-1.5267,-1.5553,-1.5737,-1.6035,-1.6224,-1.6812,-1.7478,-1.8202,-1.9088,-1.9837,-2.0377,-2.0876,-2.1338,-2.1906,-2.2551,-2.2895,-2.2895,-2.2427,-2.2045,-2.1499,-2.0929,-2.033,-1.9778,-1.8966,-1.8221,-1.7789,-1.6973,-1.594,-1.4962,-1.4136,-1.3926,-1.3839,-1.4065,-1.4342,-1.5024,-1.5628,-1.5891,-1.5959,-1.5794,-1.5919,-0.5988,-0.6257,-0.626,-0.6343,-0.6517,-0.6605,-0.6691,-0.6864,-0.5891,-0.5275,-0.5272,-0.5275,-0.5453,-0.5805,-0.5894,-0.544,-0.5169,-0.5708,-0.6704,-0.7258,-0.6432,-0.6068,-0.5993,-0.5741,-0.5707,-0.5601,-0.5388,-0.5306,-0.4996,-0.4598,-0.4363,-0.4844,-0.5018,-0.4878,-0.4332,-0.4106,-0.4004,-0.3903,-0.3388,-0.3096,-0.2952,-0.3204,-0.3528,-0.372,-0.4278,-0.4849,-0.5302,-0.5526,-0.5689,-0.658,-0.7017,-0.6997,-0.6984,-0.7058,-0.7065,-0.7193,-0.7358,-0.7386,-0.7394,-0.7584,-0.7848,-0.794,-0.794,-0.7944,-0.8028,-0.794,-0.8113,-0.8528,-0.9496,-1.0343,-1.1248,-1.2284,-1.3369,-1.4208,-1.4783,-1.5267,-1.5642,-1.5927,-1.6312,-1.6588,-1.7145,-1.78,-1.8542,-1.9463,-2.0192,-2.0645,-2.1006,-2.1544,-2.1985,-2.26,-2.2756,-2.2824,-2.2475,-2.199,-2.1583,-2.0999,-2.0418,-1.9803,-1.9079,-1.8578,-1.8078,-1.7246,-1.6315,-1.535,-1.4454,-1.4504,-1.4514,-1.4809,-1.5187,-1.5833,-1.6398,-1.6784,-1.6797,-1.6674,-1.661,-0.7305,-0.7397,-0.7397,-0.7573,-0.8017,-0.8013,-0.8277,-0.8623,-0.8615,-0.7914,-0.7044,-0.6956,-0.7132,-0.7482,-0.7482,-0.7115,-0.6835,-0.7464,-0.8384,-0.8748,-0.8288,-0.7914,-0.7767,-0.7586,-0.7439,-0.7307,-0.7134,-0.6927,-0.6685,-0.6213,-0.5832,-0.6314,-0.6483,-0.617,-0.5461,-0.5231,-0.4953,-0.492,-0.455,-0.4078,-0.3827,-0.3936,-0.4199,-0.4448,-0.4903,-0.5071,-0.5423,-0.5864,-0.6141,-0.6736,-0.6814,-0.6807,-0.6803,-0.6975,-0.7119,-0.7289,-0.7494,-0.7541,-0.761,-0.7906,-0.8269,-0.8456,-0.8552,-0.8556,-0.8556,-0.8288,-0.8412,-0.8941,-0.9525,-1.0447,-1.1409,-1.2484,-1.3534,-1.4208,-1.4885,-1.5356,-1.5832,-1.6224,-1.6609,-1.7066,-1.752,-1.8257,-1.9004,-1.9737,-2.0555,-2.1015,-2.1374,-2.1765,-2.207,-2.2495,-2.2388,-2.2444,-2.2191,-2.1855,-2.1494,-2.1064,-2.0391,-1.9926,-1.9254,-1.8759,-1.8276,-1.7177,-1.6056,-1.5463,-1.4859,-1.4902,-1.5179,-1.5619,-1.6066,-1.6656,-1.7044,-1.7417,-1.7605,-1.7531,-1.7433,-0.8619,-0.8711,-0.8973,-0.9152,-0.9414,-0.9589,-0.9845,-1.0193,-1.0534,-1.0274,-0.9575,-0.8969,-0.8798,-0.924,-0.9244,-0.9039,-0.8661,-0.947,-1.0564,-1.0942,-1.0559,-1.0101,-0.9833,-0.9507,-0.9283,-0.9114,-0.8723,-0.8523,-0.8438,-0.7816,-0.7512,-0.7927,-0.7944,-0.7561,-0.685,-0.6237,-0.5854,-0.5864,-0.5699,-0.5323,-0.4816,-0.4892,-0.4804,-0.5046,-0.5252,-0.535,-0.5473,-0.5903,-0.6204,-0.6542,-0.6719,-0.6885,-0.6888,-0.7054,-0.725,-0.7465,-0.759,-0.772,-0.7916,-0.8344,-0.8918,-0.9222,-0.9248,-0.9345,-0.9345,-0.9165,-0.9078,-0.9535,-1.0167,-1.0935,-1.1703,-1.2731,-1.3634,-1.4496,-1.507,-1.5547,-1.6224,-1.6812,-1.708,-1.7419,-1.7978,-1.8727,-1.9379,-2.0011,-2.0835,-2.1374,-2.1731,-2.2087,-2.2379,-2.232,-2.2191,-2.2031,-2.1816,-2.1631,-2.1367,-2.0898,-2.0371,-1.9837,-1.9306,-1.8783,-1.8132,-1.6881,-1.5852,-1.5365,-1.5183,-1.5279,-1.5643,-1.6056,-1.6728,-1.7274,-1.7726,-1.8113,-1.8193,-1.8257,-1.8154,-1.0019,-1.0289,-1.0636,-1.089,-1.0977,-1.1149,-1.1408,-1.166,-1.2095,-1.2443,-1.2431,-1.1214,-1.0875,-1.0885,-1.0977,-1.0763,-1.0919,-1.1621,-1.2643,-1.3101,-1.2619,-1.2157,-1.1798,-1.1506,-1.1089,-1.0751,-1.0427,-1.0304,-1.0254,-0.9471,-0.917,-0.9518,-0.9387,-0.9089,-0.8241,-0.7544,-0.708,-0.6934,-0.678,-0.6549,-0.6177,-0.578,-0.5575,-0.5532,-0.5729,-0.5793,-0.5839,-0.5885,-0.6125,-0.6453,-0.6749,-0.6905,-0.7067,-0.7141,-0.7438,-0.7636,-0.7983,-0.8057,-0.825,-0.8954,-0.9786,-1.0428,-1.0289,-1.0212,-1.0125,-1.0125,-0.9951,-1.0274,-1.0834,-1.1426,-1.2106,-1.298,-1.3969,-1.4688,-1.5261,-1.5737,-1.6522,-1.7305,-1.7643,-1.7792,-1.8434,-1.9196,-1.9837,-2.0473,-2.1015,-2.1642,-2.2087,-2.2441,-2.264,-2.2291,-2.207,-2.1758,-2.1465,-2.1299,-2.1123,-2.0693,-2.0146,-1.9668,-1.9117,-1.8652,-1.7901,-1.6776,-1.5911,-1.5457,-1.5399,-1.554,-1.5923,-1.6369,-1.7086,-1.787,-1.8237,-1.8572,-1.8537,-1.8564,-1.855,-1.1666,-1.1929,-1.2015,-1.2272,-1.2528,-1.2857,-1.3027,-1.3281,-1.3711,-1.4048,-1.4203,-1.4196,-1.3776,-1.2857,-1.2857,-1.2917,-1.3237,-1.3762,-1.423,-1.4797,-1.4468,-1.4189,-1.3758,-1.3259,-1.2758,-1.2346,-1.2136,-1.2083,-1.1877,-1.1095,-1.081,-1.1248,-1.1291,-1.0686,-0.9685,-0.8908,-0.8134,-0.8075,-0.794,-0.771,-0.7242,-0.678,-0.6321,-0.6264,-0.6433,-0.6362,-0.6291,-0.6217,-0.6471,-0.6716,-0.6902,-0.6995,-0.7167,-0.7348,-0.7707,-0.802,-0.836,-0.8434,-0.8796,-0.9571,-1.0442,-1.1402,-1.1251,-1.0987,-1.0987,-1.0987,-1.0932,-1.1014,-1.1468,-1.1903,-1.2559,-1.3555,-1.4388,-1.4975,-1.5553,-1.6123,-1.6798,-1.7572,-1.8233,-1.8566,-1.9088,-1.9745,-2.0292,-2.0925,-2.1553,-2.1998,-2.2176,-2.253,-2.2824,-2.2434,-2.1963,-2.1572,-2.124,-2.0889,-2.0684,-2.0381,-1.9902,-1.9424,-1.8838,-1.8135,-1.7412,-1.665,-1.5957,-1.5606,-1.5635,-1.5811,-1.624,-1.6768,-1.7506,-1.8221,-1.8706,-1.8996,-1.8913,-1.8942,-1.8918]}]]